     2.10           OBSERVATION DATA    G (GPS)             RINEX VERSION / TYPE
teqc 2005Sep1 20060522 13:42:21UTC                          PGM / RUN BY / DATE
MSXP|IAx86-PII|bcc32 5.0|MSWin95->XP|486/DX+                COMMENT
JPS2RIN 1.40 RUN BY 22-MAY-06 15:15                         COMMENT
build Feb 6 2004 (c) Javad Navigation Systems               COMMENT
Use -p (profile) switch to override ANTENNA TYPE and DELTA  COMMENT
and other fields                                            COMMENT
YLT20511a.jps                                               COMMENT
SE TPS 00000000                                             COMMENT
YLT20511a_3858                                              MARKER NAME
OBSERVER AGENCY                                             OBSERVER / AGENCY
MT310933858 TPS LEGACY 2.3 Apr,28,2004 p4                   REC # / TYPE / VERS
YLT20511a -Unknown-                                         ANT # / TYPE
   387436.9543  -738559.0443  6302217.3041                  APPROX POSITION XYZ
        0.0000        0.0000        0.0000                  ANTENNA: DELTA H/E/N
     1     1                                                WAVELENGTH FACT L1/2
     7    C1    P1    P2    L1    L2    D1    D2            # / TYPES OF OBSERV
    30.0000                                                 INTERVAL
Forced Modulo Decimation to 30 seconds                      COMMENT
teqc windowed: start @ 2006 May 11 12:56:00.000             COMMENT
  2006     5    11    12    56    0.0000000     GPS         TIME OF FIRST OBS
                                                            END OF HEADER
 06  5 11 12 56  0.0000000  0 11G 1G 2G 4G 5G 6G13G20G23G24G25G30
  24376217.474                                   128097945.691 5
     -3427.281
  20187256.179    20187255.9664   20187253.4874  106084752.453 8  82663453.61946
      1010.514         787.432
  20787875.978    20787876.2544   20787876.0674  109241027.040 7  85122894.03546
     -1710.175       -1332.597
  23385046.765    23385045.7544   23385047.3704  122889249.029 6  95757870.64643
     -3316.264       -2584.069
  22384372.513    22384372.4974   22384372.0484  117630670.366 7  91660279.46943
      3090.943        2408.518
  21588080.066    21588080.2564   21588079.4534  113446129.323 7  88399593.69745
      2787.169        2171.820
  23486915.173    23486914.2384   23486915.0514  123424584.092 6  96175007.33242
     -3458.875       -2695.222
  20883952.248    20883951.8234   20883943.9414  109745908.496 8  85516308.23946
       392.827         306.111
  22949126.497    22949126.0534   22949127.9414  120598474.203 7  93972851.61644
     -3133.464       -2441.654
  21966959.144    21966959.5454   21966957.5654  115437147.602 7  89951041.56044
      -821.284        -639.931
  21434240.926                                   112637693.341 7
     -1767.370
 06  5 11 12 56 30.0000000  0 11G 1G 2G 4G 5G 6G13G20G23G24G25G30
  25295123.775                                   132926773.831 3
     -3410.693
  21080876.144    21080875.7774   21080873.9504  110780757.796 8  86322678.55146
      1005.947         783.854
  21697014.830    21697014.9464   21697015.0234  114018582.927 8  88845664.89746
     -1710.432       -1332.813
  24303327.739    24303327.1724   24303329.0784  127714848.083 6  99518077.61341
     -3307.555       -2577.352
  23266090.629    23266090.7314   23266088.6004  122264121.425 4  95270760.77543
      3096.427        2412.740
  22471546.090    22471546.4804   22471545.8004  118088773.143 8  92017238.20445
      2787.086        2171.748
  24406006.064    24406005.0024   24406006.1994  128254439.054 6  99938530.57642
     -3448.580       -2687.192
  21781099.476    21781099.2694   21781096.7604  114460452.330 8  89189978.78046
       387.691         302.091
  23866361.690    23866361.3104   23866363.5464  125418580.832 7  97728778.71444
     -3124.215       -2434.457
  22871026.521    22871026.3714   22871026.9184  120188051.783 6  93653044.78443
      -822.508        -640.920
  22343711.296    22343711.5464   22343711.0914  117416989.799 7  91493776.57145
     -1769.218       -1378.621
 06  5 11 12 57  0.0000000  0 11G 1G 2G 4G 5G 6G13G20G23G24G25G30
  25314586.879                                   133029051.268 5
     -3404.284
  21075144.202    21075144.2454   21075142.4844  110750637.189 8  86299207.86846
      1001.255         780.213
  21706778.331    21706778.3534   21706778.9884  114069892.154 8  88885646.09345
     -1710.773       -1333.066
  24322182.761    24322182.6024   24322183.5254  127813930.713 6  99595284.81942
     -3298.896       -2570.587
  23248396.826                                   122171150.940 7
      3100.985
  22455632.843    22455632.8454   22455632.4664  118005147.842 7  91952075.62644
      2787.055        2171.741
  24425665.288    24425664.0124   24425664.3274  128357742.080 6 100019026.43442
     -3438.740       -2679.517
  21778899.124    21778898.5914   21778895.8184  114448886.360 8  89180966.35345
       382.524         298.081
  23884168.814    23884169.3174   23884171.7054  125512159.770 7  97801697.36344
     -3115.114       -2427.337
  22875723.095    22875723.3204   22875723.5744  120212734.035 7  93672277.75345
      -823.749        -641.880
  22353814.934    22353815.3074   22353814.7534  117470086.168 7  91535150.45645
     -1771.211       -1380.161
 06  5 11 12 57 30.0000000  0 11G 1G 2G 4G 5G 6G13G20G23G24G25G30
  25333991.132                                   133131017.648 4
     -3394.182
  21069447.271    21069446.8794   21069445.1444  110720697.202 8  86275877.86546
       994.289         774.779
  21716551.737    21716551.7344   21716551.9434  114121250.404 8  88925665.51645
     -1713.399       -1335.106
  24340995.042    24340994.4674   24340995.0874  127912786.859 6  99672315.46742
     -3292.232       -2565.335
  23230684.539    23230683.7304   23230684.0714  122078068.333 7  95125782.08544
      3103.789        2418.536
  22439728.580    22439728.6084   22439727.4134  117921566.481 7  91886947.24644
      2784.450        2169.709
  24445273.071    24445270.7094   24445272.7694  128460782.510 6 100099317.63042
     -3430.859       -2673.377
  21776734.590    21776734.5814   21776731.8444  114437514.923 7  89172105.50445
       375.124         292.305
  23901931.551    23901931.1654   23901933.6284  125605500.926 6  97874430.62844
     -3108.211       -2422.000
  22880435.003    22880435.1054   22880435.0094  120237493.898 7  93691571.14645
      -827.426        -644.735
  22363936.555    22363936.8604   22363936.7124  117523278.285 7  91576598.84744
     -1775.429       -1383.459
 06  5 11 12 58  0.0000000  0 10G 2G 4G 5G 6G13G20G23G24G25G30
  21063792.743    21063792.5224   21063790.5264  110690981.573 8  86252722.63446
       986.182         768.457
  21726342.379    21726342.1704   21726342.3284  114172698.622 8  88965754.97745
     -1717.038       -1337.951
  24359769.682    24359769.1334   24359771.7894  128011456.919 6  99749201.21142
     -3286.330       -2560.738
  23212958.417    23212958.6784   23212958.6594  121984921.368 7  95053200.02044
      3105.319        2419.736
  22423839.945    22423840.4754   22423839.7784  117838074.950 7  91821888.90945
      2780.943        2166.973
  24464838.482    24464837.6714   24464836.5154  128563601.090 6 100179435.92842
     -3424.127       -2668.163
  21774616.681    21774615.9434   21774613.5864  114426380.761 7  89163429.51645
       366.758         285.787
  23919657.130    23919657.0164   23919658.6764  125698645.991 7  97947011.21943
     -3102.189       -2417.289
  22885169.610    22885169.6364   22885169.3444  120262373.036 7  93710957.47145
      -831.788        -648.149
  22374085.126    22374085.2224   22374084.9694  117576606.631 7  91618153.35944
     -1780.447       -1387.368
 06  5 11 12 58 30.0000000  0 10G 2G 4G 5G 6G13G20G23G24G25G30
  21058187.268    21058187.0214   21058184.8774  110661522.948 8  86229767.77946
       977.406         761.609
  21736154.852    21736155.1234   21736155.5374  114224266.665 7  89005937.85545
     -1721.088       -1341.096
  24378517.345    24378515.9494   24378516.6924  128109969.167 6  99825963.90342
     -3281.612       -2557.099
  23195227.328    23195227.4824   23195228.1984  121891743.919 7  94980594.22944
      3106.167        2420.395
  22407975.543    22407975.6614   22407974.9194  117754707.560 7  91756927.33544
      2776.523        2163.530
  24484367.537    24484366.9664   24484366.3434  128666226.857 6 100259404.02342
     -3418.039       -2663.386
  21772548.470    21772548.2134   21772545.3974  114415515.373 8  89154962.95245
       357.410         278.494
  23937350.201    23937349.7044   23937352.5514  125791623.803 6  98019461.46543
     -3096.721       -2413.031
  22889932.344    22889932.0704   22889932.1734  120287401.832 7  93730460.43645
      -837.131        -652.317
  22384264.517    22384264.8674   22384263.6774  117630100.435 7  91659836.79044
     -1786.153       -1391.802
 06  5 11 12 59  0.0000000  0 10G 2G 4G 5G 6G13G20G23G24G25G30
  21052633.362    21052633.2324   21052631.2404  110632338.551 8  86207026.66646
       967.944         754.254
  21745993.938    21745993.8374   21745994.4144  114275968.743 7  89046225.09945
     -1725.965       -1344.909
  24397236.463    24397236.1844   24397236.7594  128208337.327 6  99902614.38242
     -3276.882       -2553.393
  23177494.693    23177494.0754   23177494.7184  121798554.673 7  94907979.27144
      3106.244        2420.453
  22392138.596    22392138.5684   22392138.3704  117671482.829 7  91692076.86245
      2771.507        2159.597
  24503861.870    24503862.1064   24503861.5324  128768673.407 6 100339232.43142
     -3412.138       -2658.812
  21770536.133    21770535.4504   21770532.1804  114404935.337 8  89146718.77345
       347.628         270.880
  23955013.344    23955013.0144   23955016.2714  125884448.250 6  98091792.10443
     -3091.938       -2409.269
  22894726.473    22894726.2854   22894726.4384  120312595.490 7  93750091.87245
      -842.804        -656.715
  22394478.349    22394478.6964   22394478.1984  117683774.151 7  91701660.46344
     -1792.381       -1396.661
 06  5 11 12 59 30.0000000  0 10G 2G 4G 5G 6G13G20G23G24G25G30
  21047136.025    21047135.7604   21047133.8664  110603448.973 8  86184515.34546
       957.625         746.210
  21755861.666    21755861.6714   21755861.8704  114327823.092 8  89086631.00645
     -1731.418       -1349.146
  24415931.249    24415929.5554   24415932.0104  128306578.539 5  99979165.90942
     -3272.869       -2550.306
  23159763.261    23159762.7594   23159763.2904  121705375.942 7  94835372.46644
      3105.323        2419.746
  22376332.716    22376332.9194   22376333.0494  117588423.481 7  91627355.30045
      2765.463        2154.901
  24523326.496    24523325.5694   24523326.6574  128870958.367 6 100418934.92542
     -3407.442       -2655.129
  21768580.366    21768580.0064   21768577.0714  114394660.738 8  89138712.57545
       336.925         262.557
  23972654.021    23972652.0784   23972654.7294  125977137.318 7  98164017.03943
     -3087.848       -2406.092
  22899555.350    22899555.3024   22899555.7914  120337972.709 7  93769866.32245
      -849.335        -661.810
  22404729.675    22404730.0114   22404729.9484  117737645.335 7  91743637.99444
     -1799.450       -1402.176
 06  5 11 13  0  0.0000000  0 10G 2G 4G 5G 6G13G20G23G24G25G30
  21041701.140    21041700.8774   21041699.0214  110574888.465 8  86162260.37046
       945.901         737.049
  21765763.959    21765764.1534   21765764.4454  114379861.808 7  89127180.59145
     -1738.222       -1354.453
  24434607.809    24434606.5664   24434608.4754  128404723.789 6 100055642.61542
     -3270.133       -2548.159
  23142040.394    23142040.3584   23142040.6494  121612243.842 6  94762802.06344
      3103.017        2417.958
  22360565.730    22360565.8104   22360565.0864  117505565.739 7  91562790.88845
      2757.945        2149.029
  24542765.677    24542765.3914   24542765.1534  128973112.992 6 100498535.88642
     -3403.449       -2652.047
  21766689.491    21766689.0514   21766686.0914  114384725.580 8  89130970.94145
       324.985         253.229
  23990271.867    23990271.0204   23990272.8994  126069723.645 7  98236162.26843
     -3084.788       -2403.730
  22904425.336    22904425.7274   22904425.8694  120363566.219 7  93789809.30944
      -857.202        -667.952
  22415024.753    22415024.8284   22415025.0704  117791745.678 7  91785794.11544
     -1807.699       -1408.586
 06  5 11 13  0 30.0000000  0 10G 2G 4G 5G 6G13G20G23G24G25G30
  21036329.154    21036328.9954   21036327.4304  110546660.356 8  86140264.46946
       935.240         728.756
  21775702.431    21775702.1984   21775702.3944  114432084.948 8  89167873.92745
     -1743.917       -1358.880
  24453265.315    24453264.4314   24453266.4944  128502772.349 5 100132044.05042
     -3266.722       -2545.468
  23124327.544    23124327.0844   23124327.7604  121519162.497 7  94690271.15844
      3101.697        2416.914
  22344837.474    22344837.7844   22344837.4904  117422913.736 7  91498386.73645
      2751.454        2143.999
  24562180.695    24562180.3894   24562180.4504  129075136.735 6 100578034.82542
     -3398.576       -2648.268
  21764864.249    21764863.8284   21764860.2174  114375131.749 8  89123495.28445
       313.904         244.594
  24007869.009    24007868.9474   24007871.1624  126162206.414 6  98308227.00343
     -3080.955       -2400.741
  22909337.342    22909337.3254   22909337.1444  120389376.803 7  93809921.45944
      -864.183        -673.370
  22425362.920    22425363.3554   22425362.9334  117846074.530 7  91828128.26944
     -1814.968       -1414.277
 06  5 11 13  1  0.0000000  0 10G 2G 4G 5G 6G13G20G23G24G25G30
  21031022.477    21031022.4974   21031020.6304  110518773.571 8  86118534.58246
       923.378         719.519
  21785676.218    21785676.2244   21785676.2004  114484498.871 8  89208715.87445
     -1750.788       -1364.237
  24471906.523    24471904.5394   24471907.5564  128600729.821 5 100208374.38642
     -3264.349       -2543.642
  23106626.193    23106626.3304   23106626.9754  121426143.066 7  94617788.48944
      3099.211        2414.974
  22329151.038    22329150.7884   22329150.3904  117340478.707 8  91434151.66145
      2743.740        2137.968
  24581571.780    24581570.1344   24581570.8284  129177035.524 6 100657436.34442
     -3394.877       -2645.354
  21763104.567    21763104.2744   21763101.7374  114365887.917 8  89116292.31945
       301.920         235.265
  24025448.614    24025449.2934   24025451.5074  126254591.457 6  98380215.57343
     -3078.285       -2398.671
  22914291.680    22914291.5964   22914291.4984  120415411.934 7  93830208.59344
      -872.011        -679.487
  22435746.617    22435746.7104   22435746.0254  117900638.724 7  91870645.77944
     -1823.092       -1420.598
 06  5 11 13  1 30.0000000  0 10G 2G 4G 5G 6G13G20G23G24G25G30
  21025786.809    21025786.5574   21025784.5964  110491259.385 8  86097095.11846
       910.644         709.583
  21795691.832    21795691.9014   21795692.1804  114537132.473 8  89249729.12545
     -1758.375       -1370.169
  24490534.014    24490533.6574   24490534.6674  128698624.148 5 100284655.64241
     -3262.108       -2541.923
  23088943.713    23088943.2424   23088943.7654  121333218.122 6  94545379.43244
      3095.828        2412.327
  22313511.650    22313511.6504   22313510.9434  117258293.286 7  91370111.09045
      2734.977        2131.134
  24600943.244    24600943.2214   24600944.0004  129278837.438 6 100736762.44142
     -3391.874       -2643.010
  21761418.154    21761417.8494   21761414.9434  114357024.283 7  89109385.65246
       288.899         225.112
  24043017.546    24043017.0074   24043018.7354  126346907.301 6  98452150.11443
     -3076.320       -2397.125
  22919294.030    22919294.1344   22919294.5784  120441700.748 7  93850693.38744
      -880.831        -686.367
  22446179.603    22446179.9144   22446179.6294  117955466.106 7  91913368.40344
     -1832.193       -1427.690
 06  5 11 13  2  0.0000000  0 10G 2G 4G 5G 6G13G20G23G24G25G30
  21020622.687    21020622.5184   21020620.5664  110464122.422 8  86075949.42646
       898.078         699.806
  21805750.007    21805750.0724   21805750.0994  114589988.116 8  89290915.36345
     -1765.703       -1375.865
  24509151.847    24509149.4784   24509151.7784  128796456.768 5 100360888.76941
     -3260.117       -2540.314
  23071280.140    23071279.3174   23071279.8464  121240394.447 7  94473049.29244
      3092.324        2409.626
  22297920.663    22297920.7884   22297920.3344  117176364.479 7  91306270.50045
      2726.527        2124.581
  24620297.293    24620295.7804   24620297.6864  129380544.122 6 100816014.32442
     -3388.679       -2640.538
  21759805.023    21759804.7444   21759801.4624  114348544.761 8  89102778.10446
       276.188         215.236
  24060572.395    24060570.6424   24060573.2454  126439156.577 7  98524033.00943
     -3074.003       -2395.312
  22924345.193    22924345.8014   22924345.9284  120468246.430 7  93871378.33444
      -889.349        -692.997
  22456663.493    22456663.5074   22456663.4654  118010558.927 7  91956297.85344
     -1841.083       -1434.600
 06  5 11 13  2 30.0000000  0 10G 2G 4G 5G 6G13G20G23G24G25G30
  21015533.531    21015533.2204   21015531.2474  110437377.830 8  86055109.64746
       884.555         689.263
  21815852.173    21815852.3904   21815852.5924  114643077.196 7  89332283.42545
     -1773.889       -1382.250
  24527759.204    24527758.4314   24527761.0614  128894238.117 5 100437081.68341
     -3258.756       -2539.327
  23053638.451    23053638.1264   23053638.5944  121147688.072 6  94400810.54844
      3087.722        2406.002
  22282382.279    22282382.3594   22282381.6994  117094708.544 7  91242642.54945
      2716.946        2117.088
  24639635.701    24639635.5784   24639636.3294  129482167.271 6 100895201.14742
     -3386.242       -2638.669
  21758266.535    21758266.1414   21758264.0744  114340463.480 7  89096480.97245
       262.281         204.377
  24078113.103    24078113.6024   24078116.7744  126531350.323 6  98595872.53043
     -3072.484       -2394.131
  22929448.627    22929448.4684   22929448.5414  120495061.466 7  93892273.17744
      -898.614        -700.204
  22467200.364    22467200.2034   22467200.1214  118065928.275 7  91999442.76544
     -1850.613       -1442.026
 06  5 11 13  3  0.0000000  0 11G 2G 4G 5G 6G10G13G20G23G24G25G30
  21010520.851    21010520.3604   21010518.6564  110411035.297 8  86034583.02346
       871.181         678.847
  21826000.588    21826000.8834   21826001.2764  114696407.796 8  89373839.70045
     -1781.889       -1388.482
  24546358.188    24546356.9894   24546358.9204  128991976.329 5 100513241.26841
     -3257.164       -2538.004
  23036021.488    23036020.9924   23036021.3564  121055111.001 6  94328672.57744
      3083.547        2402.772
  25039342.411    25039341.1914   25039342.7094  131582629.136 6 102531937.91443
      4482.353        3492.759
  22266897.693    22266897.3804   22266897.3614  117013337.263 7  91179236.37745
      2707.345        2109.614
  24658959.397    24658958.7514   24658959.2984  129583713.813 6 100974328.24542
     -3383.692       -2636.687
  21756807.469    21756806.8144   21756803.6784  114332790.050 8  89090501.57846
       248.674         193.776
  24095648.781    24095649.0054   24095650.8744  126623495.764 6  98667674.16943
     -3070.904       -2392.882
  22934603.633    22934603.5844   22934603.8534  120522154.226 7  93913384.40544
      -908.001        -707.518
  22477790.862    22477791.0364   22477790.5844  118121581.648 7  92042808.95044
     -1860.001       -1449.341
 06  5 11 13  3 30.0000000  0 11G 2G 4G 5G 6G10G13G20G23G24G25G30
  21005587.007    21005586.8244   21005585.2104  110385109.951 8  86014381.49746
       856.721         667.572
  21836198.236    21836198.0294   21836198.0454  114749992.301 7  89415593.83545
     -1790.698       -1395.345
  24564949.647    24564950.0724   24564951.2874  129089682.193 5 100589375.56141
     -3256.928       -2537.861
  23018432.333    23018431.9074   23018432.0944  120962679.931 7  94256648.37744
      3078.206        2398.592
  25013740.618    25013739.3144   25013741.1474  131448089.109 7 102427101.54443
      4486.765        3496.147
  22251470.656    22251470.8974   22251469.9694  116932267.719 7  91116065.34145
      2696.801        2101.395
  24678271.215    24678270.1694   24678270.1274  129685195.361 6 101053404.69242
     -3382.028       -2635.350
  21755427.532    21755426.6244   21755423.4824  114325538.708 7  89084851.06945
       234.283         182.558
  24113178.881    24113177.4614   24113178.9594  126715605.379 6  98739447.72443
     -3070.121       -2392.279
  22939815.313    22939815.0374   22939815.1584  120549537.838 6  93934722.27744
      -917.971        -715.317
  22488437.540    22488437.9394   22488437.3324  118177531.630 7  92086406.26845
     -1870.385       -1457.440
 06  5 11 13  4  0.0000000  0 11G 2G 4G 5G 6G10G13G20G23G24G25G30
  21000735.251    21000735.0504   21000733.0764  110359615.031 8  85994515.42946
       842.101         656.194
  21846445.165    21846445.0884   21846445.1934  114803841.142 8  89457553.85445
     -1799.950       -1402.552
  24583539.220    24583538.2444   24583539.8784  129187366.034 5 100665492.97241
     -3256.471       -2537.474
  23000873.146    23000873.7344   23000873.6834  120870409.537 7  94184749.38744
      3072.692        2394.320
  24988113.602    24988113.0304   24988113.8374  131313419.963 6 102322164.57843
      4490.425        3499.030
  22236103.552    22236103.7254   22236103.4324  116851514.428 8  91053140.68945
      2685.861        2092.885
  24697572.457    24697571.7294   24697571.3794  129786622.318 6 101132438.60942
     -3380.543       -2634.172
  21754129.175    21754129.0694   21754126.5404  114318721.791 8  89079539.07246
       219.426         170.987
  24130702.665    24130700.3764   24130702.0234  126807689.663 6  98811201.51943
     -3069.683       -2391.964
  22945084.182    22945083.4594   22945083.4394  120577223.603 7  93956295.60645
      -928.534        -723.531
  22499143.037    22499143.3494   22499142.8044  118233787.767 7  92130242.20745
     -1880.963       -1465.668
 06  5 11 13  4 30.0000000  0 11G 2G 4G 5G 6G10G13G20G23G24G25G30
  20995967.224    20995966.9804   20995965.0154  110334559.515 8  85974991.75546
       827.644         644.895
  21856743.391    21856743.7444   21856744.1664  114857960.414 8  89499724.52445
     -1808.658       -1409.329
  24602124.849    24602123.3244   24602123.4294  129285032.783 5 100741597.02641
     -3255.526       -2536.862
  22983347.569    22983347.8404   22983348.1694  120778310.374 6  94112983.81544
      3066.911        2389.807
  24962463.935    24962463.5224   24962464.5234  131178632.099 7 102217135.07343
      4494.739        3502.406
  22220799.372    22220799.4144   22220798.1024  116771087.995 7  90990470.76145
      2675.201        2084.563
  24716863.537    24716863.8194   24716864.3324  129888000.170 6 101211434.29442
     -3378.499       -2632.542
  21752917.608    21752917.0304   21752914.1744  114312347.205 8  89074571.68745
       204.905         159.665
  24148219.315    24148219.7124   24148221.0194  126899754.726 6  98882940.42443
     -3068.730       -2391.233
  22950410.602    22950410.5984   22950410.7464  120605218.252 7  93978109.61645
      -938.467        -731.273
  22509907.365    22509907.7544   22509907.4564  118290355.805 7  92174321.06645
     -1890.905       -1473.422
 06  5 11 13  5  0.0000000  0 11G 2G 4G 5G 6G10G13G20G23G24G25G30
  20991284.433    20991284.1264   20991282.4424  110309950.053 8  85955815.50346
       812.612         633.222
  21867095.063    21867094.8924   21867095.4074  114912354.814 8  89542109.44245
     -1817.895       -1416.528
  24620707.440    24620706.5544   24620708.9154  129382686.653 5 100817691.03741
     -3255.179       -2536.498
  22965856.519    22965856.2074   22965856.9204  120686391.670 6  94041358.85744
      3060.493        2384.810
  24936793.473    24936793.3924   24936795.0004  131043735.354 6 102112020.66543
      4498.154        3505.060
  22205558.728    22205558.4814   22205557.7864  116690997.864 7  90928062.88745
      2663.814        2075.706
  24736146.519    24736146.9404   24736146.4884  129989333.701 6 101290395.39742
     -3377.206       -2631.597
  21751788.911    21751788.5054   21751786.2274  114306422.073 7  89069954.68645
       189.835         147.910
  24165735.592    24165736.2614   24165738.3704  126991805.345 6  98954668.14443
     -3068.277       -2390.879
  22955797.876    22955797.3774   22955797.8734  120633527.531 7  94000168.78445
      -948.912        -739.405
  22520732.315    22520732.6654   22520732.2924  118347240.662 7  92218646.72045
     -1901.578       -1481.733
 06  5 11 13  5 30.0000000  0 12G 2G 4G 5G 6G10G13G16G20G23G24G25G30
  20986688.482    20986688.2944   20986686.6014  110285798.440 8  85936996.09846
       796.732         620.820
  21877499.795    21877499.9414   21877500.4444  114967033.994 8  89584716.48945
     -1828.063       -1424.459
  24639289.699    24639290.8694   24639291.5674  129480334.913 5 100893780.51341
     -3255.262       -2536.499
  22948401.534    22948401.1774   22948401.9734  120594666.286 6  93969884.59544
      3053.370        2379.240
  24911105.518    24911105.4974   24911106.0654  130908742.601 6 102006831.40643
      4500.592        3506.939
  22190383.574    22190383.9554   22190383.7524  116611256.979 7  90865927.21645
      2651.463        2066.067
  25224884.579    25224884.1124   25224885.0364  132557677.107 6 103291700.09543
      4077.932        3177.640
  24755423.250    24755421.7914   24755422.9984  130090630.479 5 101369327.85542
     -3376.670       -2631.195
  21750749.821    21750749.2314   21750745.8084  114300956.578 8  89065695.89645
       173.856         135.474
  24183253.140    24183252.0404   24183254.1144  127083849.874 6  99026391.06643
     -3068.558       -2391.068
  22961246.580    22961246.3254   22961246.8234  120662160.577 7  94022480.25045
      -960.473        -748.441
  22531619.711    22531619.7554   22531619.0104  118404450.580 7  92263225.78545
     -1913.014       -1490.655
 06  5 11 13  6  0.0000000  0 12G 2G 4G 5G 6G10G13G16G20G23G24G25G30
  20982181.860    20982181.6534   20982179.9374  110262116.517 8  85918542.68346
       781.550         609.007
  21887961.067    21887961.1254   21887961.5754  115022006.580 8  89627552.18345
     -1837.337       -1431.688
  24657872.978    24657871.0624   24657874.9684  129577986.847 5 100969872.74641
     -3255.177       -2536.549
  22930986.194    22930986.0444   22930986.4644  120503147.849 6  93898571.54644
      3047.061        2374.337
  24885402.219    24885401.1974   24885402.7544  130773668.182 6 101901578.59043
      4503.854        3509.511
  22175278.815    22175278.9104   22175278.4954  116531878.658 8  90804073.95745
      2639.958        2057.110
  25201598.130    25201598.1164   25201598.7914  132435310.730 6 103196349.82243
      4079.228        3178.635
  24774693.638    24774692.3144   24774696.3024  130191899.998 5 101448239.14442
     -3375.195       -2630.039
  21749799.191    21749798.8354   21749796.0164  114295961.456 8  89061803.49446
       158.680         123.632
  24200768.632    24200768.0204   24200769.8714  127175897.571 6  99098116.49043
     -3068.411       -2390.964
  22966758.686    22966758.7674   22966758.9654  120691127.530 7  94045051.89045
      -971.035        -756.660
  22542569.594    22542569.8064   22542569.3954  118461994.531 8  92308065.13845
     -1923.713       -1498.993
 06  5 11 13  6 30.0000000  0 12G 2G 4G 5G 6G10G13G16G20G23G24G25G30
  20977767.952    20977767.4784   20977765.7784  110238919.582 8  85900467.03246
       764.427         595.662
  21898480.849    21898480.5634   21898481.0134  115077286.204 8  89670627.24845
     -1848.347       -1440.283
  24676457.878    24676456.2874   24676457.7894  129675654.968 5 101045977.61641
     -3256.585       -2537.621
  22913613.849    22913613.5044   22913613.8034  120411853.956 7  93827433.52444
      3038.619        2367.743
  24859686.113    24859685.6144   24859687.1834  130638529.822 7 101796275.99443
      4504.830        3510.240
  22160246.424    22160246.3294   22160245.6024  116452880.737 8  90742517.15645
      2626.205        2046.377
  25178312.524    25178312.1334   25178313.6624  132312944.900 6 103100999.84543
      4077.948        3177.610
  24793961.480    24793961.2374   24793962.8024  130293155.103 5 101527139.15542
     -3375.907       -2630.607
  21748940.480    21748940.1994   21748937.9254  114291452.289 8  89058289.89445
       141.535         110.290
  24218287.441    24218287.1704   24218288.5384  127267961.570 6  99169854.74343
     -3069.649       -2391.950
  22972337.135    22972336.9014   22972337.0554  120720442.249 7  94067894.51845
      -983.777        -766.580
  22553586.046    22553586.2754   22553586.1464  118519885.329 7  92353174.68445
     -1936.093       -1508.648
 06  5 11 13  7  0.0000000  0 12G 2G 4G 5G 6G10G13G16G20G23G24G25G30
  20973448.522    20973448.2384   20973446.5434  110216221.792 8  85882780.46446
       748.234         583.053
  21909060.148    21909060.1184   21909060.6544  115132883.207 8  89713949.49245
     -1858.557       -1448.228
  24695048.008    24695047.7584   24695050.5724  129773349.470 5 101122103.20841
     -3257.019       -2537.914
  22896286.744    22896286.2254   22896287.0964  120320799.796 7  93756482.25544
      3031.191        2361.968
  24833960.547    24833959.7954   24833961.5284  130503342.851 7 101690935.55043
      4506.944        3511.900
  22145288.498    22145288.7814   22145288.1924  116374278.444 8  90681268.70145
      2613.363        2036.394
  25155030.334    25155030.7454   25155031.5794  132190595.244 7 103005662.36443
      4077.979        3177.682
  24813229.542    24813228.5724   24813230.1754  130394405.864 5 101606035.81242
     -3374.629       -2629.561
  21748177.612    21748177.3034   21748174.2874  114287441.365 8  89055164.47345
       125.459          97.766
  24235812.072    24235811.6364   24235813.8644  127360052.581 6  99241613.99343
     -3070.023       -2392.239
  22977984.172    22977983.8444   22977983.9804  120750116.155 7  94091017.03645
      -995.191        -775.468
  22564670.568    22564670.6234   22564670.7834  118578133.436 7  92398562.73745
     -1947.586       -1517.589
 06  5 11 13  7 30.0000000  0 12G 2G 4G 5G 6G10G13G16G20G23G24G25G30
  20969224.778    20969224.3724   20969222.4484  110194024.195 8  85865483.61446
       731.072         569.677
  21919699.815    21919700.0734   21919701.0844  115188797.138 8  89757518.81445
     -1869.677       -1456.881
  24713644.492    24713644.8854   24713646.4714  129871068.806 5 101198248.17241
     -3258.165       -2538.771
  22879005.644    22879005.4494   22879006.0254  120229988.623 7  93685720.32944
      3022.356        2355.091
  24808227.762    24808226.7064   24808227.9254  130368111.226 7 101585560.34543
      4507.949        3512.676
  22130407.255    22130406.9794   22130406.2444  116296075.242 8  90620331.22845
      2599.547        2025.638
  25131752.672    25131752.2564   25131752.7944  132068266.429 6 102910341.26543
      4076.831        3176.749
  24832495.428    24832494.3914   24832498.1164  130495651.071 5 101684928.13442
     -3375.153       -2629.979
  21747509.049    21747508.7814   21747506.3724  114283929.581 8  89052427.94545
       108.161          84.284
  24253342.819    24253341.6324   24253343.1864  127452169.725 7  99313393.51343
     -3071.560       -2393.403
  22983698.852    22983698.8724   22983699.3254  120780149.242 7  94114419.42545
     -1007.542        -785.098
  22575822.206    22575822.5364   22575822.6124  118636738.036 7  92444228.64745
     -1959.744       -1527.077
 06  5 11 13  8  0.0000000  0 12G 2G 4G 5G 6G10G13G16G20G23G24G25G30
  20965098.366    20965097.9914   20965096.3674  110172340.282 8  85848586.90946
       713.573         556.054
  21930402.994    21930402.8684   21930403.1484  115245039.246 8  89801343.89845
     -1880.974       -1465.683
  24732247.073    24732245.9684   24732248.1344  129968823.434 5 101274420.67241
     -3259.638       -2539.986
  22861774.394    22861773.6154   22861774.5004  120139436.072 7  93615159.89244
      3013.551        2348.229
  24782488.262    24782487.2324   24782488.9934  130232850.608 7 101480162.53344
      4508.420        3513.059
  22115604.435    22115604.4574   22115603.7664  116218286.564 8  90559716.79445
      2585.352        2014.583
  25108481.248    25108480.4904   25108481.1924  131945973.874 6 102815048.34943
      4075.198        3175.511
  24851763.150    24851762.4154   24851763.4984  130596901.853 5 101763824.84142
     -3375.661       -2630.353
  21746937.652    21746937.5584   21746935.7804  114280929.646 7  89050090.28445
        90.756          70.717
  24270878.109    24270877.8754   24270879.6764  127544323.998 6  99385202.04643
     -3073.083       -2394.661
  22989484.711    22989484.7094   22989484.7364  120810553.235 7  94138110.82545
     -1020.210        -794.959
  22587044.074    22587044.1224   22587044.3554  118695709.470 7  92490180.47144
     -1972.388       -1536.938
 06  5 11 13  8 30.0000000  0 12G 2G 4G 5G 6G10G13G16G20G23G24G25G30
  20961073.243    20961073.0194   20961071.2724  110151189.866 8  85832106.05646
       696.059         542.383
  21941170.761    21941171.0164   21941171.4554  115301625.912 7  89845437.38845
     -1892.140       -1474.386
  24750859.409    24750859.6434   24750857.5564  130066628.788 5 101350632.45641
     -3261.049       -2541.098
  22844595.485    22844595.3914   22844596.1034  120049163.161 7  93544817.36544
      3004.110        2340.866
  24756746.595    24756746.6294   24756747.9844  130097582.130 7 101374758.48244
      4508.846        3513.397
  22100884.539    22100884.7114   22100883.6934  116140933.351 8  90499441.64345
      2570.952        2003.322
  25085220.843    25085220.1534   25085219.9684  131823739.103 6 102719800.51143
      4073.286        3173.978
  24871033.861    24871034.0544   24871034.6354  130698174.427 5 101842738.56542
     -3376.089       -2630.731
  21746468.892    21746468.3854   21746465.2244  114278460.327 8  89048166.04245
        73.301          57.117
  24288423.247    24288424.1644   24288425.9774  127636531.810 6  99457052.17843
     -3074.571       -2395.779
  22995344.303    22995343.9774   22995344.3144  120841345.397 7  94162104.69945
     -1032.864        -804.825
  22598339.241    22598339.0334   22598339.2784  118755063.837 7  92536430.46244
     -1984.962       -1546.718
 06  5 11 13  9  0.0000000  0 12G 2G 4G 5G 6G10G13G16G20G23G24G25G30
  20957151.215    20957150.9864   20957149.1114  110130577.651 8  85816044.56046
       677.595         527.982
  21952004.723    21952004.7974   21952005.4924  115358560.300 8  89889802.00045
     -1904.184       -1483.787
  24769480.937    24769477.8514   24769483.6564  130164487.948 5 101426886.46241
     -3263.458       -2542.931
  22827472.109    22827471.9544   22827472.1774  119959176.895 7  93474698.20944
      2994.032        2333.016
  24731005.581    24731005.4804   24731006.8014  129962313.773 6 101269354.67144
      4508.288        3512.915
  22086247.986    22086248.2524   22086247.9934  116064022.558 7  90439511.24545
      2555.815        1991.520
  25061971.614    25061971.7254   25061972.2024  131701569.476 6 102624603.37943
      4070.608        3171.908
  24890310.320    24890310.7434   24890311.9324  130799470.892 5 101921670.88642
     -3377.352       -2631.703
  21746100.518    21746100.4014   21746096.8684  114276525.858 8  89046658.57245
        55.031          42.872
  24305983.010    24305982.1184   24305983.1574  127728795.970 6  99528946.18643
     -3076.912       -2397.604
  23001278.147    23001278.1024   23001278.5904  120872529.178 7  94186403.73245
     -1046.554        -815.504
  22609706.254    22609707.1334   22609707.3644  118814803.973 7  92582981.21344
     -1998.314       -1557.130
 06  5 11 13  9 30.0000000  0 12G 2G 4G 5G 6G10G13G16G20G23G24G25G30
  20953335.324    20953334.9394   20953333.0234  110110523.128 8  85800417.62246
       658.912         513.445
  21962908.618    21962908.5634   21962908.8794  115415858.953 8  89934450.34645
     -1916.295       -1493.220
  24788114.542    24788115.2244   24788116.0704  130262416.680 5 101503194.50241
     -3265.434       -2544.540
  22810407.081    22810406.6964   22810406.6044  119869498.637 7  93404819.01244
      2984.011        2325.194
  24705270.156    24705269.8084   24705270.0254  129827066.940 7 101163967.57344
      4507.553        3512.375
  22071701.600    22071701.7194   22071700.8554  115987575.804 8  90379942.44145
      2540.225        1979.384
  25038740.574    25038740.3504   25038740.9184  131579487.008 6 102529474.17443
      4067.591        3169.572
  24909593.269    24909593.5324   24909594.5104  130900808.133 5 102000635.01042
     -3378.744       -2632.752
  21745838.334    21745837.6984   21745834.7784  114275145.067 8  89045582.59245
        36.559          28.485
  24323555.216    24323553.2924   24323554.8444  127821133.609 7  99600897.42243
     -3079.403       -2399.544
  23007290.060    23007290.2034   23007290.3224  120904122.267 7  94211021.71745
     -1060.180        -826.114
  22621151.460    22621152.3434   22621152.3494  118874946.557 7  92629845.58844
     -2011.595       -1567.456
 06  5 11 13 10  0.0000000  0 12G 2G 4G 5G 6G10G13G16G20G23G24G25G30
  20949626.403    20949626.1534   20949624.4674  110091034.073 8  85785231.29246
       639.920         498.647
  21973881.703    21973882.2214   21973882.8194  115473527.683 8  89979387.18945
     -1928.631       -1502.832
  24806764.774    24806766.1934   24806762.8414  130360419.691 5 101579560.46941
     -3267.609       -2546.165
  22793401.749    22793401.8124   22793402.1244  119780137.930 7  93335187.23144
      2973.114        2316.697
  24679538.728    24679538.5374   24679539.7684  129691851.840 6 101058605.15544
      4506.333        3511.412
  22057243.391    22057243.8334   22057243.2074  115911602.385 8  90320742.45845
      2524.357        1967.040
  25015527.938    25015527.1554   25015528.7194  131457501.754 6 102434420.68143
      4064.321        3166.990
  24928886.251    24928887.5934   24928887.2004  131002190.965 5 102079634.69641
     -3380.383       -2634.078
  21745682.069    21745681.6624   21745678.7814  114274324.850 8  89044943.47145
        17.715          13.807
  24341140.011    24341139.2044   24341141.1334  127913550.138 6  99672910.20343
     -3082.028       -2401.530
  23013380.873    23013380.7044   23013381.2514  120936130.536 7  94235963.21344
     -1073.998        -836.875
  22632674.080    22632674.1374   22632674.6044  118935495.920 7  92677026.82444
     -2025.480       -1578.298
 06  5 11 13 10 30.0000000  0 12G 2G 4G 5G 6G10G13G16G20G23G24G25G30
  20946027.639    20946027.6084   20946025.7414  110072122.995 8  85770495.29746
       620.280         483.320
  21984928.177    21984928.3504   21984928.9104  115531576.219 7  90024619.86445
     -1941.610       -1512.952
  24825431.387    24825430.2034   24825431.6574  130458506.634 5 101655991.71341
     -3271.156       -2548.997
  22776460.403    22776460.4264   22776460.9434  119691109.603 7  93265814.49344
      2961.562        2307.692
  24653817.545    24653816.3754   24653817.8234  129556682.729 6 100953278.63143
      4504.390        3509.897
  22042878.922    22042879.4254   22042879.2424  115836116.519 7  90261922.30545
      2507.544        1953.915
  24992336.554    24992336.1504   24992336.7014  131335628.756 6 102339454.63343
      4060.045        3163.640
  24948190.047    24948190.0664   24948190.4914  131103629.104 5 102158677.45342
     -3382.782       -2635.934
  21745634.835    21745634.4734   21745631.5384  114274076.816 8  89044750.16845
        -1.637          -1.288
  24358740.536    24358741.9394   24358744.3274  128006055.547 6  99744992.40643
     -3085.371       -2404.174
  23019553.037    23019553.1084   23019553.2084  120968564.815 7  94261236.66944
     -1088.705        -848.359
  22644275.348    22644275.4634   22644275.7544  118996462.337 7  92724533.04844
     -2039.534       -1589.263
 06  5 11 13 11  0.0000000  0 12G 2G 4G 5G 6G10G13G16G20G23G24G25G30
  20942540.991    20942540.7464   20942538.7454  110053799.027 8  85756216.76646
       600.709         468.078
  21996048.612    21996048.3444   21996048.9024  115590011.735 8  90070154.09545
     -1954.426       -1522.928
  24844114.462    24844114.8834   24844111.5214  130556683.894 5 101732493.50241
     -3274.588       -2551.534
  22759584.200    22759583.8394   22759584.7104  119602424.449 7  93196709.19444
      2950.143        2298.830
  24628106.197    24628105.6804   24628107.6554  129421571.502 6 100847997.17343
      4502.272        3508.242
  22028609.867    22028610.0434   22028609.0164  115761129.759 8  90203491.13045
      2491.013        1941.056
  24969168.723    24969167.7424   24969169.0114  131213879.893 6 102244585.38643
      4055.630        3160.215
  24967504.965    24967504.0574   24967506.8544  131205129.372 5 102237768.56942
     -3384.697       -2637.419
  21745697.811    21745697.6134   21745695.2564  114274409.578 7  89045009.43145
       -20.947         -16.320
  24376364.594    24376363.9394   24376365.5664  128098656.006 7  99817148.47243
     -3088.371       -2406.500
  23025808.035    23025807.8274   23025807.7604  121001432.516 7  94286847.85344
     -1102.993        -859.439
  22655957.858    22655958.6604   22655957.7604  119057851.550 7  92772368.68044
     -2053.664       -1600.240
 06  5 11 13 11 30.0000000  0 12G 2G 4G 5G 6G10G13G16G20G23G24G25G30
  20939167.433    20939167.2744   20939165.2794  110036070.329 8  85742402.12046
       580.690         452.494
  22007242.407    22007242.6994   22007243.2844  115648839.305 7  90115993.75345
     -1967.741       -1533.296
  24862814.136    24862815.7154   24862813.8154  130654956.170 5 101809069.34441
     -3277.786       -2554.014
  22742774.764    22742775.1704   22742775.6784  119514092.381 7  93127878.96944
      2938.357        2289.616
  24602408.976    24602407.9984   24602409.2624  129286528.265 6 100742768.72143
      4499.879        3506.414
  22014436.463    22014436.8574   22014436.4304  115686651.625 7  90145456.26745
      2473.805        1927.665
  24946025.957    24946025.3374   24946025.6644  131092265.417 7 102149820.79443
      4051.112        3156.709
  24986834.167    24986832.3624   24986832.3844  131306696.934 5 102316912.08342
     -3386.962       -2639.144
  21745873.083    21745872.5054   21745870.4844  114275330.322 8  89045726.90946
       -40.877         -31.848
  24394005.978    24394004.3644   24394006.4204  128191357.763 7  99889383.49443
     -3092.180       -2409.500
  23032145.749    23032145.8164   23032146.1984  121034739.720 7  94312801.51344
     -1117.894        -871.067
  22667721.680    22667722.1684   22667721.6354  119119669.711 7  92820538.56244
     -2068.215       -1611.567
 06  5 11 13 12  0.0000000  0 12G 2G 4G 5G 6G10G13G16G20G23G24G25G30
  20935908.128    20935908.1094   20935906.4784  110018942.589 8  85729055.55046
       560.725         436.929
  22018512.961    22018512.9694   22018513.1134  115708063.017 7  90162142.05345
     -1980.861       -1543.536
  24881532.693    24881533.5724   24881533.0384  130753326.750 5 101885721.75041
     -3280.865       -2556.450
  22726034.481    22726034.8094   22726035.4074  119426121.577 7  93059330.29044
      2926.103        2280.070
  24576725.592    24576724.4864   24576725.1704  129151561.675 6 100637600.03243
      4497.304        3504.388
  22000362.823    22000362.8724   22000362.1434  115612689.978 8  90087823.83245
      2456.646        1914.273
  24922910.465    24922910.1154   24922910.8404  130970793.767 7 102055167.46343
      4046.606        3153.205
  25006175.534    25006174.6464   25006173.8224  131408335.291 6 102396110.78142
     -3389.169       -2640.855
  21746161.663    21746161.2944   21746158.3754  114276844.125 8  89046906.47445
       -60.488         -47.137
  24411663.478    24411664.9024   24411667.1314  128284164.761 6  99961700.60243
     -3095.536       -2412.061
  23038568.369    23038568.3934   23038568.9514  121068490.847 7  94339101.08644
     -1132.581        -882.516
  22679567.342    22679567.2024   22679567.4024  119181919.313 7  92869044.60744
     -2082.342       -1622.586
 06  5 11 13 12 30.0000000  0 12G 2G 4G 5G 6G10G13G16G20G23G24G25G30
  20932763.767    20932763.5474   20932761.9374  110002419.209 8  85716180.22146
       540.396         421.086
  22029858.285    22029858.1254   22029858.3844  115767683.472 8  90208599.72245
     -1994.167       -1553.905
  24900269.505    24900272.5664   24900268.3474  130851794.997 4 101962450.27441
     -3284.336       -2559.249
  22709363.625    22709364.0894   22709364.9984  119338516.434 7  92991066.48544
      2913.811        2270.486
  24551056.477    24551057.0494   24551057.3634  129016676.542 6 100532494.72243
      4494.426        3502.153
  21986387.655    21986387.3444   21986386.6494  115539249.433 8  90030597.45345
      2439.045        1900.547
  24899822.844    24899823.1194   24899823.8014  130849470.441 6 101960629.76843
      4041.412        3149.134
  25025529.411    25025527.9954   25025528.2744  131510044.262 5 102475364.50442
     -3391.993       -2643.073
  21746562.587    21746562.3664   21746559.4634  114278953.113 7  89048549.85146
       -80.557         -62.768
  24429343.300    24429345.9294   24429347.5554  128377076.459 6 100034099.22543
     -3098.778       -2414.625
  23045075.750    23045075.3934   23045076.0694  121102686.654 7  94365747.16044
     -1147.653        -894.288
  22691494.821    22691495.4514   22691495.5094  119244600.478 7  92917886.86944
     -2097.035       -1634.047
 06  5 11 13 13  0.0000000  0 12G 2G 4G 5G 6G10G13G16G20G23G24G25G30
  20929738.546    20929738.1804   20929736.2084  109986519.110 8  85703790.58646
       519.643         404.925
  22041281.921    22041282.1834   22041282.1914  115827717.470 7  90255379.57845
     -2008.027       -1564.718
  24919029.690    24919026.8114   24919028.6914  130950377.847 4 102039267.99841
     -3287.803       -2561.961
  22692767.402    22692767.1584   22692767.7814  119251298.684 6  92923104.60844
      2901.106        2260.592
  24525408.790    24525407.2714   24525409.2014  128881895.046 6 100427470.22343
      4490.891        3499.391
  21972515.141    21972515.3064   21972514.9724  115466351.767 8  89973794.12345
      2420.931        1886.428
  24876768.324    24876768.0754   24876769.0134  130728317.553 6 101866224.89543
      4035.534        3144.585
  25044900.788    25044898.4624   25044899.7154  131611841.151 5 102554686.75242
     -3394.696       -2645.234
  21747080.004    21747080.2014   21747077.7144  114281676.049 8  89050671.61345
      -100.950         -78.659
  24447050.291    24447050.0784   24447050.9214  128470110.853 7 100106593.64043
     -3103.244       -2418.121
  23051671.196    23051670.5374   23051671.1284  121137345.023 7  94392753.66144
     -1162.991        -906.243
  22703507.882    22703508.3624   22703509.0564  119307730.640 7  92967079.28244
     -2111.953       -1645.679
 06  5 11 13 13 30.0000000  0 12G 2G 4G 5G 6G10G13G16G20G23G24G25G30
  20926830.403    20926830.2024   20926828.9064  109971239.193 8  85691884.12746
       498.715         388.631
  22052783.956    22052784.0874   22052784.0784  115888159.713 8  90302477.47245
     -2021.867       -1575.462
  24937811.571    24937810.2764   24937810.6254  131049069.164 4 102116170.18341
     -3291.817       -2565.096
  22676243.552    22676243.5734   22676244.4794  119164467.454 7  92855443.92744
      2887.537        2250.022
  24499780.521    24499780.4804   24499780.7944  128747216.476 6 100322525.85643
      4487.596        3496.873
  21958745.843    21958746.3364   21958745.6584  115393995.642 8  89917412.74945
      2402.556        1872.119
  24853746.914    24853745.7844   24853746.9574  130607334.377 6 101771952.27943
      4029.693        3139.997
  25064286.511    25064286.4024   25064286.9904  131713720.195 6 102634072.93542
     -3397.757       -2647.608
  21747715.587    21747715.2044   21747712.0854  114285009.035 8  89053268.74346
      -121.593         -94.745
  24464776.713    24464776.0554   24464778.2634  128563262.303 6 100179179.07443
     -3107.226       -2421.214
  23058353.711    23058353.1674   23058353.6304  121172461.216 7  94420116.90244
     -1178.513        -918.319
  22715606.080    22715606.3104   22715606.4734  119371302.904 7  93016615.98444
     -2126.774       -1657.220
 06  5 11 13 14  0.0000000  0 12G 2G 4G 5G 6G10G13G16G20G23G24G25G30
  20924042.959    20924042.9144   20924041.2594  109956591.354 8  85680470.21146
       477.538         372.111
  22064365.096    22064365.2024   22064365.7564  115949019.328 8  90349900.45445
     -2035.890       -1586.404
  24956614.548    24956616.1354   24956615.7154  131147877.644 4 102193163.35541
     -3295.819       -2568.241
  22659796.379    22659796.4414   22659797.3654  119078036.404 7  92788095.00644
      2874.058        2239.534
  24474175.161    24474174.4874   24474175.5124  128612655.147 6 100217672.83943
      4483.318        3493.493
  21945082.604    21945082.7244   21945082.5264  115322194.749 8  89861464.09645
      2383.902        1857.588
  24830759.396    24830758.7104   24830760.1764  130486535.555 6 101677823.36943
      4023.272        3135.010
  25083691.134    25083689.6294   25083691.0954  131815690.968 5 102713530.59142
     -3400.690       -2649.918
  21748467.376    21748467.1084   21748464.3584  114288962.919 8  89056349.72445
      -142.282        -110.873
  24482527.328    24482525.8684   24482528.0784  128656540.258 6 100251862.96543
     -3111.593       -2424.612
  23065124.630    23065124.6364   23065125.4344  121208045.225 7  94447844.69244
     -1194.173        -930.515
  22727789.810    22727789.9974   22727790.1844  119435327.071 7  93066504.87844
     -2141.878       -1668.987
 06  5 11 13 14 30.0000000  0 12G 2G 4G 5G 6G10G13G16G20G23G24G25G30
  20921375.337    20921375.1434   20921373.4024  109942571.914 8  85669546.05546
       456.726         355.883
  22076024.485    22076024.7154   22076025.2224  116010290.761 7  90397644.37545
     -2049.302       -1596.849
  24975439.276    24975438.6854   24975442.3024  131246797.736 4 102270243.92541
     -3299.267       -2570.829
  22643425.394    22643425.0324   22643425.7234  118992003.335 7  92721056.21444
      2860.942        2229.301
  24448591.177    24448589.6464   24448591.6374  128478210.130 6 100112910.46543
      4479.280        3490.357
  21931525.006    21931525.0554   21931524.6414  115250946.954 7  89805946.40845
      2365.490        1843.232
  24807806.258    24807806.6634   24807806.8714  130365919.801 6 101583837.07343
      4017.330        3130.369
  25103111.363    25103111.3144   25103111.8234  131917746.385 5 102793054.14242
     -3403.276       -2651.904
  21749336.931    21749336.4254   21749334.2064  114293533.169 8  89059910.94845
      -162.684        -126.768
  24500299.567    24500300.3134   24500301.5004  128749939.044 6 100324641.18943
     -3115.485       -2427.670
  23071984.120    23071984.0484   23071984.2084  121244091.617 7  94475932.79544
     -1209.306        -942.341
  22740057.838    22740057.8024   22740058.0324  119499796.413 7  93116740.68344
     -2156.485       -1680.380
 06  5 11 13 15  0.0000000  0 12G 2G 4G 5G 6G10G13G16G20G23G24G25G30
  20918829.441    20918829.3414   20918827.6854  109929194.296 8  85659122.12246
       435.312         339.208
  22087764.774    22087764.8404   22087765.4804  116071985.177 8  90445717.79145
     -2063.417       -1607.844
  24994285.585    24994285.6514   24994289.6754  131345839.346 4 102347418.90141
     -3303.001       -2573.792
  22627132.388    22627132.0704   22627133.1554  118906384.376 7  92654340.11544
      2847.194        2218.597
  24423032.093    24423030.9254   24423034.2794  128343897.077 6 100008250.88443
      4475.076        3487.072
  21918074.820    21918075.0644   21918074.5304  115180267.753 8  89750871.71845
      2346.503        1828.435
  24784891.478    24784891.3054   24784893.2704  130245503.190 6 101490005.94243
      4010.635        3125.136
  25122551.058    25122550.6664   25122552.1424  132019898.214 6 102872652.88242
     -3406.713       -2654.562
  21750326.407    21750326.3244   21750323.6594  114298732.810 8  89063962.59945
      -183.826        -143.245
  24518098.852    24518097.0604   24518099.4104  128843469.643 7 100397522.10543
     -3119.814       -2431.038
  23078933.987    23078933.7524   23078933.5474  121280612.076 7  94504390.29044
     -1225.181        -954.689
  22752412.414    22752412.7674   22752413.0124  119564722.257 7  93167332.39444
     -2171.788       -1692.286
 06  5 11 13 15 30.0000000  0 12G 2G 4G 5G 6G10G13G16G20G23G24G25G30
  20916403.791    20916403.3714   20916401.7814  109916447.073 8  85649189.27546
       413.889         322.501
  22099582.650    22099582.8224   22099583.4654  116134089.309 8  90494110.59245
     -2077.513       -1618.829
  25013151.507    25013151.8404   25013153.6944  131444988.872 4 102424678.27341
     -3307.088       -2577.018
  22610916.806    22610916.4384   22610917.3024  118821170.247 7  92587939.50344
      2833.232        2207.722
  24397495.866    24397495.3564   24397498.0644  128209707.231 6  99903687.27043
      4470.519        3483.456
  21904732.187    21904732.2834   21904731.2854  115110147.962 8  89696232.90145
      2327.441        1813.594
  24762014.318    24762013.5324   24762014.6024  130125277.348 6 101396323.46643
      4003.855        3119.895
  25142005.755    25142004.7814   25142006.7354  132122132.361 6 102952315.73342
     -3409.437       -2656.715
  21751433.337    21751432.9894   21751430.5914  114304549.754 7  89068495.28245
      -204.665        -159.489
  24535917.354    24535917.8024   24535921.0654  128937118.416 6 100470494.99243
     -3124.268       -2434.460
  23085971.105    23085971.1184   23085971.0774  121317593.610 7  94533207.07244
     -1240.821        -966.851
  22764851.362    22764851.6974   22764852.2074  119630089.820 7  93218268.10044
     -2186.673       -1703.910
 06  5 11 13 16  0.0000000  0 12G 2G 4G 5G 6G10G13G16G20G23G24G25G30
  20914099.489    20914099.3034   20914097.7534  109904338.352 8  85639753.78246
       392.465         305.833
  22111479.613    22111480.0124   22111480.7654  116196608.911 8  90542827.07545
     -2091.318       -1629.595
  25032039.311    25032044.1094   25032047.6584  131544252.548 4 102502026.72241
     -3311.718       -2580.565
  22594780.289    22594780.1254   22594780.9964  118736371.525 7  92521862.54044
      2819.280        2196.867
  24371985.374    24371985.9064   24371988.6874  128075652.118 6  99799228.72843
      4465.737        3479.783
  21891497.027    21891497.3734   21891496.3494  115040597.842 8  89642037.95345
      2308.369        1798.728
  24739174.353    24739173.5164   24739174.9044  130005253.570 6 101302798.45943
      3996.840        3114.422
  25161477.373    25161476.0764   25161477.2124  132224455.141 6 103032047.67643
     -3412.538       -2659.150
  21752658.852    21752658.6494   21752656.3644  114310991.649 8  89073514.98345
      -225.455        -175.672
  24553764.637    24553764.0494   24553766.0954  129030891.642 7 100543564.65143
     -3128.123       -2437.464
  23093097.548    23093097.7374   23093097.4344  121355043.202 7  94562388.56344
     -1256.570        -979.122
  22777376.119    22777376.4324   22777376.0224  119695905.246 7  93269552.80544
     -2201.666       -1715.600
 06  5 11 13 16 30.0000000  0 12G 2G 4G 5G 6G10G13G16G20G23G24G25G30
  20911917.813    20911917.6584   20911915.9314  109892872.627 8  85630819.40146
       371.407         289.427
  22123456.506    22123456.8424   22123457.0844  116259546.197 7  90591869.06645
     -2104.863       -1640.147
  25050952.729    25050952.6374   25050951.5034  131643630.984 3 102579464.62641
     -3314.429       -2582.784
  22578723.924    22578723.7414   22578724.0874  118651994.309 7  92456113.99744
      2805.405        2186.055
  24346502.221    24346501.8724   24346503.5544  127941737.692 5  99694879.70343
      4461.506        3476.508
  21878371.298    21878371.7154   21878370.6904  114971623.481 7  89588291.72045
      2289.399        1783.960
  24716374.707    24716374.0764   24716375.3624  129885438.194 6 101209435.84443
      3990.077        3109.183
  25180965.778    25180964.9604   25180966.0024  132326868.128 6 103111849.86443
     -3415.448       -2661.392
  21754004.727    21754004.2954   21754001.4654  114318061.185 8  89079023.77746
      -246.310        -191.929
  24571635.069    24571631.9494   24571634.3124  129124791.513 7 100616733.20043
     -3132.175       -2440.658
  23100313.709    23100313.8574   23100313.5944  121392963.047 7  94591936.49444
     -1271.940        -991.126
  22789985.572    22789985.8094   22789986.0724  119762169.980 7  93321187.60444
     -2216.379       -1727.043
 06  5 11 13 17  0.0000000  0 11G 2G 4G 5G 6G10G13G16G23G24G25G30
  20909859.418    20909859.0614   20909857.1994  109882054.780 8  85622389.83146
       349.602         272.427
  22135513.157    22135513.4484   22135513.7114  116322903.807 8  90641238.61545
     -2119.215       -1651.327
  25069886.060    25069887.3594   25069891.3424  131743126.194 4 102656993.47541
     -3319.179       -2586.306
  22562748.557    22562749.0164   22562749.3534  118568045.124 7  92390698.94444
      2791.002        2174.810
  24321048.249    24321048.2794   24321051.2334  127807972.080 5  99590646.65842
      4456.156        3472.314
  21865357.331    21865357.1354   21865356.1804  114903231.741 8  89534999.49845
      2269.721        1768.623
  24693614.425    24693614.7644   24693615.5614  129765839.443 6 101116242.09343
      3982.500        3103.236
  21755470.146    21755469.7494   21755467.0014  114325763.274 8  89085025.43445
      -267.437        -208.385
  24589527.834    24589525.4294   24589527.2914  129218820.794 6 100690002.59243
     -3136.748       -2444.216
  23107619.897    23107619.8634   23107619.5284  121431356.390 7  94621853.38444
     -1287.823       -1003.497
  22802681.427    22802681.3434   22802681.9314  119828886.283 7  93373174.33044
     -2231.564       -1738.850
 06  5 11 13 17 30.0000000  0 11G 2G 4G 5G 6G10G13G16G23G24G25G30
  20907925.090    20907924.9104   20907923.3184  109871890.302 8  85614469.48046
       327.907         255.512
  22147650.305    22147650.4284   22147650.9824  116386684.729 7  90690937.94545
     -2133.094       -1662.153
  25088841.063                                   131842741.217 4
     -3322.590
  22546856.642    22546856.7234   22546857.6654  118484532.118 7  92325623.76344
      2776.369        2163.409
  24295624.172    24295623.3844   24295624.2544  127674363.057 5  99486535.53442
      4450.792        3468.148
  21852455.522    21852455.2164   21852454.0714  114835429.889 8  89482166.92645
      2250.154        1753.372
  24670897.395    24670898.8964   24670898.5614  129646465.076 6 101023223.09242
      3975.250        3097.585
  21757056.535    21757056.2724   21757053.9104  114334102.043 8  89091523.19845
      -288.582        -224.864
  24607443.865    24607444.1964   24607446.5074  129312982.590 6 100763375.13643
     -3140.790       -2447.344
  23115016.483    23115016.6734   23115016.5354  121470226.999 7  94652142.16144
     -1303.646       -1015.822
  22815463.653    22815463.7574   22815464.5194  119896056.483 7  93425514.60544
     -2246.702       -1750.657
 06  5 11 13 18  0.0000000  0 10G 2G 4G 6G10G13G16G23G24G25G30
  20906114.686    20906114.5944   20906113.3304  109862377.472 8  85607056.93246
       305.816         238.305
  22159867.464    22159867.7414   22159868.0204  116450885.674 7  90740964.64245
     -2147.480       -1673.357
  22531047.951    22531047.8384   22531048.4684  118401455.985 7  92260889.04344
      2761.480        2151.803
  24270228.292    24270227.8134   24270229.9594  127540912.036 6  99382547.58542
      4445.285        3463.860
  21839664.695    21839664.7914   21839663.9754  114768218.422 8  89429794.36345
      2230.078        1737.729
  24648225.570    24648226.0294   24648226.8134  129527316.457 6 100930379.99442
      3967.546        3091.638
  21758764.311    21758764.2174   21758761.5474  114343075.480 7  89098515.49145
      -310.056        -241.609
  24625388.919    24625387.3714   24625389.8224  129407274.190 7 100836849.07743
     -3145.449       -2451.013
  23122503.739    23122503.7184   23122503.7864  121509571.802 7  94682800.44344
     -1319.789       -1028.410
  22828331.149    22828331.6344   22828332.0864  119963677.383 7  93478206.13144
     -2261.965       -1762.574
 06  5 11 13 18 30.0000000  0 11G 2G 4G 5G 6G10G13G16G23G24G25G30
  20904429.221    20904428.8654   20904427.0024  109853518.108 8  85600153.39846
       284.032         221.354
  22172164.756    22172164.7874   22172164.8724  116515506.600 7  90791318.56545
     -2161.341       -1684.157
  25126819.380                                   132042335.400 4
     -3330.797
  22515322.922    22515322.7384   22515323.5724  118318820.906 7  92196498.03044
      2746.768        2140.349
  24244863.153    24244864.5134   24244865.7814  127407623.714 6  99278686.40142
      4439.651        3459.483
  21826987.865    21826988.1374   21826987.2604  114701601.212 8  89377884.86645
      2210.266        1722.287
  24625597.665    24625596.1454   24625597.0034  129408398.665 6 100837716.78242
      3959.844        3085.608
  21760592.882    21760592.6064   21760590.2184  114352684.948 7  89106003.43345
      -331.365        -258.195
  24643355.647    24643354.5064   24643357.2134  129501695.267 6 100910424.01943
     -3149.889       -2454.434
  23130080.946    23130080.8514   23130081.1114  121549391.174 7  94713828.49544
     -1335.620       -1040.741
  22841285.076    22841285.2604   22841285.8054  120031748.224 7  93531248.34644
     -2276.919       -1774.229
 06  5 11 13 19  0.0000000  0 10G 2G 4G 6G10G13G16G23G24G25G30
  20902867.785    20902867.5244   20902866.1454  109845315.674 8  85593762.15346
       262.171         204.268
  22184541.500    22184541.4184   22184541.8004  116580547.526 7  90841999.75745
     -2175.469       -1695.167
  22499682.872    22499682.5514   22499683.3254  118236631.408 7  92132454.26444
      2731.983        2128.813
  24219533.442    24219532.1864   24219533.2064  127274503.424 6  99174956.22442
      4434.155        3455.186
  21814425.376    21814425.4824   21814424.4984  114635582.787 8  89326441.96045
      2190.311        1706.725
  24603013.029    24603011.0814   24603012.2874  129289717.041 5 100745237.68442
      3951.964        3079.431
  21762543.374    21762542.6994   21762539.9834  114362931.832 7  89113987.98145
      -352.474        -274.664
  24661347.566    24661347.0544   24661349.4054  129596245.804 6 100984099.66343
     -3153.861       -2457.551
  23137748.834    23137748.7114   23137748.9664  121589685.969 7  94745227.01344
     -1351.312       -1052.979
  22854323.607    22854323.9474   22854324.3664  120100268.773 7  93584641.02444
     -2291.782       -1785.810
 06  5 11 13 19 30.0000000  0 10G 2G 4G 6G10G13G16G23G24G25G30
  20901432.310    20901432.0084   20901430.4224  109837772.390 8  85587884.52546
       240.457         187.356
  22196998.336    22196998.4974   22196999.0874  116646009.424 7  90893008.99745
     -2189.003       -1705.719
  22484128.686    22484128.2414   22484129.0464  118154892.536 7  92068761.54244
      2717.145        2117.247
  24194234.212    24194234.4934   24194235.3854  127141556.898 6  99071361.34442
      4428.747        3450.973
  21801976.794    21801976.9764   21801976.5184  114570168.188 8  89275469.56045
      2170.468        1691.267
  24580472.898    24580473.8884   24580473.3814  129171277.332 6 100652947.03142
      3943.784        3073.052
  21764614.884    21764614.6274   21764612.0304  114373818.958 8  89122471.45545
      -373.392        -290.964
  24679363.673    24679364.8664   24679366.7024  129690926.660 6 101057876.60343
     -3158.113       -2460.864
  23145507.352    23145507.5194   23145507.6744  121630457.565 7  94776997.05245
     -1367.086       -1065.253
  22867448.064    22867448.2644   22867448.7814  120169238.886 7  93638383.92944
     -2306.350       -1797.156
 06  5 11 13 20  0.0000000  0 10G 2G 4G 6G10G13G16G23G24G25G30
  20900122.162    20900121.8714   20900120.3694  109830889.123 8  85582520.90246
       217.624         169.567
  22209535.802    22209535.8114   22209535.8384  116711891.441 8  90944345.56545
     -2203.913       -1717.332
  22468660.203    22468660.4134   22468661.0264  118073607.982 7  92005423.02044
      2701.073        2104.727
  24168970.668    24168969.0174   24168971.4824  127008788.023 6  98967904.85942
      4421.602        3445.432
  21789643.954    21789644.2014   21789643.6214  114505360.543 8  89224970.08145
      2149.255        1674.748
  24557981.101    24557982.0114   24557982.8324  129053083.737 6 100560848.12742
      3934.844        3066.085
  21766808.155    21766807.9244   21766805.4704  114385345.263 8  89131452.77545
      -395.801        -308.412
  24697407.883    24697406.6674   24697409.1664  129785737.618 7 101131754.93343
     -3163.259       -2464.838
  23153357.317    23153356.8054   23153356.8614  121671705.655 7  94809138.37645
     -1383.817       -1078.307
  22880658.152    22880658.3244   22880658.8334  120238658.157 7  93692476.87644
     -2322.334       -1809.611
 06  5 11 13 20 30.0000000  0 10G 2G 4G 6G10G13G16G23G24G25G30
  20898940.070    20898939.7374   20898937.9934  109824674.356 8  85577678.36046
       195.852         152.600
  22222153.336    22222153.3714   22222154.0954  116778199.630 7  90996014.24345
     -2217.480       -1727.899
  22453280.781    22453280.8784   22453281.3824  117992787.799 7  91942446.26344
      2686.085        2093.053
  24143739.750    24143739.8784   24143741.4714  126876207.925 6  98864595.53843
      4415.847        3440.865
  21777429.737    21777429.7954   21777428.8704  114441169.639 8  89174951.18745
      2129.273        1659.180
  24535538.953    24535538.3614   24535540.3944  128935147.156 6 100468949.45642
      3926.816        3059.872
  21769125.048    21769124.4594   21769122.3004  114397519.518 7  89140939.14145
      -416.709        -324.705
  24715476.457    24715475.4284   24715478.2204  129880685.015 6 101205739.85843
     -3167.351       -2468.064
  23161297.873    23161297.6194   23161298.1264  121713436.440 7  94841655.82744
     -1399.140       -1090.232
  22893954.571    22893954.9094   22893955.7724  120308531.577 7  93746923.80744
     -2336.844       -1820.901
 06  5 11 13 21  0.0000000  0 10G 2G 4G 6G10G13G16G23G24G25G30
  20897883.798    20897883.4894   20897881.3464  109819122.591 8  85573352.18346
       173.381         135.096
  22234850.893    22234851.0834   22234851.7044  116844926.902 7  91048009.54045
     -2231.768       -1739.042
  22437989.801    22437989.2004   22437989.8184  117912429.292 7  91879829.25845
      2670.180        2080.662
  24118546.136    24118546.1294   24118546.9544  126743815.066 6  98761432.64443
      4409.551        3436.013
  21765330.155    21765330.5394   21765330.3504  114377592.606 7  89125410.69545
      2108.358        1642.879
  24513146.826    24513145.4744   24513145.8174  128817465.878 6 100377249.82342
      3917.697        3052.725
  21771563.641    21771563.4104   21771561.1044  114410335.367 8  89150925.42945
      -438.419        -341.606
  24733567.581    24733567.4354   24733569.7084  129975761.774 6 101279825.62343
     -3172.084       -2471.714
  23169329.609    23169329.1834   23169329.8004  121755643.447 7  94874544.35744
     -1415.466       -1102.939
  22907336.412    22907336.2734   22907336.9964  120378851.265 7  93801718.34644
     -2352.132       -1832.801
 06  5 11 13 21 30.0000000  0 10G 2G 4G 6G10G13G16G23G24G25G30
  20896952.248    20896952.0674   20896950.0154  109814229.459 8  85569539.44746
       151.947         118.400
  22247627.623    22247627.4564   22247627.9644  116912066.136 7  91100325.80245
     -2245.006       -1749.371
  22422784.780    22422784.5484   22422785.5814  117832529.872 7  91817570.11944
      2655.421        2069.154
  24093389.202    24093387.1714   24093389.4414  126611606.389 6  98658413.12943
      4403.709        3431.424
  21753348.827    21753349.1174   21753348.0074  114314626.454 8  89076346.17845
      2088.489        1627.373
  24490801.289    24490799.4034   24490799.4274  128700037.631 6 100285747.38242
      3909.704        3046.549
  21774123.671    21774123.3334   21774121.1334  114423787.134 7  89161407.19045
      -459.162        -357.797
  24751682.115    24751683.3444   24751686.6994  130070960.727 6 101354006.47042
     -3175.542       -2474.436
  23177450.091    23177450.5214   23177451.0734  121798320.163 7  94907798.86044
     -1430.596       -1114.748
  22920801.619    22920801.7364   22920801.2944  120449610.460 7  93856855.39044
     -2366.156       -1843.755
 06  5 11 13 22  0.0000000  0 10G 2G 4G 6G10G13G16G23G24G25G30
  20896148.536    20896148.3504   20896146.8854  109810006.764 8  85566249.04946
       129.348         100.791
  22260483.955    22260484.1314   22260484.6844  116979627.791 8  91152971.22845
     -2259.209       -1760.408
  22407670.156    22407670.3744   22407671.1124  117753104.086 7  91755679.93744
      2639.274        2056.584
  24068268.109    24068267.7084   24068269.2504  126479597.320 6  98555548.93243
      4396.758        3426.038
  21741485.935    21741486.1114   21741485.1634  114252285.413 8  89027768.75845
      2067.373        1610.937
  24468504.577    24468504.4904   24468506.4324  128582877.626 6 100194453.93442
      3900.829        3039.610
  21776807.023    21776806.3874   21776804.1214  114437886.688 7  89172393.85645
      -481.025        -374.826
  24769824.436    24769824.7494   24769827.1894  130166293.339 6 101428291.70742
     -3180.114       -2477.999
  23185663.103    23185662.9854   23185663.6904  121841477.341 7  94941427.74344
     -1446.858       -1127.418
  22934351.404    22934351.9284   22934352.1764  120520818.173 7  93912341.73444
     -2381.280       -1855.527
 06  5 11 13 22 30.0000000  0 10G 2G 4G 6G10G13G16G23G24G25G30
  20895472.802    20895472.5304   20895470.6384  109806454.551 8  85563481.01846
       106.673          83.134
  22273420.913    22273420.7784   22273421.4634  117047610.003 8  91205944.37545
     -2273.586       -1771.616
  22392647.223    22392647.0044   22392647.3724  117674153.972 7  91694160.33644
      2623.139        2043.992
  24043184.863    24043184.1644   24043187.3764  126347790.878 6  98452842.57643
      4389.700        3420.540
  21729741.929    21729742.2174   21729741.2714  114190571.416 8  88979679.85645
      2046.031        1594.317
  24446260.768    24446261.0154   24446262.9614  128465989.312 5 100103372.18742
      3891.165        3032.052
  21779612.781    21779612.4644   21779610.2484  114452632.819 7  89183884.32945
      -502.792        -391.773
  24787990.493    24787990.4414   24787993.1464  130261757.376 6 101502679.43643
     -3184.631       -2481.552
  23193967.357    23193967.2184   23193967.6334  121885113.604 7  94975429.92244
     -1463.089       -1140.062
  22947987.410    22947987.9514   22947987.8204  120592472.294 7  93968175.86844
     -2396.396       -1867.306
 06  5 11 13 23  0.0000000  0 10G 2G 4G 6G10G13G16G23G24G25G30
  20894924.240    20894923.8534   20894921.9534  109803571.188 8  85561234.21346
        84.632          65.953
  22286436.898    22286436.4694   22286437.1184  117116008.946 7  91259242.24045
     -2287.340       -1782.346
  22377713.420    22377713.9934   22377714.0764  117595680.335 7  91633012.05744
      2607.415        2031.749
  24018143.288    24018141.7144   24018143.5314  126216188.162 6  98350294.97243
      4382.887        3415.220
  21718117.221    21718117.4634   21718117.4694  114129485.052 8  88932080.06545
      2025.345        1578.195
  24424068.968    24424069.7124   24424070.0344  128349373.876 6 100012503.07742
      3882.230        3025.155
  21782542.253    21782541.4324   21782538.5804  114468023.534 8  89195877.15545
      -524.112        -408.415
  24806179.343    24806180.7134   24806182.4954  130357348.698 6 101577166.35143
     -3189.011       -2484.958
  23202361.746    23202361.5824   23202361.4934  121929225.555 7  95009802.79044
     -1478.742       -1152.268
  22961707.281    22961707.4324   22961707.7664  120664569.109 7  94024355.02444
     -2410.848       -1878.587
 06  5 11 13 23 30.0000000  0 10G 2G 4G 6G10G13G16G23G24G25G30
  20894502.740    20894502.4614   20894500.8774  109801356.705 8  85559508.52946
        62.795          48.928
  22299530.586    22299531.0524   22299532.0034  117184822.487 7  91312863.17045
     -2300.538       -1792.641
  22362872.084    22362871.5654   22362872.2124  117517685.521 7  91572236.92544
      2592.047        2019.765
  23993139.132    23993138.7844   23993139.7564  126084792.184 7  98247908.36943
      4376.419        3410.195
  21706613.889    21706613.8324   21706612.4764  114069027.852 8  88884970.45945
      2004.813        1562.184
  24401932.448    24401931.3274   24401931.7394  128233034.414 6  99921849.08642
      3873.411        3018.229
  21785592.940    21785592.7084   21785589.7544  114484057.938 8  89208371.59945
      -545.021        -424.707
  24824396.144    24824395.3364   24824396.6864  130453066.033 6 101651751.48142
     -3192.357       -2487.556
  23210845.197    23210845.8774   23210846.1924  121973811.661 6  95044545.09544
     -1494.052       -1164.196
  22975510.386    22975510.4294   22975511.4594  120737105.926 7  94080877.10944
     -2425.104       -1889.691
 06  5 11 13 24  0.0000000  0 10G 2G 4G 6G10G13G16G23G24G25G30
  20894209.598    20894209.3434   20894207.5374  109799815.944 8  85558307.91646
        40.013          31.180
  22312705.061    22312705.6294   22312706.5494  117254053.269 7  91366809.23645
     -2314.615       -1803.598
  22348122.231    22348122.2514   22348122.9824  117440176.107 7  91511839.97944
      2575.494        2006.880
  23968175.681    23968175.2034   23968175.9104  125953610.597 6  98145688.93343
      4369.059        3404.421
  21695229.704    21695229.7504   21695229.4524  114009206.604 8  88838356.39345
      1983.394        1545.502
  24379848.366    24379846.7504   24379847.7594  128116978.069 6  99831415.61643
      3863.624        3010.655
  21788767.377    21788766.7994   21788764.6024  114500738.930 8  89221369.63445
      -566.764        -441.625
  24842636.776    24842633.6674   24842636.6904  130548911.950 6 101726436.80942
     -3197.140       -2491.280
  23219420.551    23219421.0014   23219421.3394  122018875.038 6  95079659.35244
     -1510.059       -1176.665
  22989397.838    22989398.2704   22989398.7804  120810085.271 7  94137744.19644
     -2439.943       -1901.261
 06  5 11 13 24 30.0000000  0 10G 2G 4G 6G10G13G16G23G24G25G30
  20894044.638    20894044.2854   20894042.5124  109798947.892 8  85557631.49146
        17.242          13.436
  22325958.577    22325958.5674   22325959.3764  117323699.017 7  91421078.60645
     -2328.900       -1814.722
  22333465.586    22333465.2654   22333465.7144  117363154.255 7  91451823.02644
      2558.716        1993.808
  23943254.681    23943254.0884   23943254.6704  125822645.477 7  98043637.79743
      4361.419        3398.505
  21683967.627    21683967.6014   21683966.7204  113950022.752 8  88792239.10245
      1961.597        1528.516
  24357816.384    24357815.9674   24357817.1454  128001208.021 6  99741205.28343
      3853.803        3002.935
  21792064.393    21792064.2114   21792061.8654  114518066.183 8  89234871.33145
      -588.828        -458.837
  24860896.275    24860896.8314   24860898.5154  130644884.245 6 101801220.48542
     -3201.809       -2494.899
  23228086.451    23228086.3464   23228087.5614  122064413.648 7  95115143.89644
     -1526.282       -1189.318
  23003368.744    23003369.1104   23003369.7554  120883503.773 7  94194953.57844
     -2455.137       -1913.096
 06  5 11 13 25  0.0000000  0 10G 2G 4G 6G10G13G16G23G24G25G30
  20894007.561    20894007.6374   20894005.9354  109798756.172 8  85557482.06946
        -4.890          -3.798
  22339290.404    22339291.1354   22339291.6444  117393761.277 7  91475672.56345
     -2342.298       -1825.156
  22318902.652    22318902.6224   22318902.8114  117286625.379 7  91392190.10244
      2542.739        1981.349
  23918376.292    23918374.5924   23918376.1704  125691904.874 7  97941762.13543
      4354.161        3392.827
  21672827.788    21672827.6374   21672826.8194  113891481.725 8  88746622.72445
      1940.610        1512.158
  24335840.538    24335841.4374   24335842.4684  127885730.848 6  99651223.14242
      3844.491        2995.683
  21795485.878    21795485.2874   21795482.3854  114536042.370 8  89248878.79545
      -610.061        -475.373
  24879181.484    24879183.6234   24879186.5944  130740984.719 6 101876104.00242
     -3205.399       -2497.689
  23236843.351    23236843.4734   23236844.2364  122110429.403 7  95151000.23044
     -1541.726       -1201.349
  23017423.122    23017423.7924   23017424.0834  120957362.913 7  94252506.39844
     -2469.242       -1924.086
 06  5 11 13 25 30.0000000  0 10G 2G 4G 6G10G13G16G23G24G25G30
  20894098.449    20894098.2214   20894096.4204  109799232.689 8  85557853.40746
       -26.892         -20.972
  22352700.801    22352700.7924   22352701.6994  117464230.052 7  91530583.24045
     -2355.757       -1835.671
  22304432.687    22304432.1934   22304432.8884  117210584.225 7  91332937.25244
      2526.602        1968.783
  23893536.854    23893537.2064   23893537.9354  125561382.965 6  97840056.89243
      4346.966        3387.222
  21661808.869    21661808.9514   21661807.9844  113833577.904 8  88701502.92745
      1919.619        1495.788
  24313921.520    24313921.8104   24313921.9684  127770541.695 6  99561465.47342
      3834.958        2988.233
  21799027.705    21799027.4094   21799024.8014  114554658.229 7  89263384.65845
      -631.159        -491.823
  24897492.795    24897492.9634   24897494.7904  130837203.481 6 101951079.55342
     -3209.233       -2500.729
  23245689.433    23245689.2684   23245689.4224  122156912.930 7  95187221.04944
     -1557.148       -1213.351
  23031559.839    23031560.4504   23031560.6084  121031651.775 7  94310394.01044
     -2483.365       -1935.093
 06  5 11 13 26  0.0000000  0 10G 2G 4G 6G10G13G16G23G24G25G30
  20894317.847    20894317.6544   20894316.1274  109800384.920 8  85558751.16446
       -49.925         -38.884
  22366188.961    22366189.1294   22366189.5294  117535111.070 7  91585815.16245
     -2369.710       -1846.515
  22290056.997    22290056.8624   22290057.4234  117135040.350 7  91274071.86345
      2509.539        1955.499
  23868743.500    23868742.6644   23868743.9874  125431090.134 6  97738530.16843
      4339.147        3381.119
  21650912.443    21650912.6184   21650912.3694  113776320.194 7  88656886.57345
      1897.584        1478.634
  24292060.043    24292057.6434   24292058.5954  127655651.005 6  99471940.31942
      3824.490        2980.106
  21802693.239    21802692.7254   21802690.1494  114573920.681 7  89278394.37445
      -652.988        -508.798
  24915828.073    24915826.5194   24915830.0604  130933546.856 6 102026152.28042
     -3213.606       -2504.048
  23254624.776    23254625.0364   23254625.3084  122203870.110 7  95223810.98544
     -1573.377       -1226.006
  23045779.014    23045779.7264   23045780.1254  121106375.430 6  94368620.21644
     -2498.142       -1946.590
 06  5 11 13 26 30.0000000  0 10G 2G 4G 6G10G13G16G23G24G25G30
  20894665.957    20894665.5654   20894663.6004  109802211.165 8  85560174.22346
       -72.573         -56.550
  22379754.754    22379755.2084   22379755.4124  117606400.845 7  91641365.60345
     -2383.591       -1857.344
  22275776.022    22275776.1624   22275776.5364  117059994.748 7  91215594.71845
      2492.789        1942.435
  23843993.307    23843992.6214   23843993.9034  125301028.179 6  97637183.42343
      4331.191        3374.991
  21640140.517    21640140.5604   21640139.3534  113719708.865 8  88612773.79645
      1875.681        1461.565
  24270253.883    24270252.8664   24270252.3664  127541060.578 6  99382649.15542
      3814.135        2972.032
  21806481.505    21806480.9984   21806478.7564  114593827.406 8  89293906.08245
      -674.786        -525.817
  24934182.657    24934183.6004   24934186.6544  131030011.700 6 102101319.59342
     -3217.997       -2507.520
  23263650.356    23263650.3914   23263650.7214  122251298.001 7  95260767.67144
     -1589.245       -1238.368
  23060080.731    23060081.2204   23060081.3264  121181529.725 7  94427181.87444
     -2512.705       -1957.949
 06  5 11 13 27  0.0000000  0 10G 2G 4G 6G10G13G16G23G24G25G30
  20895141.250    20895141.1754   20895139.6254  109804712.556 8  85562123.29946
       -94.733         -73.811
  22393398.586    22393398.8194   22393399.6304  117678098.374 7  91697233.71445
     -2396.819       -1867.648
  22261590.653    22261590.5824   22261591.4694  116985450.656 7  91157508.37445
      2476.383        1929.663
  23819288.190    23819287.6324   23819289.0194  125171200.524 7  97536018.95843
      4323.533        3368.993
  21629490.967    21629491.0954   21629490.7044  113663747.303 8  88569167.32945
      1854.522        1445.098
  24248505.309    24248504.7894   24248506.1124  127426774.773 6  99293595.36043
      3804.418        2964.479
  21810392.164    21810391.8664   21810389.5324  114614378.712 7  89309920.11245
      -695.822        -542.178
  24952564.279    24952563.5394   24952565.5654  131126596.958 6 102176580.67743
     -3221.462       -2510.233
  23272765.343    23272764.9994   23272765.0714  122299196.021 7  95298090.68044
     -1604.519       -1250.270
  23074464.004    23074464.5784   23074464.8214  121257114.017 7  94486078.68744
     -2526.748       -1968.912
 06  5 11 13 27 30.0000000  0 10G 2G 4G 6G10G13G16G23G24G25G30
  20895745.580    20895745.4184   20895744.0754  109807887.546 8  85564597.12846
      -117.363         -91.430
  22407119.200    22407119.2204   22407120.1464  117750200.636 7  91753417.17245
     -2410.416       -1878.235
  22247501.442    22247501.0734   22247501.8734  116911409.496 7  91099814.00845
      2459.340        1916.372
  23794628.915    23794627.2454   23794628.9584  125041610.021 7  97435039.28743
      4315.480        3362.740
  21618965.733    21618965.6584   21618964.9194  113608436.909 8  88526068.35445
      1832.435        1427.881
  24226815.797    24226815.8794   24226815.5994  127312795.633 6  99204780.49343
      3793.971        2956.346
  21814424.960    21814424.8344   21814422.2754  114635573.027 7  89326435.34245
      -717.513        -559.111
  24970964.995    24970965.5064   24970969.1294  131223300.411 6 102251933.97943
     -3225.655       -2513.462
  23281968.892    23281968.5674   23281968.7244  122347561.985 7  95335778.43844
     -1620.235       -1262.530
  23088928.674    23088928.7234   23088929.4354  121333124.683 7  94545307.76344
     -2540.972       -1979.950
 06  5 11 13 28  0.0000000  0 10G 2G 4G 6G10G13G16G23G24G25G30
  20896479.220    20896479.0584   20896477.4554  109811742.992 8  85567601.43946
      -139.800        -108.931
  22420917.667    22420918.0694   22420918.5844  117822712.172 7  91809919.55945
     -2423.767       -1888.646
  22233509.288    22233508.8514   22233509.4894  116837879.914 7  91042518.34745
      2442.587        1903.330
  23770015.471    23770014.4794   23770016.0024  124912265.364 7  97334250.96343
      4307.389        3356.407
  21608565.433    21608565.6654   21608565.0234  113553784.999 8  88483482.45845
      1810.769        1410.998
  24205186.568    24205185.7564   24205186.4014  127199132.433 6  99116211.82943
      3783.238        2948.013
  21818581.080    21818580.9724   21818578.4714  114657414.754 7  89343454.80545
      -738.953        -575.819
  24989389.074    24989390.6654   24989393.5994  131320126.111 6 102327382.50143
     -3229.424       -2516.420
  23291262.702    23291262.5664   23291262.5994  122396400.274 7  95373834.26744
     -1635.834       -1274.648
  23103474.164    23103474.8494   23103475.5954  121409565.424 7  94604872.00944
     -2555.372       -1991.206
 06  5 11 13 28 30.0000000  0 10G 2G 4G 6G10G13G16G23G24G25G30
  20897341.043    20897340.9874   20897339.3744  109816270.503 8  85571129.16446
      -162.622        -126.701
  22434793.061    22434792.4324   22434793.3214  117895623.720 7  91866733.65945
     -2437.587       -1899.407
  22219613.509    22219613.3394   22219613.6734  116764856.440 7  90985616.93245
      2425.160        1889.743
  23745447.302    23745446.9094   23745448.8334  124783162.705 7  97233651.11643
      4298.812        3349.715
  21598290.579    21598290.3584   21598289.3314  113499786.264 8  88441405.58645
      1788.604        1393.725
  24183616.503    24183615.2404   24183616.4624  127085780.683 6  99027885.83443
      3772.485        2939.601
  21822859.695    21822859.3314   21822856.4604  114679896.578 8  89360973.24445
      -760.542        -592.631
  25007839.320    25007838.8744   25007839.2734  131417065.537 6 102402919.63242
     -3233.608       -2519.680
  23300644.213    23300644.2874   23300644.3164  122445702.028 7  95412251.17944
     -1651.628       -1287.000
  23118101.281    23118101.3534   23118101.3944  121486426.739 6  94664763.96144
     -2569.436       -2002.179
 06  5 11 13 29  0.0000000  0 10G 2G 4G 6G10G13G16G23G24G25G30
  20898331.381    20898331.2264   20898329.5924  109821472.738 8  85575182.68346
      -185.187        -144.304
  22448743.563    22448743.4304   22448744.3024  117968935.820 7  91923859.87945
     -2450.819       -1909.722
  22205814.653    22205814.6024   22205815.0144  116692343.907 7  90929113.66545
      2408.108        1876.453
  23720926.793    23720926.8864   23720929.5304  124654307.980 6  97133244.67343
      4290.610        3343.352
  21588139.104    21588139.4354   21588139.0454  113446444.819 7  88399840.86345
      1766.660        1376.599
  24162107.206    24162106.3054   24162106.5894  126972746.456 6  98939807.26343
      3762.207        2931.620
  21827259.240    21827259.2114   21827256.8234  114703019.325 7  89378991.05645
      -781.798        -609.179
  25026311.147    25026307.4154   25026309.5934  131514119.419 5 102478545.88742
     -3237.592       -2522.837
  23310114.691    23310114.5314   23310115.0994  122495468.085 7  95451029.92744
     -1667.027       -1298.979
  23132806.768    23132806.8974   23132807.3334  121563708.316 7  94724983.41844
     -2583.445       -2013.083
 06  5 11 13 29 30.0000000  0 10G 2G 4G 6G10G13G16G23G24G25G30
  20899450.577    20899450.2674   20899448.4794  109827352.508 8  85579763.91446
      -207.769        -161.907
  22462770.537    22462770.8154   22462771.8164  118042649.907 7  91981299.36245
     -2464.227       -1920.189
  22192114.366    22192114.3204   22192114.9524  116620347.845 7  90873012.74645
      2390.858        1863.008
  23696455.191    23696455.0444   23696457.6344  124525707.428 6  97033036.22843
      4281.891        3336.521
  21578114.930    21578115.3834   21578114.4194  113393766.080 8  88358792.49045
      1744.465        1359.327
  24140658.642    24140658.1734   24140657.9534  126860036.522 7  98851981.39443
      3751.016        2922.883
  21831782.337    21831781.6994   21831779.3064  114726785.769 8  89397510.36845
      -803.323        -625.959
  25044798.133    25044798.9534   25044799.5394  131611289.651 5 102554262.82942
     -3241.173       -2525.564
  23319673.096    23319673.0974   23319673.6244  122545700.564 7  95490172.20144
     -1682.567       -1311.113
  23147593.224    23147593.5904   23147594.1604  121641411.458 7  94785531.44744
     -2597.630       -2024.140
 06  5 11 13 30  0.0000000  0 10G 2G 4G 6G10G13G16G23G24G25G30
  20900697.681    20900697.4954   20900695.9444  109833907.579 8  85584871.89746
      -230.177        -179.385
  22476873.758    22476873.8074   22476874.5884  118116760.792 7  92039048.02845
     -2477.312       -1930.361
  22178512.002    22178512.1374   22178512.5744  116548867.669 7  90817313.87245
      2373.623        1849.567
  23672032.690    23672031.3284   23672034.5074  124397361.090 7  96933026.02144
      4273.535        3330.018
  21568216.531    21568216.6134   21568215.7594  113341748.277 8  88318259.13845
      1722.561        1342.248
  24119271.589    24119271.6014   24119272.4024  126747650.135 6  98764407.62843
      3740.091        2914.335
  21836426.085    21836425.9414   21836423.6024  114751191.524 7  89416527.81145
      -824.596        -642.548
  25063312.900    25063311.1724   25063313.1334  131708570.949 6 102630066.22343
     -3245.086       -2528.667
  23329320.131    23329320.3994   23329320.3444  122596393.931 7  95529673.38344
     -1697.859       -1323.012
  23162458.578    23162458.7904   23162459.5684  121719530.116 6  94846403.14244
     -2611.256       -2034.748
 06  5 11 13 30 30.0000000  0 10G 2G 4G 6G10G13G16G23G24G25G30
  20902073.990    20902073.6264   20902072.2564  109841139.824 8  85590507.40746
      -252.637        -196.842
  22491051.779    22491052.2454   22491052.9494  118191270.077 7  92097107.22945
     -2490.510       -1940.645
  22165009.215    22165009.1734   22165009.5334  116477908.439 7  90762020.79145
      2356.387        1836.137
  23647657.922    23647657.3744   23647660.3014  124269275.911 6  96833219.74944
      4264.769        3323.202
  21558444.593    21558444.8554   21558444.0434  113290397.029 8  88278245.15445
      1700.453        1325.044
  24097948.335    24097948.3834   24097948.5854  126635594.265 6  98677091.45043
      3729.902        2906.438
  21841192.899    21841192.4394   21841190.0404  114776239.166 7  89436045.46345
      -845.890        -659.124
  25081844.813    25081844.7024   25081846.9074  131805965.369 6 102705957.87643
     -3248.615       -2531.371
  23339055.134    23339054.8474   23339055.1854  122647550.864 7  95569536.03944
     -1713.165       -1334.953
  23177402.833    23177403.5154   23177404.2834  121798065.140 7  94907599.27944
     -2624.980       -2045.437
 06  5 11 13 31  0.0000000  0 10G 2G 4G 6G10G13G16G23G24G25G30
  20903578.339    20903578.1394   20903576.5444  109849045.615 8  85596667.75346
      -275.031        -214.309
  22505305.282    22505305.4784   22505306.9174  118266171.606 7  92155472.07445
     -2503.426       -1950.738
  22151605.310    22151605.0494   22151605.6464  116407469.056 7  90707132.93345
      2339.017        1822.599
  23623333.553    23623332.5924   23623335.6324  124141450.313 6  96733615.75743
      4256.235        3316.537
  21548799.032    21548799.2034   21548798.6254  113239709.664 8  88238748.48345
      1678.154        1307.640
  24076687.650    24076688.0744   24076688.1094  126523868.143 6  98590032.22043
      3718.517        2897.499
  21846080.506    21846080.1354   21846077.4254  114801923.540 7  89456059.23745
      -866.977        -675.572
  25100396.988    25100397.4724   25100401.2894  131903467.020 6 102781933.03343
     -3251.797       -2533.882
  23348876.999    23348876.6484   23348876.7994  122699165.342 7  95609755.17244
     -1728.306       -1346.730
  23192426.177    23192426.3394   23192426.7284  121877010.798 7  94969115.40844
     -2638.600       -2056.076
 06  5 11 13 31 30.0000000  0 10G 2G 4G 6G10G13G16G23G24G25G30
  20905209.226    20905208.9524   20905207.4904  109857614.644 8  85603344.92546
      -297.067        -231.483
  22519631.719    22519631.5104   22519632.3314  118341453.951 7  92214133.61145
     -2516.147       -1960.645
  22138298.051    22138298.2764   22138298.7424  116337541.590 7  90652643.84445
      2321.984        1809.340
  23599056.562    23599056.0064   23599059.2644  124013877.328 6  96634208.34043
      4247.790        3309.988
  21539278.980    21539278.9544   21539278.0814  113189678.598 8  88199763.17345
      1656.355        1290.674
  24055487.875    24055487.3344   24055487.6574  126412465.311 6  98503224.93743
      3707.725        2889.158
  21851087.074    21851086.7624   21851084.2474  114828234.425 7  89476561.23045
      -887.797        -691.793
  25118970.220    25118969.8794   25118971.9584  132001065.488 6 102857983.78642
     -3255.362       -2536.637
  23358783.594    23358783.5914   23358784.2084  122751226.235 7  95650322.10044
     -1743.281       -1358.386
  23207525.147    23207525.2674   23207525.4614  121956354.521 6  95030941.70744
     -2651.762       -2066.305
 06  5 11 13 32  0.0000000  0 10G 2G 4G 6G10G13G16G23G24G25G30
  20906968.400    20906968.3604   20906967.1324  109866861.147 8  85610549.93646
      -319.726        -249.134
  22534032.191    22534032.4884   22534032.7724  118417129.664 7  92273101.66645
     -2529.323       -1970.891
  22125092.189    22125092.4614   22125092.8734  116268143.158 7  90598567.06845
      2304.228        1795.505
  23574831.934    23574830.7364   23574834.3444  123886575.100 6  96535011.87943
      4238.716        3302.871
  21529885.744    21529886.0404   21529885.5044  113140320.040 8  88161301.91145
      1633.891        1273.157
  24034353.919    24034352.6664   24034353.1464  126301403.231 6  98416683.21643
      3696.436        2880.369
  21856216.018    21856215.6444   21856213.1244  114855185.065 8  89497561.73345
      -909.201        -708.471
  25137566.101    25137564.2404   25137564.5954  132098772.820 6 102934119.16041
     -3259.054       -2539.526
  23368777.486    23368777.6934   23368778.3054  122803746.420 7  95691246.96544
     -1758.535       -1370.270
  23222702.027    23222701.9954   23222702.3994  122036108.477 7  95093087.63444
     -2665.415       -2076.941
 06  5 11 13 32 30.0000000  0 10G 2G 4G 6G10G13G16G23G24G25G30
  20908856.607    20908856.3624   20908854.4444  109876780.186 8  85618279.00546
      -341.905        -266.428
  22548506.305    22548506.6144   22548507.0474  118493192.028 7  92332370.96844
     -2541.841       -1980.660
  22111986.168    22111986.2714   22111987.0584  116199271.410 7  90544900.81045
      2286.885        1781.964
  23550658.498    23550657.9104   23550660.3464  123759542.287 6  96436025.48644
      4229.954        3296.077
  21520621.394    21520621.2694   21520620.3174  113091630.915 8  88123362.28145
      1611.620        1255.810
  24013284.066    24013283.2354   24013283.3784  126190680.469 6  98330405.85043
      3685.074        2871.464
  21861465.112    21861464.9134   21861462.2824  114882769.834 8  89519056.38645
      -930.167        -724.812
  25156177.525    25156176.9704   25156180.5604  132196583.527 6 103010335.32741
     -3261.998       -2541.824
  23378858.410    23378858.2504   23378858.6974  122856719.698 7  95732524.96144
     -1773.342       -1381.829
  23237954.926    23237955.1524   23237955.2984  122116264.948 7  95155547.01444
     -2678.535       -2087.184
 06  5 11 13 33  0.0000000  0 10G 2G 4G 6G10G13G16G23G24G25G30
  20910873.659    20910873.3764   20910871.6794  109887380.572 8  85626538.91746
      -364.405        -283.944
  22563056.375    22563055.6244   22563056.4844  118569648.549 7  92391947.43445
     -2554.808       -1990.750
  22098982.718    22098982.6784   22098983.4574  116130937.897 7  90491653.99645
      2269.172        1768.190
  23526538.244    23526538.1144   23526539.7274  123632791.504 6  96337258.89844
      4220.530        3288.689
  21511484.990    21511485.2134   21511484.6214  113043622.046 8  88085952.67245
      1589.234        1238.383
  23992280.353    23992280.4794   23992280.2614  126080309.609 6  98244402.69343
      3673.775        2862.732
  21866836.373    21866836.1524   21866833.5704  114910996.712 8  89541051.39645
      -951.333        -741.291
  25174808.739    25174809.8144   25174812.2654  132294505.201 6 103086638.12642
     -3265.421       -2544.515
  23389026.584    23389026.3554   23389026.9324  122910153.537 7  95774161.69844
     -1788.584       -1393.686
  23253287.658    23253287.5264   23253287.1534  122196831.963 7  95218326.42444
     -2692.019       -2097.669
 06  5 11 13 33 30.0000000  0 10G 2G 4G 6G10G13G16G23G24G25G30
  20913017.089    20913016.5824   20913015.1714  109898645.069 8  85635316.50246
      -386.491        -301.175
  22577675.784    22577675.7624   22577677.1924  118646480.011 7  92451816.04944
     -2567.159       -2000.389
  22086078.782    22086078.6314   22086079.2284  116063127.065 7  90438814.44545
      2251.794        1754.642
  23502469.310    23502468.4484   23502470.9404  123506308.120 7  96238700.66544
      4211.708        3281.867
  21502475.852    21502475.9494   21502475.3654  112996277.997 8  88049061.13545
      1567.122        1221.137
  23971341.508    23971340.9894   23971341.5604  125970276.417 6  98158662.63542
      3662.294        2853.762
  21872326.518    21872325.8994   21872323.4034  114939847.573 7  89563532.61745
      -971.999        -757.412
  25193461.025    25193461.4734   25193463.5194  132392517.899 6 103163011.46043
     -3268.676       -2547.051
  23399279.041    23399278.2664   23399279.0884  122964029.093 7  95816142.63044
     -1803.198       -1405.092
  23268692.421    23268692.4614   23268693.3274  122277789.065 7  95281409.70844
     -2704.996       -2107.765
 06  5 11 13 34  0.0000000  0 10G 2G 4G 6G10G13G16G23G24G25G30
  20915287.828    20915287.5414   20915286.0874  109910577.969 8  85644614.93846
      -409.255        -318.900
  22592368.117    22592368.6274   22592369.7264  118723689.198 7  92511979.03245
     -2580.319       -2010.641
  22073275.286    22073275.3334   22073276.2584  115995846.009 7  90386387.76345
      2233.385        1740.295
  23478452.277    23478452.1744   23478453.8114  123380099.998 7  96140356.83644
      4201.857        3274.174
  21493594.574    21493594.5774   21493593.9104  112949605.407 8  88012692.87645
      1544.085        1203.184
  23950469.137    23950468.2434   23950468.3694  125860588.982 6  98073192.03042
      3649.978        2844.115
  21877935.595    21877935.3744   21877932.7874  114969325.896 7  89586502.77145
      -993.472        -774.137
  25212131.260    25212131.0964   25212133.3414  132490626.150 6 103239459.45843
     -3272.394       -2549.942
  23409615.236    23409615.2744   23409615.7984  123018349.642 6  95858470.32844
     -1818.481       -1417.034
  23284172.481    23284172.6774   23284173.6754  122359139.108 7  95344799.34444
     -2718.835       -2118.575
 06  5 11 13 34 30.0000000  0 10G 2G 4G 6G10G13G16G23G24G25G30
  20917686.717    20917686.3434   20917684.5244  109923182.154 8  85654436.37646
      -431.766        -336.449
  22607134.161    22607133.7334   22607134.0834  118801278.124 7  92572437.91045
     -2593.002       -2020.517
  22060574.135    22060574.3544   22060574.8844  115929100.314 7  90334378.09845
      2215.517        1726.383
  23454489.409    23454488.4984   23454490.1404  123254174.232 7  96042233.13743
      4192.412        3266.802
  21484842.327    21484842.0994   21484841.3544  112903609.331 8  87976851.72745
      1521.547        1185.615
  23929663.049    23929662.1514   23929663.0494  125751254.234 6  97987996.27543
      3638.224        2835.011
  21883665.810    21883665.0504   21883662.4004  114999434.236 8  89609963.78145
     -1014.443        -790.480
  25230819.888    25230818.5154   25230820.5964  132588831.798 6 103315983.45443
     -3275.634       -2552.461
  23420036.988    23420037.3314   23420037.4184  123073117.165 6  95901146.24044
     -1833.511       -1428.698
  23299728.836    23299729.0264   23299729.0404  122440883.087 7  95408495.94844
     -2731.736       -2128.595
 06  5 11 13 35  0.0000000  0 10G 2G 4G 6G10G13G16G23G24G25G30
  20920209.927    20920210.0654   20920208.5864  109936446.806 8  85664772.46646
      -453.115        -353.074
  22621967.892    22621968.1714   22621968.9814  118879233.689 7  92633182.43645
     -2604.646       -2029.598
  22047972.858    22047972.9874   22047974.2354  115862881.425 7  90282778.85545
      2198.518        1713.122
  23430579.190    23430578.0614   23430579.2964  123128523.043 7  95944323.33544
      4183.913        3260.176
  21476215.137    21476215.5054   21476215.4664  112858280.631 8  87941530.71345
      1499.941        1168.783
  23908923.026    23908922.2634   23908922.1384  125642264.343 6  97903069.22343
      3627.240        2826.390
  21889513.062    21889512.5284   21889509.7504  115030161.190 8  89633906.88745
     -1034.511        -806.130
  25249521.528    25249522.9114   25249525.7394  132687122.314 6 103392573.59042
     -3277.584       -2553.958
  23430541.758    23430541.6414   23430542.1784  123128319.336 6  95944160.87744
     -1847.291       -1439.441
  23315355.544    23315356.0754   23315356.8544  122523007.467 7  95472488.86744
     -2743.761       -2138.003
 06  5 11 13 35 30.0000000  0 10G 2G 4G 6G10G13G16G23G24G25G30
  21222652.534    21222652.3084   21222650.7194  111525791.438 8  86903222.84346
      -475.617        -370.608
  22936663.592    22936664.2574   22936664.9144  120532972.517 7  93921810.00144
     -2617.177       -2039.351
  22335266.485    22335266.2904   22335266.7394  117372615.029 7  91459194.69245
      2180.433        1699.047
  23706513.942    23706513.5814   23706515.2464  124578574.693 7  97074233.90644
      4173.867        3252.342
  21767510.450    21767510.5964   21767509.5874  114389042.953 8  89134332.57045
      1476.938        1150.852
  24188041.806    24188042.3704   24188042.3314  127109046.795 6  99046016.70243
      3615.083        2816.917
  22195269.876    22195269.4744   22195266.7944  116636924.776 7  90885930.43345
     -1055.534        -822.502
  25568036.331    25568034.8284   25568036.4174  134360913.644 6 104696826.59442
     -3281.032       -2556.669
  23740920.959    23740921.1004   23740921.7144  124759373.325 6  97215111.96944
     -1862.186       -1451.032
  23630847.960    23630848.1564   23630848.6964  124180928.071 7  96764374.95544
     -2756.821       -2148.154
 06  5 11 13 36  0.0000000  0 10G 2G 4G 6G10G13G16G23G24G25G30
  21225428.703    21225428.4494   21225426.9164  111540379.272 8  86914589.90446
      -497.610        -387.753
  22951638.031    22951637.8624   22951638.8884  120611660.206 7  93983124.99444
     -2629.353       -2048.841
  22322867.559    22322867.7694   22322868.1124  117307461.314 7  91408425.62845
      2162.547        1685.077
  23682710.643    23682709.6004   23682711.4764  124453486.520 7  96976762.77344
      4164.481        3245.063
  21759140.150    21759140.3944   21759139.3894  114345057.921 8  89100058.60745
      1454.627        1133.475
  24167436.608    24167435.7644   24167435.2604  127000760.344 6  98961637.72443
      3603.276        2807.765
  22201352.154    22201351.8784   22201349.2794  116668888.810 7  90910837.46645
     -1076.073        -838.513
  25586772.134    25586771.7724   25586772.6114  134459372.677 6 104773547.48042
     -3283.597       -2558.608
  23751591.136    23751591.0144   23751591.1964  124815444.066 6  97258803.42344
     -1876.624       -1462.302
  23646620.349    23646620.4564   23646621.0564  124263810.959 7  96828959.00944
     -2769.363       -2157.944
 06  5 11 13 36 30.0000000  0  9G 2G 4G 6G10G13G16G23G25G30
  21228331.510    21228331.3044   21228329.6294  111555634.070 8  86926476.78146
      -519.811        -405.035
  22966681.418    22966681.6654   22966682.6294  120690716.993 7  94044727.57244
     -2641.632       -2058.384
  22310572.553    22310572.4314   22310572.6394  117242849.489 8  91358078.93745
      2144.430        1670.989
  23658962.494    23658961.7184   23658963.5444  124328690.369 7  96879519.10544
      4154.735        3237.453
  21750899.187    21750899.4974   21750898.7054  114301753.028 8  89066314.65745
      1431.914        1115.777
  24146898.972    24146898.7804   24146898.5784  126892836.504 6  98877541.32542
      3591.237        2798.402
  22207553.352    22207552.9644   22207550.1624  116701475.599 7  90936229.80045
     -1096.853        -854.682
  23762344.350    23762344.4584   23762344.7894  124871952.455 6  97302835.88244
     -1891.111       -1473.576
  23662464.125    23662464.7214   23662464.8154  124347074.941 7  96893839.93444
     -2782.001       -2167.769
 06  5 11 13 37  0.0000000  0  9G 2G 4G 6G10G13G16G23G25G30
  21231360.943    21231360.7174   21231359.3024  111571553.531 8  86938881.54746
      -541.827        -422.204
  22981795.128    22981795.4684   22981796.5114  120770139.607 7  94106615.28344
     -2653.657       -2067.802
  22298379.831    22298380.0674   22298380.4614  117178779.481 8  91308154.39545
      2126.577        1657.062
  23635270.796    23635269.7034   23635271.2364  124204188.261 7  96782504.62644
      4144.965        3229.853
  21742787.851    21742788.0974   21742787.2024  114259128.020 8  89033100.48945
      1409.398        1098.234
  24126431.037    24126430.0764   24126430.1684  126785276.670 6  98793728.53443
      3579.032        2788.873
  22213872.398    22213871.7254   22213869.5164  116734682.457 8  90962105.32545
     -1117.255        -870.587
  23773180.008    23773180.4294   23773180.9214  124928895.355 6  97347206.92944
     -1905.373       -1484.710
  23678380.930    23678380.9624   23678381.5214  124430716.896 7  96959015.58244
     -2794.332       -2177.396
 06  5 11 13 37 30.0000000  0  9G 2G 4G 6G10G13G16G23G25G30
  21234515.430    21234515.2644   21234513.6464  111588129.660 8  86951798.00046
      -564.413        -439.812
  22996977.218    22996976.9004   22996978.1694  120849917.934 7  94168780.13944
     -2665.934       -2077.365
  22286289.943    22286289.8104   22286290.4494  117115245.840 8  91258647.76445
      2107.971        1642.568
  23611633.176    23611632.8874   23611634.1524  124079974.898 6  96685715.02644
      4134.611        3221.780
  21734805.518    21734805.2744   21734804.2324  114217176.536 8  89000411.07245
      1386.273        1080.205
  24106031.068    24106030.8444   24106031.1574  126678076.136 6  98710195.69243
      3566.528        2779.135
  22220307.672    22220307.0904   22220304.6074  116768500.444 8  90988457.04945
     -1138.400        -887.066
  23784096.954    23784097.1674   23784097.7154  124986263.344 6  97391909.23744
     -1920.332       -1496.353
  23694367.300    23694367.6744   23694368.2164  124514725.973 7  97024477.27644
     -2807.333       -2187.536
 06  5 11 13 38  0.0000000  0  9G 2G 4G 6G10G13G16G23G25G30
  21237795.311    21237795.0874   21237793.3054  111605365.769 8  86965228.80146
      -585.631        -456.330
  23012226.489    23012226.3154   23012227.0014  120930054.093 7  94231223.83244
     -2677.268       -2086.174
  22274302.668    22274302.7304   22274303.2824  117052254.342 7  91209563.63445
      2090.589        1629.037
  23588052.529    23588051.5724   23588052.9644  123956057.662 7  96589156.13644
      4125.430        3214.617
  21726951.024    21726951.0034   21726950.1124  114175903.969 8  88968250.62145
      1364.281        1063.090
  24085701.357    24085701.0354   24085701.4894  126571242.213 6  98626948.51343
      3555.021        2770.141
  22226859.851    22226859.1734   22226856.7684  116802931.873 7  91015286.74845
     -1158.059        -902.376
  23795094.648    23795094.8134   23795095.9444  125044058.468 7  97436944.39144
     -1933.921       -1506.942
  23710423.488    23710423.7444   23710423.8824  124599103.801 7  97090226.45644
     -2818.830       -2196.493
 06  5 11 13 38 30.0000000  0  9G 2G 4G 6G10G13G16G23G25G30
  21241199.300    21241199.3574   21241197.8324  111623257.070 8  86979170.07946
      -607.792        -473.589
  23027541.962    23027542.4894   23027543.8234  121010541.976 7  94293941.65044
     -2689.184       -2095.451
  22262418.624    22262418.6894   22262418.8364  116989802.559 7  91160899.84545
      2072.100        1614.638
  23564527.951    23564527.3374   23564528.6544  123832435.644 6  96492827.34244
      4115.256        3206.686
  21719225.807    21719225.9244   21719225.2144  114135308.028 8  88936617.52745
      1341.410        1045.242
  24065440.893    24065440.3754   24065439.7784  126464773.506 6  98543985.88743
      3542.301        2760.237
  22233527.698    22233527.2244   22233524.2774  116837971.446 8  91042590.26545
     -1178.565        -918.356
  23806173.046    23806172.9244   23806173.7564  125102274.936 7  97482307.89544
     -1947.892       -1517.833
  23726549.363    23726549.6164   23726549.4394  124683843.327 7  97156257.31944
     -2831.196       -2206.137
 06  5 11 13 39  0.0000000  0  9G 2G 4G 6G10G13G16G23G25G30
  21244729.989    21244729.5684   21244727.6804  111641806.515 8  86993624.14746
      -629.411        -490.450
  23042926.345    23042926.2364   23042926.7784  121091383.785 7  94356935.23044
     -2700.832       -2104.517
  22250638.356    22250638.3984   22250639.0704  116927897.081 7  91112661.64945
      2054.273        1600.732
  23541061.323    23541060.4394   23541061.5544  123709116.107 7  96396734.15944
      4105.521        3199.096
  21711630.337    21711630.1984   21711629.3604  114095393.459 8  88905515.28845
      1318.977        1027.769
  24045251.627    24045251.0314   24045251.6154  126358677.631 6  98461313.77043
      3530.151        2750.788
  22240311.803    22240311.3934   22240308.4594  116873622.268 7  91070370.10745
     -1198.640        -934.004
  23817331.949    23817332.1064   23817332.7704  125160915.136 7  97528001.53044
     -1961.845       -1528.712
  23742744.725    23742744.7104   23742744.1804  124768946.287 7  97222571.36444
     -2842.913       -2215.240
 06  5 11 13 39 30.0000000  0  9G 2G 4G 6G10G13G16G23G25G30
  21248385.420    21248385.5574   21248384.1064  111661019.720 8  87008595.45046
      -651.695        -507.797
  23058378.257    23058377.7324   23058379.0564  121172583.278 7  94420207.52144
     -2712.736       -2113.813
  22238963.541    22238963.7544   22238964.2834  116866546.459 7  91064856.15945
      2035.578        1586.176
  23517653.839    23517653.3484   23517654.5884  123586108.009 7  96300883.76244
      4094.840        3190.798
  21704166.195    21704165.9264   21704165.1884  114056167.803 8  88874949.88445
      1295.920        1009.808
  24025135.066    24025134.4924   24025134.1614  126252963.552 6  98378939.17343
      3517.242        2740.741
  22247212.958    22247212.5994   22247209.9744  116909888.582 7  91098629.63945
     -1219.246        -950.053
  23828572.317    23828572.2594   23828572.9114  125219982.881 7  97574028.27144
     -1976.206       -1539.885
  23759007.887    23759008.1934   23759008.9554  124854415.606 7  97289170.60444
     -2855.164       -2224.787
 06  5 11 13 40  0.0000000  0  9G 2G 4G 6G10G13G16G23G25G30
  21252167.485    21252167.1774   21252165.5654  111680891.410 8  87024079.83346
      -673.376        -524.718
  23073895.965    23073896.5284   23073897.5104  121254133.872 6  94483753.37044
     -2724.402       -2122.921
  22227394.901    22227394.0224   22227394.6534  116805747.132 7  91017480.05645
      2017.342        1571.954
  23494305.020    23494304.0274   23494305.4744  123463409.880 7  96205274.85044
      4084.678        3182.872
  21696831.593    21696832.0494   21696831.4684  114017627.729 8  88844918.67145
      1273.142         992.054
  24005089.765    24005090.2584   24005090.6704  126147629.866 6  98296860.99043
      3504.731        2730.907
  22254230.097    22254229.7614   22254227.1084  116946764.538 8  91127364.14445
     -1239.417        -965.795
  23839892.750    23839893.2664   23839893.6844  125279472.378 7  97620383.67044
     -1989.950       -1550.612
  23775340.898    23775341.1954   23775341.7834  124940245.029 7  97356050.49844
     -2867.217       -2234.201
 06  5 11 13 40 30.0000000  0  9G 2G 4G 6G10G13G16G23G25G30
  21256073.313    21256073.0634   21256071.6074  111701418.116 8  87040074.69946
      -695.336        -541.820
  23089480.933    23089481.1814   23089482.1104  121336030.842 7  94547569.11944
     -2735.633       -2131.662
  22215929.109    22215928.9604   22215929.9054  116745497.508 7  90970531.90145
      1998.873        1557.579
  23471015.156    23471014.4924   23471016.2174  123341022.054 7  96109907.77644
      4074.170        3174.661
  21689627.879    21689627.9424   21689627.3944  113979771.796 8  88815420.55445
      1250.164         974.165
  23985118.519    23985118.4394   23985117.6864  126042676.457 6  98215079.12743
      3491.906        2720.953
  22261362.660    22261362.1904   22261359.3894  116984245.774 8  91156570.30845
     -1259.638        -981.531
  23851292.924    23851292.5654   23851293.3894  125339378.754 7  97667063.90044
     -2003.905       -1561.500
  23791741.471    23791741.6274   23791742.1194  125026428.927 7  97423206.60244
     -2878.848       -2243.248
 06  5 11 13 41  0.0000000  0  9G 2G 4G 6G10G13G16G23G25G30
  21260105.415    21260105.3124   21260103.7784  111722607.018 8  87056585.56146
      -717.773        -559.307
  23105133.686    23105133.1334   23105133.7134  121418280.320 7  94611659.53344
     -2747.985       -2141.281
  22204571.132    22204571.0714   22204572.1294  116685808.851 7  90924020.87145
      1979.941        1542.829
  23447787.026    23447786.2034   23447788.2504  123218955.879 7  96014791.33244
      4062.987        3165.986
  21682556.358    21682556.2804   21682555.5424  113942609.582 8  88786463.04845
      1226.713         955.872
  23965220.845    23965221.1624   23965220.2744  125938114.851 6  98133602.60143
      3478.488        2710.495
  22268611.277    22268611.1944   22268608.3634  117022339.450 7  91186253.73245
     -1280.433        -997.744
  23862773.246    23862773.6904   23862773.9084  125399708.369 7  97714073.91544
     -2018.563       -1572.883
  23808209.754    23808209.9754   23808211.3054  125112972.970 7  97490643.28944
     -2891.328       -2252.993
 06  5 11 13 41 30.0000000  0  9G 2G 4G 6G10G13G16G23G25G30
  21264262.977    21264262.9684   21264261.6654  111744457.257 8  87073611.69946
      -739.337        -576.105
  23120851.221    23120851.1144   23120852.1284  121500880.147 7  94676023.03544
     -2759.076       -2149.918
  22193319.547    22193319.6664   22193320.8744  116626683.122 7  90877948.82145
      1961.419        1528.385
  23424620.396    23424619.7904   23424621.1574  123097214.093 7  95919927.65344
      4052.655        3157.896
  21675616.600    21675616.8504   21675616.0954  113906141.635 8  88758046.48145
      1204.020         938.193
  23945398.179    23945398.4164   23945398.5864  125833947.823 6  98052433.53843
      3465.653        2700.500
  22275976.811    22275976.2254   22275973.5384  117061043.407 7  91216412.62845
     -1300.216       -1013.141
  23874333.965    23874333.6754   23874334.3174  125460459.272 7  97761412.25344
     -2032.013       -1583.396
  23824747.188    23824747.1894   23824748.4374  125199874.427 7  97558358.55744
     -2902.509       -2261.686
 06  5 11 13 42  0.0000000  0  9G 2G 4G 6G10G13G16G23G25G30
  21268547.108    21268547.0764   21268545.6764  111766970.195 8  87091154.32346
      -761.923        -593.702
  23136636.135    23136636.3634   23136637.1964  121583830.030 7  94740659.25544
     -2771.244       -2159.404
  22182176.520    22182176.1794   22182177.3824  116568123.642 7  90832317.94745
      1942.155        1513.376
  23401515.999    23401515.4844   23401516.8814  122975801.435 7  95825320.46444
      4041.225        3149.019
  21668809.707    21668810.0254   21668809.4204  113870370.963 8  88730173.17545
      1180.300         919.712
  23925652.261    23925651.7984   23925652.5564  125730180.217 6  97971575.66843
      3451.894        2689.781
  22283457.800    22283457.6904   22283454.9344  117100358.247 7  91247047.47245
     -1321.057       -1029.388
  23885974.343    23885974.6044   23885974.3714  125521631.453 7  97809078.85443
     -2046.538       -1594.737
  23841351.586    23841352.4464   23841353.2444  125287132.859 7  97626352.00944
     -2914.935       -2271.383
 06  5 11 13 42 30.0000000  0  9G 2G 4G 6G10G13G16G23G25G30
  21272956.278    21272956.0304   21272954.4934  111790138.304 8  87109207.35446
      -782.927        -610.072
  23152485.927    23152486.2944   23152486.5124  121667121.813 7  94805561.91544
     -2781.772       -2167.588
  22171139.838    22171139.6444   22171141.1154  116510126.180 7  90787125.03945
      1924.070        1499.269
  23378473.989    23378472.9734   23378474.9774  122854714.931 7  95730967.44544
      4031.130        3141.148
  21662134.631    21662134.7124   21662133.8844  113835292.997 8  88702839.70945
      1157.983         902.330
  23905982.278    23905980.8804   23905981.1964  125626809.083 7  97891026.73743
      3439.340        2680.003
  22291054.270    22291053.7474   22291051.1524  117140276.417 8  91278152.55445
     -1340.322       -1044.412
  23897693.774    23897693.6014   23897694.7574  125583216.946 7  97857067.53743
     -2059.421       -1604.734
  23858022.552    23858023.0074   23858023.9354  125374739.472 7  97694616.92644
     -2925.785       -2279.853
 06  5 11 13 43  0.0000000  0  9G 2G 4G 6G10G13G16G23G25G30
  21277488.723    21277488.6594   21277486.9904  111813957.558 8  87127767.79746
      -804.845        -627.148
  23168399.743    23168400.0474   23168401.0154  121750750.035 7  94870726.71344
     -2793.505       -2176.756
  22160210.386    22160210.1214   22160211.1184  116452689.590 7  90742369.26545
      1905.066        1484.468
  23355493.983    23355493.1944   23355494.9084  122733954.251 7  95636868.24144
      4019.813        3132.332
  21655590.882    21655591.2244   21655590.1224  113800905.567 8  88676044.34445
      1134.634         884.132
  23886386.354    23886385.5504   23886385.4884  125523833.904 6  97810786.30143
      3425.768        2669.457
  22298764.376    22298763.8764   22298761.0754  117180793.125 8  91309723.99845
     -1360.652       -1060.240
  23909490.869    23909490.9524   23909491.6234  125645210.628 7  97905374.27743
     -2073.199       -1615.445
  23874759.349    23874759.9824   23874759.3914  125462688.313 7  97763148.65844
     -2937.370       -2288.875
 06  5 11 13 43 30.0000000  0  9G 2G 4G 6G10G13G16G23G25G30
  21282143.995    21282143.9244   21282142.2694  111838421.540 8  87146830.67346
      -826.510        -644.024
  23184376.528    23184376.4094   23184377.5604  121834706.958 7  94936147.64844
     -2804.274       -2185.152
  22149386.168    22149386.3374   22149387.1644  116395808.960 7  90698046.62645
      1886.272        1469.824
  23332575.753    23332574.6764   23332576.0104  122613516.708 7  95543020.76144
      4008.869        3123.803
  21649177.596    21649177.7294   21649176.9594  113767203.659 8  88649783.12245
      1111.637         866.207
  23866864.605    23866865.1964   23866864.9154  125421251.924 6  97730852.31743
      3412.577        2659.157
  22306586.799    22306586.3924   22306583.6634  117221900.857 7  91341755.98745
     -1380.386       -1075.623
  23921364.035    23921364.0274   23921365.2484  125707604.709 6  97953992.99343
     -2086.780       -1626.026
  23891559.418    23891559.4214   23891559.3474  125550970.575 7  97831940.02444
     -2948.474       -2297.501
 06  5 11 13 44  0.0000000  0  9G 2G 4G 6G10G13G16G23G25G30
  21286923.415    21286923.3234   21286921.9664  111863537.492 8  87166401.59746
      -848.132        -660.877
  23200416.392    23200416.4594   23200417.8634  121918999.017 7  95001829.73544
     -2815.253       -2193.703
  22138670.560    22138670.4844   22138671.1314  116339495.549 8  90654166.08245
      1867.572        1455.252
  23309720.804    23309719.7374   23309721.0434  122493414.063 7  95449434.34044
      3997.831        3115.170
  21642896.675    21642896.8174   21642896.0544  113734196.698 8  88624063.40045
      1088.601         848.273
  23847421.004    23847421.0074   23847421.6064  125319074.638 6  97651233.68643
      3399.127        2648.663
  22314523.000    22314522.6304   22314520.1554  117263606.392 7  91374253.74445
     -1400.088       -1090.954
  23933314.702    23933314.5454   23933315.9254  125770405.836 6  98002928.91643
     -2100.068       -1636.402
  23908423.025    23908423.1484   23908423.2744  125639592.418 7  97900995.91244
     -2959.673       -2306.221
 06  5 11 13 44 30.0000000  0  9G 2G 4G 6G10G13G16G23G25G30
  21291826.612    21291826.3424   21291824.6554  111889303.245 8  87186478.90246
      -869.459        -677.512
  23216520.006    23216520.0294   23216521.2414  122003622.621 7  95067770.10944
     -2826.015       -2202.085
  22128062.440    22128062.3144   22128062.8254  116283748.672 8  90610726.87845
      1848.999        1440.799
  23286929.238    23286929.2254   23286930.3214  122373647.722 7  95356109.96744
      3986.790        3106.581
  21636747.760    21636748.0304   21636747.4754  113701884.438 8  88598885.03045
      1065.664         830.388
  23828055.530    23828055.2264   23828054.8624  125217303.726 7  97571931.67943
      3385.719        2638.226
  22322572.481    22322572.1924   22322569.7724  117305906.979 7  91407215.14745
     -1419.698       -1106.252
  23945342.401    23945341.9904   23945343.2404  125833610.735 6  98052179.44943
     -2113.431       -1646.790
  23925351.203    23925351.3404   23925351.4994  125728549.554 7  97970312.95044
     -2970.602       -2314.742
 06  5 11 13 45  0.0000000  0  9G 2G 4G 6G10G13G16G23G25G30
  21296851.178    21296851.1914   21296849.6814  111915709.883 8  87207055.49246
      -891.420        -694.617
  23232685.176    23232685.3464   23232686.1714  122088568.144 7  95133961.41044
     -2837.310       -2210.893
  22117560.859    22117560.9934   22117561.3384  116228563.990 8  90567725.92245
      1829.789        1425.805
  23264202.783    23264201.4104   23264203.1294  122254213.404 7  95263044.30544
      3975.019        3097.427
  21630729.897    21630729.8294   21630729.3914  113670260.257 8  88574242.80145
      1042.234         812.133
  23808765.253    23808764.7334   23808765.3794  125115934.610 7  97492942.79143
      3371.802        2627.350
  22330733.701    22330733.4834   22330730.9464  117348793.472 7  91440633.18345
     -1439.750       -1121.884
  23957445.351    23957444.8604   23957445.7234  125897209.890 6  98101737.17643
     -2127.065       -1657.455
  23942341.606    23942341.4344   23942342.2644  125817832.516 6  98039884.03243
     -2981.954       -2323.610
 06  5 11 13 45 30.0000000  0  9G 2G 4G 6G10G13G16G23G25G30
  21301998.371    21301998.1824   21301996.6704  111942756.975 8  87228131.20246
      -912.155        -710.776
  23248909.889    23248910.4324   23248911.8314  122173833.744 7  95200402.10644
     -2847.372       -2218.741
  22107166.791    22107166.6084   22107167.3924  116173942.073 7  90525163.39145
      1811.392        1411.473
  23241538.678    23241537.7204   23241539.0354  122135113.997 7  95170239.58444
      3964.562        3089.248
  21624843.202    21624843.2084   21624842.8264  113639324.964 8  88550137.30545
      1019.790         794.639
  23789551.726    23789551.8784   23789552.2304  125014970.266 7  97414269.22843
      3358.847        2617.306
  22339006.461    22339005.8264   22339003.5034  117392264.315 7  91474506.50545
     -1458.705       -1136.659
  23969621.944    23969622.3224   23969622.3924  125961201.576 6  98151600.77843
     -2139.493       -1667.169
  23959392.441    23959392.8584   23959393.0764  125907439.067 7  98109707.59743
     -2992.099       -2331.509
 06  5 11 13 46  0.0000000  0  9G 2G 4G 6G10G13G16G23G25G30
  21307266.307    21307266.2014   21307264.7244  111970441.353 8  87249703.44146
      -933.574        -727.472
  23265195.621    23265195.5884   23265196.7444  122259415.425 7  95267089.09344
     -2858.147       -2227.126
  22096879.437    22096879.2314   22096880.2564  116119883.056 8  90483039.49245
      1792.441        1396.706
  23218938.677    23218938.0634   23218939.5044  122016351.067 7  95077697.04144
      3953.018        3080.252
  21619086.822    21619087.1904   21619086.9954  113609078.312 8  88526568.48145
       996.511         776.477
  23770416.272    23770415.7684   23770416.7484  124914411.883 7  97335912.05243
      3345.000        2606.486
  22347388.388    22347388.4734   22347386.2744  117436316.313 7  91508832.72645
     -1478.345       -1151.965
  23981873.226    23981873.7184   23981873.9824  126025582.025 6  98201767.31943
     -2152.709       -1677.445
  23976504.136    23976504.8964   23976504.9454  125997363.175 6  98179777.90143
     -3003.029       -2340.077
 06  5 11 13 46 30.0000000  0  9G 2G 4G 6G10G13G16G23G25G30
  21312655.983    21312655.5654   21312654.1594  111998761.639 8  87271771.21146
      -954.632        -743.888
  23281541.055    23281540.8184   23281542.7794  122345310.763 7  95334020.49944
     -2868.432       -2235.160
  22086699.716    22086699.7924   22086700.4354  116066388.616 7  90441355.56345
      1773.635        1382.047
  23196403.097    23196402.5734   23196404.1904  121897926.990 7  94985418.58744
      3941.691        3071.443
  21613462.462    21613462.8204   21613462.2594  113579520.801 8  88503536.70145
       973.664         758.688
  23751358.401    23751358.2784   23751358.8304  124814262.277 7  97257873.38043
      3331.285        2595.774
  22355881.514    22355881.0534   22355879.1324  117480946.862 7  91543609.62045
     -1497.437       -1166.844
  23994197.870    23994197.6094   23994198.5824  126090349.022 6  98252235.12543
     -2165.433       -1687.354
  23993676.620    23993676.7664   23993678.5544  126087603.040 6  98250094.49843
     -3013.043       -2347.840
 06  5 11 13 47  0.0000000  0  9G 2G 4G 6G10G13G16G23G25G30
  21318164.092    21318164.0724   21318162.6804  112027709.389 8  87294327.91246
      -975.502        -760.129
  23297943.730    23297944.1104   23297945.5894  122431510.147 7  95401188.84944
     -2878.701       -2243.156
  22076626.292    22076626.0414   22076626.7944  116013452.566 7  90400106.65345
      1755.208        1367.697
  23173931.768    23173930.3964   23173931.9874  121779836.956 7  94893400.37744
      3930.702        3062.867
  21607968.369    21607968.3944   21607967.4414  113550645.400 8  88481036.41645
       951.017         741.062
  23732378.761    23732377.4554   23732377.9144  124714516.568 7  97180149.45444
      3318.050        2585.505
  22364482.618    22364482.5294   22364480.3944  117526147.154 7  91578830.56545
     -1516.277       -1181.519
  24006594.465    24006594.4174   24006594.9954  126155492.914 6  98302996.55643
     -2178.075       -1697.196
  24010906.969    24010906.5234   24010907.9754  126178149.241 6  98320650.26143
     -3023.166       -2355.702
 06  5 11 13 47 30.0000000  0  9G 2G 4G 6G10G13G16G23G25G30
  21323792.140    21323791.6904   21323790.1144  112057282.866 8  87317372.18046
      -996.626        -776.592
  23314404.441    23314404.6804   23314406.1164  122518011.046 7  95468592.21144
     -2888.830       -2251.032
  22066659.305    22066659.2004   22066660.1264  115961076.138 7  90359293.89245
      1736.030        1352.749
  23151523.916    23151522.6014   23151524.1854  121662083.906 7  94801644.77344
      3919.137        3053.863
  21602602.877    21602603.1874   21602602.3594  113522452.427 8  88459067.83545
       927.879         723.019
  23713474.643    23713473.9124   23713474.1074  124615177.133 7  97102742.12443
      3304.140        2574.687
  22373192.487    22373192.3544   22373189.5474  117571914.672 7  91614493.44745
     -1535.352       -1196.386
  24019062.129    24019062.1244   24019063.1414  126221011.452 6  98354050.02743
     -2190.716       -1707.024
  24028194.734    24028194.1574   24028195.2064  126268997.554 6  98391441.21043
     -3033.750       -2363.962
 06  5 11 13 48  0.0000000  0  9G 2G 4G 6G10G13G16G23G25G30
  21329537.608    21329537.4534   21329536.1754  112087477.122 8  87340900.15346
     -1016.815        -792.317
  23330920.793    23330921.4444   23330923.2534  122604807.305 7  95536225.66344
     -2898.147       -2258.280
  22056798.161    22056797.7414   22056799.1754  115909257.076 7  90318915.43345
      1718.052        1338.742
  23129179.617    23129178.6754   23129180.6094  121544666.811 7  94710150.96144
      3908.309        3045.453
  21597367.276    21597367.5204   21597366.9654  113494938.775 8  88437628.61345
       905.808         705.845
  23694647.769    23694647.5354   23694647.4264  124516242.974 7  97025650.57843
      3290.992        2564.439
  22382008.816    22382008.4284   22382005.8194  117618244.291 7  91650594.50845
     -1553.657       -1210.632
  24031600.141    24031600.3594   24031600.9214  126286898.576 6  98405390.66143
     -2202.358       -1716.126
  24045539.699    24045539.3834   24045540.8504  126360140.986 6  98462461.89243
     -3042.973       -2371.150
 06  5 11 13 48 30.0000000  0  9G 2G 4G 6G10G13G16G23G25G30
  21335401.159    21335400.7574   21335399.1614  112118288.565 8  87364909.06446
     -1037.442        -808.397
  23347493.227    23347493.6474   23347494.9434  122691894.333 7  95604085.64344
     -2907.776       -2265.830
  22047043.025    22047042.8304   22047044.4444  115857994.449 7  90278970.50545
      1699.372        1324.198
  23106900.262    23106899.4984   23106901.2754  121427586.022 7  94618919.16644
      3896.905        3036.539
  21592260.600    21592260.9944   21592260.1184  113468102.829 8  88416717.45545
       883.142         688.161
  23675898.618    23675898.2364   23675897.9004  124417714.789 7  96948875.32543
      3277.413        2553.817
  22390931.118    22390931.0844   22390928.2054  117665131.642 7  91687130.12045
     -1572.238       -1225.141
  24044207.224    24044207.0824   24044208.1704  126353149.948 6  98457015.11743
     -2214.557       -1725.623
  24062937.856    24062938.9184   24062940.0704  126451575.183 6  98533709.08243
     -3052.711       -2378.748
 06  5 11 13 49  0.0000000  0  9G 2G 4G 6G10G13G16G23G25G30
  21341381.913    21341381.8574   21341380.4394  112149719.595 8  87389400.75546
     -1058.272        -824.620
  23364120.935    23364121.0574   23364122.9074  122779273.685 7  95672173.47044
     -2917.738       -2273.563
  22037394.723    22037394.8264   22037396.2634  115807293.919 7  90239463.60345
      1680.423        1309.432
  23084685.796    23084685.1024   23084686.4914  121310848.099 7  94527954.51744
      3885.253        3027.476
  21587284.055    21587284.2134   21587283.2674  113441948.829 8  88396337.64545
       860.140         670.251
  23657228.112    23657227.5074   23657227.4264  124319598.796 7  96872421.30943
      3263.399        2542.907
  22399960.060    22399959.7034   22399957.2104  117712578.451 7  91724101.61445
     -1591.148       -1239.849
  24056883.917    24056884.3264   24056884.9524  126419766.963 6  98508924.49444
     -2226.941       -1735.254
  24080393.538    24080393.3204   24080395.3684  126543300.899 6  98605183.38343
     -3062.619       -2386.425
 06  5 11 13 49 30.0000000  0  9G 2G 4G 6G10G13G16G23G25G30
  21347479.159    21347478.7814   21347477.0954  112181759.084 8  87414366.59246
     -1078.629        -840.485
  23380802.451    23380802.4304   23380803.8634  122866933.440 7  95740479.75044
     -2927.093       -2280.858
  22027852.442    22027852.6644   22027854.0044  115757146.559 7  90200387.64445
      1661.865        1294.962
  23062535.411    23062534.5084   23062535.7624  121194446.379 7  94437251.87144
      3873.960        3018.685
  21582434.599    21582434.8684   21582434.4004  113416467.807 8  88376482.28545
       837.626         652.704
  23638633.531    23638633.4624   23638633.5274  124221888.190 7  96796283.17543
      3249.954        2532.443
  22409093.285    22409092.9044   22409090.2214  117760572.942 7  91761499.90445
     -1609.310       -1254.007
  24069628.158    24069628.3534   24069629.0624  126486737.895 7  98561109.61644
     -2238.752       -1744.478
  24097902.243    24097901.8074   24097903.2594  126635306.480 6  98676876.17842
     -3072.041       -2393.817
 06  5 11 13 50  0.0000000  0  9G 2G 4G 6G10G13G16G23G25G30
  21353692.378    21353692.0784   21353690.3024  112214409.322 8  87439808.24246
     -1098.843        -856.233
  23397536.422    23397536.8484   23397538.5724  122954874.876 6  95809005.62544
     -2936.329       -2288.042
  22018416.326    22018416.0704   22018417.4834  115707557.898 7  90161747.19645
      1643.330        1280.508
  23040450.304    23040449.1464   23040450.7714  121078387.061 7  94346816.01344
      3862.565        3009.792
  21577715.273    21577715.1244   21577714.1354  113391663.847 8  88357154.51245
       815.251         635.262
  23620118.164    23620117.9624   23620117.8364  124124589.349 7  96720465.81743
      3236.012        2521.565
  22418331.071    22418330.4484   22418327.9394  117809116.754 7  91799326.20645
     -1627.593       -1268.266
  24082439.615    24082439.9744   24082440.8054  126554064.131 6  98613571.54444
     -2250.423       -1753.588
  24115462.729    24115462.6364   24115464.4624  126727591.528 6  98748786.36342
     -3081.147       -2400.924
 06  5 11 13 50 30.0000000  0  9G 2G 4G 6G10G13G16G23G25G30
  21360022.274    21360021.8354   21360020.0744  112247671.152 8  87465726.48346
     -1119.209        -872.122
  23414325.829    23414325.8614   23414327.0014  123043097.903 7  95877750.79744
     -2945.547       -2295.230
  22009087.394    22009087.2664   22009088.0864  115658530.829 7  90123544.12545
      1624.611        1265.936
  23018430.545    23018429.8554   23018430.9264  120962675.474 7  94256651.10944
      3850.997        3000.765
  21573124.456    21573124.4814   21573123.7144  113367540.053 8  88338356.69945
       792.558         617.561
  23601681.984    23601682.4984   23601682.3104  124027707.351 7  96644973.35043
      3222.146        2510.743
  22427673.183    22427672.4334   22427669.9484  117858210.165 7  91837580.77145
     -1645.801       -1282.457
  24095318.989    24095319.5634   24095319.9714  126621745.867 7  98666310.51944
     -2262.123       -1762.722
  24133077.047    24133077.4714   24133079.0254  126820156.216 6  98820914.64842
     -3090.303       -2408.010
 06  5 11 13 51  0.0000000  0  9G 2G 4G 6G10G13G16G23G25G30
  21366466.608    21366466.1734   21366464.6524  112281537.608 8  87492115.90946
     -1138.912        -887.469
  23431165.800    23431165.9764   23431166.9254  123131594.520 7  95946709.18544
     -2954.518       -2302.237
  21999863.703    21999863.8454   21999864.5454  115610061.778 8  90085776.02145
      1606.430        1251.790
  22996477.218    22996476.4124   22996477.2944  120847308.781 7  94166754.96744
      3839.712        2991.985
  21568662.097    21568662.2424   21568661.4434  113344090.591 8  88320084.34545
       770.476         600.365
  23583324.837    23583324.3174   23583325.1394  123931238.846 7  96569803.11043
      3208.755        2500.358
  22437118.302    22437117.6474   22437115.4474  117907845.638 7  91876257.71945
     -1663.502       -1296.248
  24108265.312    24108265.2224   24108265.9524  126689775.269 7  98719320.41244
     -2273.422       -1771.508
  24150744.084    24150744.9754   24150743.5584  126912991.819 6  98893254.15742
     -3098.993       -2414.778
 06  5 11 13 51 30.0000000  0  9G 2G 4G 6G10G13G16G23G25G30
  21373025.922    21373025.5624   21373024.0664  112316007.655 8  87518975.64046
     -1159.619        -903.596
  23448057.266    23448057.9514   23448059.3564  123220363.174 7  96015879.62444
     -2964.037       -2309.650
  21990747.422    21990747.3004   21990747.7184  115562152.067 7  90048443.61045
      1587.106        1236.695
  22974590.314    22974589.4474   22974590.1804  120732290.044 7  94077129.88644
      3827.628        2982.590
  21564328.805    21564328.8204   21564327.9274  113321317.009 8  88302338.71245
       747.194         582.220
  23565047.359    23565046.0884   23565047.3324  123835187.437 6  96494957.90143
      3194.311        2489.061
  22446665.864    22446665.8264   22446663.6774  117958021.827 7  91915356.01245
     -1682.063       -1310.700
  24121276.648    24121276.5794   24121277.0574  126758150.705 7  98772599.95644
     -2285.526       -1780.932
  24168461.508    24168460.5854   24168459.5354  127006095.707 6  98965802.31642
     -3108.604       -2422.297
 06  5 11 13 52  0.0000000  0  9G 2G 4G 6G10G13G16G23G25G30
  21379702.619    21379702.0404   21379700.3894  112351091.901 8  87546313.98146
     -1179.894        -919.393
  23465004.273    23465003.9414   23465005.5534  123309413.574 7  96085269.53644
     -2973.241       -2316.805
  21981739.580    21981739.2134   21981739.9834  115514815.802 8  90011558.28345
      1568.089        1221.903
  22952771.833    22952771.3064   22952772.3084  120617634.430 7  93987787.88144
      3815.561        2973.147
  21560125.506    21560125.6704   21560125.0754  113299231.161 8  88285128.94045
       724.497         564.543
  23546851.569    23546850.5444   23546850.9064  123739567.509 6  96420448.88243
      3179.870        2477.812
  22456319.245    22456318.9794   22456316.6484  118008748.656 7  91954883.34145
     -1700.231       -1324.839
  24134355.823    24134355.8424   24134356.6164  126826882.036 7  98826156.83044
     -2297.171       -1790.007
  24186229.508    24186230.7794   24186231.3034  127099478.130 5  99038567.92241
     -3117.534       -2429.311
 06  5 11 13 52 30.0000000  0  9G 2G 4G 6G10G13G16G23G25G30
  21386491.996    21386491.7884   21386490.3274  112386773.322 8  87574117.68346
     -1199.517        -934.690
  23482000.512    23481999.7284   23482001.1074  123398727.664 6  96154864.81044
     -2981.725       -2323.428
  21972837.635    21972837.6704   21972838.1134  115468038.172 8  89975108.24445
      1549.813        1207.645
  22931020.506    22931019.3644   22931020.3314  120503328.901 7  93898718.63244
      3803.949        2964.108
  21556051.022    21556051.0744   21556050.4134  113277818.271 8  88268443.59845
       702.362         547.298
  23528734.564    23528734.6244   23528735.0394  123644366.337 6  96346266.19743
      3166.122        2467.124
  22466074.568    22466073.6894   22466071.2144  118060008.407 7  91994825.94745
     -1717.707       -1338.457
  24147499.212    24147499.1374   24147499.9014  126895951.438 7  98879977.14344
     -2308.154       -1798.580
  24204050.888    24204051.0064   24204051.8034  127193120.380 5  99111536.06441
     -3125.461       -2435.468
 06  5 11 13 53  0.0000000  0  9G 2G 4G 6G10G13G16G23G25G30
  21393396.533    21393396.1254   21393394.3924  112423054.533 8  87602388.70346
     -1219.902        -950.564
  23499045.890    23499046.5704   23499047.8324  123488307.670 7  96224667.46144
     -2990.947       -2330.597
  21964043.712    21964043.4714   21964043.8884  115421824.665 7  89939097.73545
      1530.526        1192.612
  22909336.265    22909335.5864   22909337.1364  120389380.270 7  93809927.39044
      3791.947        2954.777
  21552104.965    21552105.2974   21552104.2394  113257082.716 8  88252286.02745
       679.438         529.440
  23510699.246    23510698.8654   23510699.7284  123549590.398 6  96272414.80943
      3151.566        2455.772
  22475930.418    22475930.0694   22475927.4174  118111803.096 7  92035185.39145
     -1735.869       -1352.614
  24160707.418    24160707.2754   24160708.1744  126965360.666 7  98934062.22244
     -2319.836       -1807.639
  24221919.058    24221920.4194   24221918.3184  127287023.190 5  99184707.13441
     -3134.801       -2442.614
 06  5 11 13 53 30.0000000  0  9G 2G 4G 6G10G13G16G23G25G30
  21400414.429    21400414.1294   21400412.6234  112459934.400 8  87631126.18846
     -1239.445        -965.807
  23516143.330    23516142.5904   23516144.2394  123578151.303 6  96294675.44544
     -2999.401       -2337.209
  21955356.352    21955356.5094   21955357.4454  115376177.146 7  89903528.35245
      1512.000        1178.187
  22887721.144    22887720.5584   22887721.7434  120275792.038 7  93721417.07544
      3780.119        2945.547
  21548288.277    21548288.4684   21548287.7284  113237025.364 8  88236656.87145
       657.060         511.987
  23492746.827    23492745.8644   23492745.7674  123455242.883 6  96198897.27443
      3137.556        2444.834
  22485888.175    22485887.8974   22485884.6874  118164131.213 7  92075960.49045
     -1753.255       -1366.176
  24173978.949    24173979.8034   24173980.7634  127035108.016 7  98988410.73944
     -2330.512       -1815.971
  24239836.867    24239837.9984   24239838.9094  127381184.458 5  99258079.71041
     -3143.102       -2449.101
 06  5 11 13 54  0.0000000  0  9G 2G 4G 6G10G13G16G23G25G30
  21407545.498    21407545.2794   21407543.5274  112497407.867 8  87660326.24446
     -1259.591        -981.497
  23533289.522    23533289.0694   23533290.4104  123668253.111 7  96364884.67744
     -3008.192       -2344.049
  21946777.588    21946777.2664   21946778.1974  115331092.770 7  89868397.63645
      1492.703        1163.149
  22866174.186    22866173.7034   22866175.1744  120162563.091 7  93633186.61844
      3767.736        2935.895
  21544599.970    21544600.1414   21544599.6234  113217642.978 8  88221553.67145
       634.190         494.162
  23474873.906    23474873.2184   23474872.9124  123361323.589 6  96125713.47843
      3122.882        2433.448
  22495946.531    22495945.7744   22495943.3484  118216987.265 7  92117146.97445
     -1771.201       -1380.151
  24187315.582    24187315.5974   24187316.1594  127105188.004 7  99043018.52144
     -2342.128       -1825.058
  24257803.546    24257804.9524   24257805.3994  127475597.577 5  99331648.10341
     -3151.812       -2455.968
 06  5 11 13 54 30.0000000  0  9G 2G 4G 6G10G13G16G23G25G30
  21414790.138    21414789.9764   21414788.4884  112535480.467 8  87689993.20446
     -1279.190        -996.776
  23550483.333    23550484.0404   23550486.2784  123758617.509 7  96435298.49244
     -3016.672       -2350.638
  21938306.446    21938306.3774   21938307.8794  115286580.064 7  89833712.41945
      1473.991        1148.573
  22844697.725    22844697.1504   22844698.9384  120049702.983 7  93545243.50944
      3755.600        2926.455
  21541040.755    21541041.2454   21541040.8604  113198942.682 8  88206981.99945
       611.794         476.735
  23457084.250    23457083.7104   23457084.6114  123267841.513 6  96052870.35843
      3108.551        2422.273
  22506105.225    22506105.2424   22506103.0304  118270375.817 7  92158748.37545
     -1788.591       -1393.707
  24200715.581    24200715.7154   24200716.1404  127175605.110 7  99097888.99144
     -2352.948       -1833.462
  24275818.962    24275819.8524   24275821.1464  127570266.935 5  99405416.51541
     -3160.199       -2462.500
 06  5 11 13 55  0.0000000  0  9G 2G 4G 6G10G13G16G23G25G30
  21422146.067    21422145.6084   21422144.2374  112574134.264 8  87720113.07846
     -1298.476       -1011.799
  23567726.851    23567726.8404   23567728.1234  123849225.450 7  96505902.02244
     -3024.623       -2356.843
  21929941.609    21929941.8814   21929943.1414  115242623.513 7  89799460.50645
      1455.640        1134.259
  22823289.025    22823288.6844   22823290.4714  119937198.282 7  93457577.26244
      3743.821        2917.268
  21537609.730    21537609.7344   21537608.9604  113180908.224 8  88192929.19645
       589.760         459.561
  23439375.870    23439375.8164   23439375.6464  123174782.662 6  95980357.01743
      3094.458        2411.285
  22516363.595    22516363.0494   22516360.4454  118324278.273 7  92200750.21945
     -1805.672       -1407.023
  24214176.020    24214176.2644   24214176.7504  127246340.528 7  99153007.41844
     -2363.414       -1841.625
  24293879.998    24293880.9964   24293879.9404  127665173.050 5  99479369.07041
     -3167.887       -2468.461
 06  5 11 13 55 30.0000000  0  9G 2G 4G 6G10G13G16G23G25G30
  21429613.548    21429613.4184   21429611.9034  112613377.613 8  87750692.24746
     -1317.853       -1026.889
  23585017.227    23585016.7524   23585018.0834  123940085.877 7  96576702.41144
     -3032.759       -2363.159
  21921685.176    21921684.9774   21921686.6614  115199235.320 7  89765651.62145
      1436.863        1119.621
  22801950.807    22801949.8674   22801952.0254  119825062.901 7  93370199.01944
      3731.801        2907.917
  21534306.170    21534306.3124   21534306.1644  113163550.429 8  88179403.60945
       567.335         442.095
  23421750.615    23421750.3264   23421750.1834  123082160.039 6  95908183.47643
      3080.111        2400.080
  22526719.716    22526719.7444   22526717.7204  118378703.323 7  92243159.29845
     -1822.918       -1420.457
  24227698.814    24227699.2174   24227699.5674  127317402.598 7  99208380.38744
     -2374.185       -1850.006
  24311985.456    24311986.6264   24311986.0614  127760324.382 5  99553513.05641
     -3175.573       -2474.477
 06  5 11 13 56  0.0000000  0  9G 2G 4G 6G10G13G16G23G25G30
  21437191.366    21437190.9044   21437189.4684  112653197.747 8  87781720.93246
     -1337.484       -1042.196
  23602352.511    23602352.7594   23602353.4244  124031184.261 7  96647688.14744
     -3041.190       -2369.761
  21913535.404    21913534.9964   21913536.1664  115156404.290 7  89732276.68745
      1417.739        1104.731
  22780680.602    22780679.7484   22780681.6134  119713287.372 7  93283101.18145
      3719.226        2898.091
  21531129.948    21531129.9694   21531129.3904  113146857.226 8  88166395.90245
       544.809         424.539
  23404206.142    23404205.7484   23404205.8874  122989965.020 7  95836343.16643
      3065.523        2388.703
  22537173.396    22537173.2094   22537170.9864  118433636.866 7  92285964.59845
     -1840.178       -1433.897
  24241280.639    24241280.7564   24241281.8224  127388777.590 7  99263997.23944
     -2384.962       -1858.402
  24330137.523    24330136.1924   24330136.7304  127855706.823 5  99627837.57041
     -3183.892       -2480.996
 06  5 11 13 56 30.0000000  0  9G 2G 4G 6G10G13G16G23G25G30
  21444878.076    21444878.0064   21444876.6794  112693593.684 8  87813198.29546
     -1356.114       -1056.716
  23619732.404    23619733.0784   23619733.9054  124122519.519 7  96718858.54244
     -3048.515       -2375.464
  21905491.440    21905491.3364   21905491.9754  115114133.151 7  89699338.17045
      1399.693        1090.665
  22759479.774    22759479.0914   22759480.7194  119601875.529 7  93196286.76245
      3707.679        2889.106
  21528079.841    21528080.1514   21528079.8264  113130830.761 8  88153907.72745
       523.005         407.534
  23386744.767    23386743.5184   23386744.1504  122898201.210 7  95764838.93843
      3051.609        2377.867
  22547723.498    22547723.1934   22547721.2404  118489077.954 7  92329165.41145
     -1856.459       -1446.614
  24254922.189    24254922.5514   24254923.3544  127460464.122 7  99319856.78744
     -2394.637       -1865.953
  24348331.321    24348331.6804   24348330.8904  127951317.250 5  99702339.56741
     -3191.064       -2486.573
 06  5 11 13 57  0.0000000  0  9G 2G 4G 6G10G13G16G23G25G30
  21452675.579    21452675.2664   21452673.6384  112734569.177 8  87845127.26646
     -1375.472       -1071.791
  23637159.597    23637159.5974   23637160.3974  124214094.818 7  96790215.87644
     -3056.478       -2381.671
  21897555.326    21897555.4564   21897555.8524  115072428.500 7  89666841.10245
      1380.800        1075.937
  22738349.594    22738348.8224   22738350.0944  119490835.417 7  93109761.94045
      3695.008        2879.240
  21525158.396    21525158.4924   21525157.5084  113115476.482 8  88141943.34645
       500.605         390.064
  23369365.433    23369365.0684   23369365.6814  122806876.880 6  95693677.21443
      3036.740        2366.294
  22558370.602    22558370.7294   22558368.3954  118545029.957 7  92372764.37645
     -1873.574       -1459.948
  24268623.664    24268623.9504   24268625.1164  127532465.379 7  99375961.54344
     -2405.418       -1874.349
  24366567.141    24366568.5974   24366567.9524  128047158.112 5  99777020.79641
     -3198.625       -2492.487
 06  5 11 13 57 30.0000000  0  9G 2G 4G 6G10G13G16G23G25G30
  21460581.543    21460581.2834   21460579.8014  112776114.529 8  87877500.22246
     -1394.453       -1086.591
  23654628.460    23654628.7414   23654630.2794  124305899.425 6  96861751.93644
     -3064.091       -2387.595
  21889725.527    21889725.6044   21889725.8934  115031282.796 8  89634779.56145
      1362.118        1061.395
  22717288.696    22717287.9254   22717289.9134  119380161.354 7  93023522.38245
      3682.841        2869.735
  21522362.934    21522363.1014   21522362.1334  113100786.044 8  88130496.25645
       478.490         372.854
  23352068.995    23352069.3094   23352069.4824  122715985.490 7  95622852.78043
      3022.289        2355.019
  22569113.784    22569113.0544   22569110.5034  118601481.889 7  92416752.85745
     -1890.181       -1472.866
  24282383.390    24282383.4494   24282384.1844  127604770.946 7  99432303.53144
     -2415.184       -1881.983
  24384848.469    24384850.0804   24384848.7524  128143218.805 4  99851873.18541
     -3206.060       -2498.178
 06  5 11 13 58  0.0000000  0  9G 2G 4G 6G10G13G16G23G25G30
  21468594.686    21468594.3644   21468592.8484  112818224.173 8  87910312.92746
     -1413.052       -1101.085
  23672140.971    23672140.9074   23672142.1764  124397927.044 7  96933461.66244
     -3071.189       -2393.154
  21882001.862    21882001.7824   21882002.1614  114990693.375 8  89603151.50645
      1343.664        1047.003
  22696297.571    22696296.9714   22696298.5174  119269852.131 7  92937567.03645
      3670.868        2860.425
  21519692.951    21519692.8834   21519692.4134  113086755.180 8  88119563.09945
       456.692         355.870
  23334855.943    23334855.4374   23334856.0554  122625525.908 6  95552364.82043
      3008.161        2344.004
  22579950.060    22579949.6364   22579947.3624  118658427.981 8  92461126.44045
     -1906.261       -1485.385
  24296199.297    24296199.8924   24296200.3784  127677374.524 7  99488877.75444
     -2424.790       -1889.452
  24403167.537    24403166.0234   24403169.4864  128239492.498 4  99926891.68241
     -3212.906       -2503.528
 06  5 11 13 58 30.0000000  0  9G 2G 4G 6G10G13G16G23G25G30
  21476714.495    21476714.4414   21476712.4934  112860894.485 7  87943562.58746
     -1432.137       -1115.948
  23689694.861    23689695.0454   23689696.0644  124490173.380 6  97005341.78944
     -3078.906       -2399.134
  21874383.410    21874383.5164   21874384.2154  114950659.213 7  89571956.05745
      1324.735        1032.264
  22675376.048    22675375.4774   22675377.3514  119159909.061 7  92851897.14745
      3658.157        2850.527
  21517148.355    21517148.3184   21517147.9484  113073382.383 8  88109142.70145
       434.299         338.425
  23317724.053    23317724.2454   23317723.8334  122535498.673 7  95482213.76543
      2993.198        2332.336
  22590879.268    22590879.3574   22590876.9444  118715864.097 7  92505881.84345
     -1923.088       -1498.500
  24310071.584    24310071.8014   24310072.2514  127750271.709 7  99545680.65744
     -2435.072       -1897.435
  24421525.319    24421529.0374   24421524.9004  128335974.587 4 100002072.27741
     -3220.090       -2509.150
 06  5 11 13 59  0.0000000  0  9G 2G 4G 6G10G13G16G23G25G30
  21484942.446    21484942.1824   21484940.7884  112904132.288 8  87977254.31846
     -1450.564       -1130.309
  23707292.416    23707292.2744   23707293.4764  124582645.324 6  97077397.75144
     -3086.183       -2404.813
  21866873.151    21866872.8674   21866873.6434  114911190.114 7  89541200.92546
      1306.278        1017.872
  22654526.346    22654525.8004   22654527.7944  119050343.481 7  92766521.38944
      3645.910        2840.967
  21514730.726    21514730.8334   21514729.6604  113060676.338 8  88099241.88745
       412.480         321.410
  23300676.135    23300676.3334   23300676.8814  122445915.526 7  95412408.72043
      2978.741        2321.098
  22601904.443    22601903.5884   22601901.1014  118773796.638 7  92551024.05745
     -1939.401       -1511.229
  24324000.706    24324000.8214   24324001.2834  127823469.238 7  99602717.60844
     -2444.817       -1905.025
  24439926.361    24439932.1774   24439925.0644  128432671.190 4 100077420.32641
     -3226.805       -2514.453
 06  5 11 13 59 30.0000000  0  9G 2G 4G 6G10G13G16G23G25G30
  21493276.165    21493275.8644   21493274.5644  112947926.004 8  88011379.24846
     -1469.370       -1144.956
  23724929.351    23724929.7614   23724930.3214  124675330.541 7  97149619.88044
     -3093.320       -2410.378
  21859467.973    21859467.7244   21859468.7254  114872277.702 8  89510879.65646
      1287.524        1003.270
  22633747.715    22633746.9924   22633747.8864  118941148.145 7  92681434.06745
      3633.328        2831.161
  21512438.530    21512437.8954   21512436.7544  113048627.378 8  88089853.07245
       390.325         304.156
  23283712.846    23283712.9834   23283712.8504  122356769.060 6  95342943.90743
      2963.923        2309.576
  22613019.947    22613020.0874   22613017.6224  118832213.585 7  92596543.72645
     -1955.570       -1523.812
  24337984.252    24337984.4224   24337984.6084  127896954.971 7  99659979.08243
     -2454.481       -1912.582
  24458370.091                                   128529569.413 4
     -3233.546
 06  5 11 14  0  0.0000000  0  9G 2G 4G 6G10G13G16G23G25G30
  21501714.992    21501714.8564   21501713.5774  112992272.805 8  88045935.15246
     -1487.705       -1159.249
  23742606.971    23742606.4324   23742608.7134  124768225.873 6  97222005.84243
     -3100.239       -2415.777
  21852168.790    21852168.9234   21852169.7774  114833921.398 8  89480991.71846
      1269.037         988.856
  22613039.383    22613038.7594   22613039.8964  118832324.825 7  92596636.73945
      3620.951        2821.523
  21510269.086    21510269.3024   21510269.1464  113037234.279 8  88080975.32545
       368.526         287.168
  23266832.491    23266831.9434   23266832.3774  122268060.471 7  95273820.31244
      2949.335        2298.189
  22624228.734    22624227.8354   22624225.6124  118891111.687 7  92642438.32945
     -1971.590       -1536.306
  24352022.601    24352022.5374   24352023.7104  127970725.259 7  99717462.14743
     -2463.878       -1919.887
  24476843.599                                   128626665.600 4
     -3239.724
 06  5 11 14  0 30.0000000  0  9G 2G 4G 6G10G13G16G23G25G30
  21510258.943    21510258.5324   21510257.1884  113037169.740 8  88080919.78546
     -1506.083       -1173.576
  23760322.914    23760323.7864   23760324.6034  124861327.635 7  97294552.67044
     -3107.283       -2421.256
  21844975.973    21844975.6454   21844976.4434  114796120.985 7  89451536.89946
      1250.245         974.201
  22592402.039    22592401.2554   22592402.7584  118723874.514 7  92512129.91745
      3608.341        2811.724
  21508226.324    21508226.2014   21508225.5384  113026495.756 8  88072607.64645
       346.575         270.051
  23250035.644    23250034.7484   23250035.2394  122179791.348 7  95205039.18844
      2934.510        2286.618
  22635526.865    22635526.8174   22635524.6774  118950487.798 7  92688705.40945
     -1987.502       -1548.715
  24366114.497    24366114.4804   24366114.9194  128044777.276 6  99775164.94443
     -2473.684       -1927.544
  24495355.519                                   128723956.173 3
     -3246.558
 06  5 11 14  1  0.0000000  0  9G 2G 4G 6G10G13G16G23G25G30
  21518906.102    21518906.0224   21518904.4134  113082612.375 8  88116329.71846
     -1523.779       -1187.364
  23778078.445    23778078.8554   23778079.6594  124954630.503 7  97367256.13943
     -3113.265       -2425.953
  21837887.955    21837887.9144   21837888.4544  114758875.521 7  89422514.88345
      1232.278         960.219
  22571835.312    22571834.4654   22571836.5304  118615797.173 7  92427913.64645
      3596.312        2802.322
  21506306.730    21506306.5944   21506305.9994  113016409.067 8  88064747.87745
       325.441         253.590
  23233321.281    23233321.3514   23233322.0684  122091961.238 7  95136600.11044
      2920.340        2275.640
  22646915.837    22646915.6164   22646913.3514  119010336.092 7  92735340.41245
     -2002.816       -1560.637
  24380258.925    24380258.8164   24380259.6594  128119105.344 7  99833082.83543
     -2482.077       -1934.074
  24513906.237                                   128821435.475 3
     -3252.194
 06  5 11 14  1 30.0000000  0  9G 2G 4G 6G10G13G16G23G25G30
  21527658.217    21527657.7604   21527656.2424  113128602.741 8  88152166.38046
     -1542.192       -1201.707
  23795871.098    23795872.2374   23795873.6004  125048136.684 6  97440118.09343
     -3120.297       -2431.385
  21830906.687    21830906.4744   21830906.8664  114722189.076 7  89393928.25345
      1213.447         945.534
  22551341.113    22551340.2954   22551342.7194  118508100.343 7  92343994.04845
      3583.516        2792.353
  21504512.101    21504512.3084   21504511.2724  113006978.348 8  88057399.27845
       303.315         236.355
  23216692.719    23216692.3344   23216692.7914  122004576.773 7  95068508.28843
      2905.075        2263.684
  22658395.127    22658394.3574   22658392.3894  119070658.710 7  92782345.03045
     -2018.836       -1573.111
  24394455.858    24394455.9624   24394457.3264  128193711.693 6  99891217.57243
     -2491.469       -1941.389
  24532495.437                                   128919103.878 3
     -3259.521
 06  5 11 14  2  0.0000000  0  9G 2G 4G 6G10G13G16G23G25G30
  21536512.931    21536512.4304   21536511.1794  113175136.423 8  88188426.36646
     -1560.338       -1215.855
  23813703.922    23813703.2554   23813705.0464  125141840.956 7  97513134.28943
     -3126.963       -2436.582
  21824031.435    21824031.4614   21824031.6144  114686059.795 7  89365775.71045
      1194.863         931.051
  22530919.359    22530918.4034   22530920.6894  118400783.442 7  92260370.50345
      3570.630        2782.301
  21502841.865    21502841.7594   21502840.7484  112998200.489 8  88050559.39545
       281.482         219.339
  23200149.502    23200149.1384   23200148.9474  121917637.805 7  95000763.59344
      2890.298        2252.192
  22669962.502    22669962.7544   22669960.6074  119131450.893 7  92829715.53544
     -2034.441       -1585.299
  24408705.329    24408704.9104   24408705.9544  128268591.179 7  99949565.13343
     -2500.752       -1948.671
  24551114.531                                   129016956.184 3
     -3265.023
 06  5 11 14  2 30.0000000  0  9G 2G 4G 6G10G13G16G23G25G30
  21545471.831    21545471.6084   21545469.9124  113222216.159 8  88225111.83546
     -1578.343       -1229.883
  23831572.518    23831573.0244   23831573.8034  125235745.508 7  97586306.54543
     -3133.561       -2441.735
  21817263.016    21817262.9874   21817263.6434  114650493.363 7  89338061.64445
      1176.259         916.556
  22510572.052    22510571.0914   22510572.3794  118293854.000 8  92177048.95045
      3557.850        2772.360
  21501295.972    21501296.2664   21501295.7834  112990079.936 8  88044231.68045
       259.748         202.397
  23183691.496    23183691.2164   23183691.1664  121831151.236 7  94933371.42444
      2875.374        2240.523
  22681621.228    22681620.6274   22681618.6994  119192714.386 7  92877453.29245
     -2049.958       -1597.361
  24423006.396    24423006.4584   24423008.6234  128343745.879 6 100008127.09743
     -2509.759       -1955.642
  24569771.784                                   129114994.567 3
     -3271.539
 06  5 11 14  3  0.0000000  0  9G 2G 4G 6G10G13G16G23G25G30
  21554532.488    21554532.3684   21554531.0294  113269831.170 8  88262214.42646
     -1596.180       -1243.770
  23849477.025    23849478.4524   23849479.6564  125329839.321 6  97659626.36943
     -3139.746       -2446.498
  21810601.016    21810600.4154   21810601.1754  114615481.677 7  89310779.81345
      1157.679         902.098
  22490296.045    22490295.6284   22490297.0534  118187304.766 7  92094023.41545
      3545.262        2762.572
  21499874.490    21499874.6994   21499874.1374  112982607.479 8  88038408.99545
       238.265         185.672
  23167318.205    23167318.2454   23167318.3124  121745110.335 7  94866326.51444
      2860.421        2228.904
  22693365.611    22693366.2344   22693364.4604  119254438.167 7  92925549.74645
     -2065.248       -1609.269
  24437358.103    24437358.1434   24437359.8914  128419164.749 6 100066895.01343
     -2518.382       -1962.360
  24588458.886                                   129213206.328 4
     -3276.739
 06  5 11 14  3 30.0000000  0  9G 2G 4G 6G10G13G16G23G25G30
  21563696.370    21563696.1524   21563694.5174  113317987.080 8  88299738.48546
     -1614.616       -1258.146
  23867420.615    23867421.5264   23867423.0484  125424127.560 6  97733097.67343
     -3146.488       -2451.803
  21804044.599    21804044.3074   21804045.8124  114581033.192 7  89283936.80945
      1138.450         887.112
  22470095.055    22470094.3204   22470095.6214  118081146.991 7  92011303.03145
      3531.530        2751.836
  21498577.353    21498577.5964   21498576.4384  112975790.477 8  88033097.06345
       215.908         168.245
  23151032.529    23151031.7844   23151032.1054  121659525.374 7  94799636.90944
      2844.756        2216.656
  22705201.355    22705200.7774   22705198.5004  119316627.798 7  92974009.18745
     -2081.122       -1621.666
  24451761.249    24451761.2074   24451762.3074  128494853.385 6 100125873.33043
     -2527.790       -1969.714
  24607186.111                                   129311597.504 4
     -3283.361
 06  5 11 14  4  0.0000000  0  9G 2G 4G 6G10G13G16G23G25G30
  21572962.239    21572961.8934   21572960.1374  113366677.949 8  88337679.37046
     -1632.337       -1271.964
  23885399.702    23885399.7094   23885401.1984  125518603.964 6  97806715.50343
     -3152.505       -2456.511
  21797595.838    21797595.6524   21797597.1284  114547145.246 7  89257530.68245
      1119.812         872.568
  22449968.057    22449967.2124   22449968.6574  117975379.236 7  91928886.54945
      3518.704        2741.841
  21497403.954    21497403.8964   21497403.1234  112969625.168 8  88028292.93645
       194.330         151.422
  23134832.583    23134832.2784   23134831.9004  121574395.067 7  94733301.60144
      2829.676        2204.935
  22717123.104    22717122.6194   22717120.3114  119379276.715 7  93022826.52245
     -2096.291       -1633.468
  24466214.416    24466214.9804   24466215.2074  128570805.265 6 100185056.76342
     -2536.417       -1976.467
  24625938.899                                   129410160.506 3
     -3288.010
 06  5 11 14  4 30.0000000  0  9G 2G 4G 6G10G13G16G23G25G30
  21582329.854    21582329.7724   21582328.0984  113415906.180 8  88376038.96546
     -1650.161       -1285.830
  23903412.693    23903414.2314   23903415.8914  125613270.780 6  97880481.70743
     -3158.834       -2461.404
  21791253.893    21791254.3174   21791255.7644  114513822.543 7  89231565.01345
      1101.079         857.986
  22429916.676    22429916.0594   22429917.5314  117870008.438 7  91846779.45945
      3505.548        2731.610
  21496355.220    21496355.3704   21496354.5574  112964115.425 8  88023999.61245
       172.574         134.471
  23118720.809    23118720.3694   23118720.6904  121489726.107 7  94667325.83544
      2814.358        2193.022
  22729131.509    22729131.9914   22729129.8134  119442386.857 7  93072003.26145
     -2111.613       -1645.412
  24480718.005    24480718.4494   24480718.7154  128647021.918 6 100244446.32242
     -2545.180       -1983.234
  24644727.632                                   129508897.749 3
     -3293.917
 06  5 11 14  5  0.0000000  0  9G 2G 4G 6G10G13G16G23G25G30
  21591800.113    21591799.9714   21591798.1424  113465670.757 8  88414816.50546
     -1668.209       -1299.895
  23921462.604    23921464.8614   23921466.6934  125708125.321 6  97954393.87943
     -3165.419       -2466.511
  21785021.613    21785021.4284   21785022.4884  114481066.702 7  89206041.07145
      1082.013         843.135
  22409940.970    22409940.3794   22409942.3594  117765037.897 7  91764984.38645
      3491.946        2721.005
  21495432.071    21495432.0604   21495431.2144  112959261.181 8  88020217.05945
       150.404         117.202
  23102697.019    23102696.7354   23102696.1994  121405520.973 7  94601711.44744
      2798.609        2180.746
  22741230.283    22741228.9124   22741226.6344  119505956.544 7  93121538.13245
     -2127.048       -1657.436
  24495271.988    24495271.9994   24495272.5944  128723501.920 6 100304041.18142
     -2554.027       -1990.178
  24663550.338                                   129607805.687 3
     -3300.207
 06  5 11 14  5 30.0000000  0  9G 2G 4G 6G10G13G16G23G25G30
  21601371.949    21601371.8494   21601370.4034  113515972.057 8  88454012.33846
     -1685.843       -1313.639
  23939550.852    23939550.8744   23939553.2144  125803168.658 6  98028453.25343
     -3171.500       -2471.304
  21778896.651    21778896.7154   21778897.2754  114448880.474 7  89180960.97345
      1063.142         828.443
  22390042.791    22390042.2464   22390043.7264  117660472.342 7  91683504.84645
      3478.517        2710.527
  21494632.942    21494633.1414   21494632.7174  112955064.450 8  88016946.83245
       128.705         100.295
  23086762.666    23086761.7624   23086761.5174  121321784.519 7  94536462.32844
      2783.179        2168.686
  22753412.885    22753413.3424   22753411.0324  119569985.629 7  93171430.93445
     -2142.097       -1669.160
  24509875.088    24509875.3694   24509876.9264  128800245.157 6 100363841.05542
     -2562.900       -1997.073
  24682407.276                                   129706885.620 3
     -3305.864
 06  5 11 14  6  0.0000000  0 10G 2G 4G 6G 7G10G13G16G23G25G30
  21611044.333    21611044.3704   21611042.9064  113566802.626 8  88493620.58646
     -1703.431       -1327.344
  23957674.391    23957671.5994   23957673.5844  125898393.648 7  98102654.40543
     -3177.542       -2476.030
  21772880.105    21772879.8184   21772880.1284  114417259.596 7  89156321.28145
      1044.378         813.822
  24807082.901                                   130362101.781 4
      3877.546
  22370221.168    22370220.7884   22370222.3704  117556309.429 7  91602339.03745
      3465.039        2700.041
  21493958.751    21493958.7804   21493958.0924  112951519.926 8  88014184.81745
       106.976          83.366
  23070916.771    23070916.1284   23070915.7594  121238514.373 7  94471576.61244
      2767.624        2156.603
  22765683.787    22765683.4704   22765681.2184  119634466.347 7  93221675.66745
     -2157.073       -1680.825
  24524528.169    24524527.5824   24524528.2574  128877244.224 6 100423840.28642
     -2571.246       -2003.563
  24701287.674                                   129806128.205 3
     -3311.002
 06  5 11 14  6 30.0000000  0 10G 2G 4G 6G 7G10G13G16G23G25G30
  21620817.515    21620817.3224   21620815.5804  113618159.153 8  88533638.65146
     -1720.631       -1340.751
  23975825.048    23975825.8804   23975828.4704  125993796.611 6  98176994.41543
     -3183.023       -2480.242
  21766970.351    21766970.3944   21766970.2344  114386203.533 8  89132121.68745
      1025.887         799.396
  24784960.777                                   130245857.360 4
      3873.128
  22350476.186    22350475.5304   22350477.9454  117452550.510 7  91521488.10045
      3451.854        2689.727
  21493407.698    21493408.0444   21493407.2384  112948625.938 8  88011929.72045
        85.569          66.671
  23055160.013    23055159.5074   23055159.3684  121155711.106 7  94407054.55944
      2752.242        2144.614
  22778039.533    22778039.0274   22778036.8634  119699395.179 7  93272269.56145
     -2171.900       -1692.387
  24539228.900    24539228.2674   24539230.4284  128954495.385 6 100484035.90442
     -2579.152       -2009.739
  24720206.503                                   129905529.513 3
     -3316.677
 06  5 11 14  7  0.0000000  0 10G 2G 4G 6G 7G10G13G16G23G25G30
  21630691.001    21630690.8284   21630689.1894  113670045.569 8  88574069.59546
     -1738.543       -1354.717
  23994013.828    23994015.3484   23994017.6954  126089380.377 6  98251475.28943
     -3189.278       -2485.147
  21761169.532    21761169.4634   21761169.1574  114355718.642 8  89108367.15245
      1006.434         784.229
  24762872.378                                   130129780.697 4
      3866.687
  22330810.140    22330809.2644   22330811.2404  117349203.684 7  91440958.26745
      3437.841        2678.848
  21492981.973    21492982.3454   21492981.9344  112946387.884 8  88010185.75045
        63.523          49.510
  23039493.298    23039492.9044   23039493.1614  121073382.751 7  94342902.58744
      2736.190        2132.103
  22790480.573    22790480.6784   22790478.5274  119764775.414 7  93323215.15545
     -2186.964       -1704.121
  24553976.541    24553975.9614   24553980.1764  129032002.094 6 100544430.65041
     -2587.947       -2016.564
  24739152.026                                   130005092.696 3
     -3322.316
 06  5 11 14  7 30.0000000  0 10G 2G 4G 6G 7G10G13G16G23G25G30
  21640665.356    21640665.1594   21640663.7194  113722461.531 8  88614913.28546
     -1756.400       -1368.623
  24012238.253    24012238.1664   24012240.6014  126185144.605 6  98326096.99643
     -3195.488       -2489.948
  21755477.876    21755477.4604   21755477.0404  114325807.603 8  89085060.00045
       987.121         769.186
  24740815.963                                   130013875.527 4
      3860.154
  22311223.574    22311222.6164   22311224.0574  117246272.569 8  91360752.15145
      3423.649        2667.787
  21492681.298    21492681.2864   21492680.9334  112944806.770 8  88008953.70945
        41.467          32.309
  23023917.604    23023917.0664   23023916.8554  120991533.460 7  94279123.94344
      2720.014        2119.500
  22803008.388    22803007.6204   22803005.4564  119830605.878 7  93374511.60444
     -2202.245       -1716.016
  24568774.938    24568774.3614   24568776.3024  129109763.617 5 100605024.02241
     -2596.840       -2023.524
  24758125.447                                   130104816.422 3
     -3327.279
 06  5 11 14  8  0.0000000  0 10G 2G 4G 6G 7G10G13G16G23G25G30
  21650739.689    21650739.7604   21650738.3674  113775403.716 8  88656166.92546
     -1773.833       -1382.216
  24030498.251    24030495.4244   24030497.4924  126281085.305 7  98400855.79643
     -3201.219       -2494.503
  21749894.599    21749894.6274   21749894.2824  114296469.506 8  89062199.04445
       968.047         754.315
  24718794.740                                   129898143.992 4
      3854.531
  22291716.246    22291715.1854   22291716.0354  117143759.934 8  91280872.30945
      3409.729        2656.916
  21492504.719    21492505.0204   21492504.9114  112943881.460 8  88008232.67045
        19.574          15.247
  23008433.628    23008433.1624   23008433.0284  120910164.734 7  94215719.71644
      2703.965        2106.995
  22815620.071    22815619.9264   22815617.7694  119896883.541 7  93426156.57244
     -2216.960       -1727.518
  24583620.333    24583620.2414   24583621.9554  129187776.919 5 100665813.63341
     -2604.888       -2029.765
  24777134.627                                   130204697.768 3
     -3333.901
 06  5 11 14  8 30.0000000  0  9G 2G 4G 6G 7G10G13G16G23G25
  21660913.528    21660913.3994   21660911.8134  113828865.672 8  88697825.59146
     -1791.130       -1395.699
  24048781.260    24048784.8454   24048787.4864  126377194.724 6  98475745.37143
     -3206.912       -2498.870
  21744420.408    21744420.2204   21744419.9124  114267700.896 8  89039782.01645
       949.036         739.494
  24696803.396                                   129782583.249 4
      3848.642
  22272287.435    22272286.5914   22272287.7374  117041662.765 7  91201316.06845
      3395.856        2646.103
  21492453.000    21492453.1634   21492452.4634  112943606.528 8  88008018.43845
        -2.134          -1.691
  22993041.144    22993040.6364   22993040.4354  120829274.006 7  94152687.97644
      2687.949        2094.504
  22828316.272    22828315.6154   22828313.6034  119963601.686 7  93478144.85344
     -2231.678       -1739.003
  24598512.166    24598512.3314   24598513.1864  129266034.807 6 100726793.83941
     -2613.044       -2036.216
 06  5 11 14  9  0.0000000  0  9G 2G 4G 6G 7G10G13G16G23G25
  21671187.456    21671187.2204   21671185.6614  113882854.023 8  88739894.40946
     -1808.390       -1409.115
  24067107.598    24067107.8714   24067110.2324  126473482.566 6  98550774.87043
     -3212.686       -2503.452
  21739055.531    21739055.6294   21739055.7754  114239511.048 7  89017815.89445
       929.971         724.669
  24674847.278                                   129667204.798 4
      3842.553
  22252940.319    22252939.1704   22252940.5054  116939993.329 7  91122093.32145
      3381.720        2635.086
  21492526.418    21492526.2804   21492525.6494  112943990.629 8  88008317.73945
       -24.017         -18.716
  22977740.929    22977740.3364   22977740.5234  120748872.230 7  94090037.15944
      2671.805        2081.896
  22841097.054    22841096.7284   22841094.8054  120030766.516 7  93530481.11944
     -2246.328       -1750.399
  24613452.516    24613452.3994   24613451.8794  129344543.454 5 100787969.29641
     -2621.117       -2042.431
 06  5 11 14  9 30.0000000  0  9G 2G 4G 6G 7G10G13G16G23G25
  21681559.317    21681559.2334   21681557.5844  113937359.527 8  88782366.06546
     -1825.547       -1422.510
  24085466.307    24085462.9144   24085464.9354  126569938.659 7  98625936.07843
     -3218.173       -2507.684
  21733800.364    21733800.0714   21733800.1684  114211893.523 8  88996295.76945
       910.984         709.845
  24652924.034                                   129552004.006 4
      3837.093
  22233673.387    22233672.3844   22233673.8064  116838746.394 7  91043199.75345
      3367.779        2624.239
  21492722.684    21492722.8614   21492722.0754  112945025.794 8  88009124.36545
       -45.418         -35.401
  22962532.934    22962532.7744   22962532.6074  120668954.979 7  94027763.96144
      2655.662        2069.347
  22853961.373    22853960.5424   22853958.6204  120098368.271 7  93583157.89244
     -2260.707       -1761.590
  24628436.725    24628436.4974   24628438.2854  129423293.795 5 100849333.18341
     -2629.217       -2048.807
 06  5 11 14 10  0.0000000  0 10G 2G 4G 6G 7G10G13G16G23G25G27
  21692029.748    21692029.2644   21692027.3034  113992379.319 8  88825238.74146
     -1842.832       -1436.002
  24103848.495    24103848.3904   24103850.1664  126666558.145 6  98701224.60643
     -3223.568       -2511.873
  21728653.235    21728653.1514   21728653.5284  114184847.018 8  88975220.57345
       891.865         694.959
  24631033.671                                   129436981.957 4
      3830.746
  22214487.477    22214486.4534   22214487.7254  116737922.957 7  90964636.10445
      3353.387        2613.030
  21493043.661    21493043.4204   21493042.7154  112946709.848 8  88010436.60945
       -67.189         -52.361
  22947417.997    22947417.5104   22947417.2934  120589522.772 7  93965868.78344
      2639.429        2056.708
  22866907.034    22866907.6944   22866905.2164  120166402.553 7  93636171.69344
     -2275.170       -1772.854
  24643467.979    24643468.2344   24643469.9714  129502281.400 5 100910881.86441
     -2636.673       -2054.549
  25524501.972    25524501.6714   25524503.9914  134132176.879 6 104518584.51442
      3883.558        3026.116
 06  5 11 14 10 30.0000000  0 10G 2G 4G 6G 7G10G13G16G23G25G27
  21702595.633    21702595.4624   21702593.8694  114047907.208 8  88868507.31346
     -1859.368       -1448.852
  24122263.275    24122263.6984   24122265.2214  126763335.148 6  98776635.71043
     -3228.581       -2515.818
  21723615.122    21723614.5504   21723614.8584  114158368.849 7  88954588.26445
       873.241         680.452
  24609182.445                                   129322136.835 4
      3825.209
  22195381.568    22195380.9904   22195382.2064  116637522.431 7  90886401.94545
      3339.675        2602.359
  21493486.696    21493486.9244   21493486.3344  112949039.046 8  88012251.59445
       -88.419         -68.883
  22932393.860    22932393.9044   22932393.8144  120510574.132 7  93904350.32844
      2623.524        2044.313
  22879936.087    22879934.9394   22879932.4574  120234863.671 7  93689518.03844
     -2289.056       -1783.665
  24658543.158    24658543.7754   24658544.0404  129581501.329 5 100972611.71641
     -2644.409       -2060.552
  25502333.422    25502333.7564   25502337.4814  134015690.685 6 104427816.02242
      3881.674        3024.743
 06  5 11 14 11  0.0000000  0 10G 2G 4G 6G 7G10G13G16G23G25G27
  21713258.220    21713258.1244   21713256.7234  114103939.508 8  88912168.86345
     -1876.314       -1462.063
  24140709.803    24140709.3764   24140710.7964  126860266.181 6  98852166.78443
     -3233.704       -2519.807
  21718684.107    21718684.2234   21718684.1454  114132458.293 8  88934398.12345
       854.040         665.485
  24587361.522                                   129207470.788 5
      3818.830
  22176356.881    22176356.0694   22176357.3414  116537546.235 7  90808498.40845
      3325.312        2591.153
  21494052.251    21494052.5614   21494051.7564  112952011.625 8  88014567.92845
      -109.983         -85.718
  22917463.270    22917462.7804   22917462.8494  120432110.529 7  93843209.85344
      2607.144        2031.546
  22893043.345    22893043.3074   22893041.0234  120303747.896 7  93743194.02644
     -2303.338       -1794.818
  24673661.620    24673661.8654   24673662.6314  129660949.245 5 101034519.05741
     -2652.156       -2066.656
  25480184.289    25480183.9054   25480187.1054  133899285.977 6 104337110.54642
      3878.852        3022.453
 06  5 11 14 11 30.0000000  0 10G 2G 4G 6G 7G10G13G16G23G25G27
  21724017.898    21724017.7224   21724016.2814  114160481.399 8  88956227.46946
     -1893.462       -1475.412
  24159187.000    24159184.5634   24159185.3134  126957356.436 7  98927822.10543
     -3239.145       -2524.009
  21713863.424    21713863.2514   21713862.9494  114107122.797 8  88914656.05945
       834.811         650.524
  24565577.577                                   129092992.575 5
      3812.738
  22157414.791    22157413.6894   22157415.1744  116438003.538 7  90730932.60845
      3310.594        2579.676
  21494741.426    21494741.5324   21494741.0074  112955633.474 8  88017390.17545
      -131.799        -102.692
  22902625.806    22902625.5704   22902625.4184  120354141.177 7  93782454.60244
      2590.482        2018.529
  22906233.225    22906233.2104   22906230.7364  120373059.982 7  93797203.43344
     -2317.753       -1806.027
  24688824.998    24688825.4044   24688823.6214  129740629.931 5 101096607.71041
     -2660.229       -2072.819
  25458050.115    25458050.1604   25458052.4794  133782975.173 6 104246479.27342
      3875.451        3019.813
 06  5 11 14 12  0.0000000  0 10G 2G 4G 6G 7G10G13G16G23G25G27
  21734873.664    21734873.3394   21734871.7644  114217528.318 8  89000679.54946
     -1909.969       -1488.285
  24177687.879    24177689.3014   24177691.2594  127054599.333 6  99003595.48443
     -3244.065       -2527.828
  21709150.914    21709151.0374   21709150.8924  114082360.642 7  88895360.75445
       815.761         635.643
  24543827.363                                   128978702.575 5
      3806.339
  22138554.520    22138553.8134   22138555.5954  116338894.747 7  90653705.03945
      3296.394        2568.606
  21495553.426    21495553.4944   21495553.3084  112959901.691 8  88020716.08845
      -153.085        -119.289
  22887882.935    22887882.5684   22887882.9394  120276665.238 7  93722083.68544
      2574.221        2005.893
  22919503.698    22919503.2244   22919500.8244  120442794.763 7  93851542.16844
     -2331.613       -1816.846
  24704032.042    24704032.2154   24704035.2924  129820539.051 5 101158874.61041
     -2667.485       -2078.567
  25435934.599    25435935.1164   25435936.0094  133666755.517 6 104155918.71043
      3872.372        3017.420
 06  5 11 14 12 30.0000000  0 10G 2G 4G 6G 7G10G13G16G23G25G27
  21745822.965    21745822.9604   21745821.3844  114275069.581 8  89045516.84245
     -1926.564       -1501.241
  24196221.212    24196221.7474   24196222.9484  127151986.211 6  99079481.54743
     -3249.004       -2531.688
  21704546.680    21704546.5024   21704546.7094  114058163.599 7  88876505.86945
       796.895         620.939
  24522115.866                                   128864594.117 5
      3800.404
  22119776.029    22119775.2974   22119776.6144  116240213.615 8  90576810.71545
      3281.893        2557.295
  21496486.971    21496487.3434   21496486.8704  112964807.094 8  88024538.51745
      -174.357        -135.872
  22873232.462    22873232.3404   22873231.8374  120199676.589 7  93662092.52044
      2557.836        1993.116
  22932851.709    22932851.8304   22932849.2554  120512940.925 7  93906201.47244
     -2345.384       -1827.587
  24719278.527    24719277.8944   24719279.5574  129900665.038 5 101221310.36241
     -2674.639       -2084.167
  25413835.239    25413834.8284   25413836.6234  133550620.513 6 104065423.64443
      3869.762        3015.437
 06  5 11 14 13  0.0000000  0 10G 2G 4G 6G 7G10G13G16G23G25G27
  21756868.623    21756868.2624   21756866.8234  114333113.683 8  89090746.15145
     -1943.965       -1514.797
  24214781.296    24214782.5204   24214783.8864  127249522.466 6  99155482.91043
     -3254.496       -2535.982
  21700051.241    21700051.2874   21700051.5584  114034542.780 8  88858100.05145
       776.943         605.418
  24500438.441    24500436.2584   24500438.5554  128750680.304 5 100325213.97441
      3793.551        2956.054
  22101081.313    22101080.4524   22101081.9214  116141972.828 7  90500259.44845
      3266.468        2545.294
  21497544.026    21497544.1574   21497542.9934  112970359.341 8  88028864.96645
      -196.728        -153.305
  22858676.922    22858676.7854   22858676.8024  120123187.609 7  93602490.62344
      2540.416        1979.541
  22946279.675    22946279.7544   22946277.5904  120583506.616 7  93961187.73244
     -2359.969       -1838.935
  24734569.653    24734567.0994   24734571.6194  129981016.327 5 101283921.74341
     -2682.666       -2090.378
  25391755.131    25391754.2804   25391756.5754  133434580.390 6 103975000.92642
      3865.057        3011.663
 06  5 11 14 13 30.0000000  0 10G 2G 4G 6G 7G10G13G16G23G25G27
  21768008.647    21768008.4544   21768006.9964  114391655.411 8  89136363.12246
     -1959.608       -1526.978
  24233373.285    24233371.9954   24233373.4304  127347206.996 7  99231600.65943
     -3258.491       -2539.044
  21695665.969    21695666.0124   21695666.1014  114011495.847 8  88840141.44845
       758.714         591.209
  24478798.535    24478797.5614   24478798.9034  128636961.053 5 100236601.55641
      3787.649        2951.371
  22082470.586    22082470.0744   22082471.0944  116044172.354 7  90424051.24145
      3252.759        2534.625
  21498723.010    21498723.0324   21498721.8534  112976554.919 8  88033692.71145
      -217.171        -169.220
  22844216.930    22844216.2914   22844216.4994  120047198.590 7  93543278.39444
      2524.696        1967.297
  22959787.006    22959786.9554   22959784.7404  120654486.900 7  94016497.02544
     -2372.873       -1848.988
  24749900.109    24749903.4594   24749900.2534  130061587.809 5 101346704.70341
     -2689.265       -2095.482
  25369692.092    25369692.0024   25369694.3144  133318643.542 6 103884661.17642
      3863.019        3010.135
 06  5 11 14 14  0.0000000  0 10G 2G 4G 6G 7G10G13G16G23G25G27
  21779243.573    21779243.4334   21779241.9964  114450695.579 8  89182368.49245
     -1976.277       -1539.963
  24251990.006    24251988.0124   24251989.0844  127445040.457 7  99307835.39643
     -3263.673       -2543.122
  21691389.732    21691389.8544   21691390.5444  113989025.532 8  88822631.91045
       739.236         576.037
  24457196.146    24457195.6404   24457196.2284  128523441.786 5 100148144.98941
      3780.353        2945.701
  22063944.787    22063944.3734   22063945.5094  115946817.579 8  90348190.21245
      3237.627        2522.827
  21500024.280    21500024.2604   21500023.7814  112983396.304 8  88039023.71645
      -238.761        -186.043
  22829852.187    22829852.0364   22829852.5244  119971714.214 7  93484459.47144
      2507.670        1954.015
  22973372.876    22973372.5114   22973370.8514  120725881.811 7  94072129.40145
     -2386.883       -1859.897
  24765274.896    24765279.5064   24765276.5224  130142379.974 4 101409659.61241
     -2696.788       -2101.295
  25347649.618    25347648.4634   25347651.9954  133202808.739 6 103794400.11242
      3859.267        3007.177
 06  5 11 14 14 30.0000000  0 10G 2G 4G 6G 7G10G13G16G23G25G27
  21790572.819    21790572.8284   21790571.2094  114510230.251 8  89228759.08246
     -1993.336       -1553.259
  24270631.243    24270631.6674   24270633.3214  127543015.446 6  99384179.47043
     -3268.622       -2546.957
  21687223.929    21687223.9564   21687224.1694  113967131.405 8  88805571.50745
       719.511         560.648
  24435632.467    24435632.2794   24435633.9704  128410122.847 5 100059844.51341
      3773.063        2940.002
  22045503.924    22045503.2324   22045505.0974  115849909.551 7  90272677.39445
      3222.083        2510.715
  21501448.566    21501448.8334   21501448.3314  112990880.690 8  88044855.79345
      -260.896        -203.304
  22815584.546    22815583.9834   22815584.2034  119896734.823 7  93426034.09144
      2490.207        1940.403
  22987036.460    22987036.9334   22987035.1284  120797687.295 7  94128081.70444
     -2401.029       -1870.938
  24780690.974    24780691.0344   24780694.2494  130223388.765 4 101472783.30841
     -2704.469       -2107.415
  25325625.893    25325625.7774   25325629.0924  133087078.612 6 103704220.89942
      3855.330        3004.168
 06  5 11 14 15  0.0000000  0 10G 2G 4G 6G 7G10G13G16G23G25G27
  21801995.787    21801995.7474   21801994.1644  114570259.219 8  89275534.88546
     -2008.875       -1565.355
  24289298.034    24289303.2374   24289304.3324  127641133.183 6  99460634.74443
     -3273.086       -2550.443
  21683167.281    21683167.1254   21683168.1454  113945815.576 7  88788961.79645
       701.280         546.433
  24414106.964    24414106.9074   24414108.7064  128297009.001 6  99971703.96841
      3766.980        2935.233
  22027148.692    22027147.8104   22027149.3874  115753452.414 7  90197515.95745
      3208.047        2499.775
  21502995.897    21502996.1464   21502994.8624  112999009.160 8  88051189.73945
      -281.370        -219.248
  22801413.016    22801413.0174   22801412.8174  119822264.129 7  93368004.94144
      2474.113        1927.860
  23000780.229    23000779.0004   23000777.1704  120869902.516 7  94184353.26844
     -2413.715       -1880.817
  24796147.779    24796144.6304   24796146.6454  130304613.566 4 101536075.29041
     -2710.199       -2111.813
  25303624.171    25303623.4904   25303626.3724  132971457.286 5 103614126.75542
      3852.265        3001.733
 06  5 11 14 15 30.0000000  0 10G 2G 4G 6G 7G10G13G16G23G25G27
  21813513.107    21813512.7334   21813510.9804  114630780.352 8  89322694.18345
     -2025.628       -1578.412
  24307999.760    24308001.1454   24308002.0944  127739391.865 6  99537200.02143
     -3277.608       -2553.973
  21679221.512    21679221.4214   21679221.7544  113925078.314 7  88772802.92045
       681.640         531.147
  24392621.442    24392620.4214   24392621.9724  128184102.526 5  99883724.98341
      3759.910        2929.819
  22008879.483    22008878.9634   22008880.6374  115657448.712 8  90122707.76145
      3192.531        2487.685
  21504664.873    21504664.7554   21504663.6944  113007781.260 8  88058025.21445
      -303.236        -236.287
  22787338.977    22787338.8294   22787338.7544  119748304.811 7  93310374.28944
      2456.893        1914.472
  23014599.240    23014598.7974   23014596.4984  120942525.075 7  94240942.28744
     -2427.545       -1891.604
  24811645.241    24811645.5464   24811638.4634  130386052.615 4 101599534.37641
     -2718.110       -2118.071
  25281643.155    25281642.4094   25281645.8864  132855946.888 6 103524119.15842
      3848.468        2998.835
 06  5 11 14 16  0.0000000  0 10G 2G 4G 6G 7G10G13G16G23G25G27
  21825122.972    21825122.8034   21825121.5344  114691793.604 8  89370237.01645
     -2042.063       -1591.210
  24326726.460    24326726.4554   24326727.0284  127837791.059 7  99613874.71943
     -3282.555       -2557.840
  21675385.368    21675385.1524   21675385.9194  113904921.933 7  88757096.68345
       662.044         515.878
  24371176.189    24371176.3834   24371177.5244  128071407.455 6  99795910.62541
      3753.003        2924.439
  21990698.301    21990697.2934   21990698.6354  115561903.496 8  90048257.00745
      3177.031        2475.598
  21506455.535    21506456.1584   21506455.8514  113017197.945 8  88065362.96645
      -324.803        -253.106
  22773363.139    22773362.7514   22773362.8794  119674860.709 7  93253145.14744
      2439.333        1900.776
  23028496.207    23028496.1024   23028493.7074  121015554.286 7  94297848.15644
     -2441.229       -1902.269
  24827183.543    24827184.3464   24827181.4114  130467704.952 4 101663159.50941
     -2725.545       -2123.861
  25259683.687    25259684.1304   25259685.9504  132740550.520 6 103434199.82943
      3844.549        2995.761
 06  5 11 14 16 30.0000000  0 10G 2G 4G 6G 7G10G13G16G23G25G27
  21836828.462    21836828.2854   21836826.7104  114753305.201 8  89418168.25245
     -2059.121       -1604.512
  24345479.754    24345478.9114   24345479.8274  127936336.546 6  99690663.20543
     -3287.461       -2561.652
  21671662.011    21671662.1204   21671662.6974  113885355.046 7  88741849.73445
       642.060         500.313
  24349774.419    24349773.6044   24349775.1704  127958935.307 6  99708270.14741
      3745.142        2918.229
  21972606.027    21972605.0764   21972606.0324  115466827.137 7  89974171.75045
      3161.020        2463.119
  21508372.652    21508372.7824   21508371.9694  113027266.696 8  88073208.80145
      -346.867        -270.288
  22759487.427    22759486.7654   22759487.1354  119601942.365 7  93196325.69944
      2421.414        1886.826
  23042471.602    23042471.5094   23042469.2444  121088996.004 7  94355075.48744
     -2455.343       -1913.260
  24842761.794    24842766.8184   24842766.1094  130549576.989 4 101726955.98141
     -2733.534       -2129.990
  25237748.867    25237748.8494   25237751.8534  132625279.280 6 103344377.67943
      3840.075        2992.263
 06  5 11 14 17  0.0000000  0 10G 2G 4G 6G 7G10G13G16G23G25G27
  21848625.481    21848625.2914   21848623.9944  114815300.347 7  89466476.06745
     -2074.930       -1616.826
  24364257.154    24364257.0074   24364257.3804  128035015.008 6  99767555.47743
     -3291.932       -2565.167
  21668048.328    21668048.4354   21668048.9714  113866366.255 7  88727053.14345
       623.071         485.539
  24328411.166    24328410.4894   24328412.2954  127846676.326 6  99620795.60742
      3737.948        2912.684
  21954600.712    21954600.0374   21954601.1674  115372210.047 7  89900444.14945
      3145.763        2451.237
  21510410.398    21510410.2194   21510409.5404  113037974.937 8  88081552.90945
      -368.042        -286.798
  22745709.289    22745709.3464   22745709.4254  119529540.104 7  93139908.41144
      2404.445        1873.594
  23056523.431    23056522.7584   23056520.4924  121162836.184 7  94412613.28544
     -2468.380       -1923.412
  24858381.716    24858384.1984   24858383.6584  130631654.718 4 101790912.73741
     -2740.001       -2135.097
  25215836.198    25215835.8044   25215837.9334  132510127.338 6 103254649.66643
      3835.999        2989.057
 06  5 11 14 17 30.0000000  0 10G 2G 4G 6G 7G10G13G16G23G25G27
  21860515.929    21860515.8424   21860514.3344  114877785.967 8  89515166.22746
     -2091.008       -1629.350
  24383059.056    24383061.5344   24383062.5714  128133832.422 6  99844556.02043
     -3296.147       -2568.377
  21664547.184    21664546.9394   21664547.4724  113847964.812 7  88712714.24645
       603.511         470.296
  24307092.287    24307090.8314   24307093.9454  127734641.824 6  99533496.03242
      3730.595        2906.952
  21936684.780    21936684.1044   21936685.7574  115278063.576 8  89827083.31445
      3130.318        2439.224
  21512570.734    21512570.7764   21512570.2704  113049330.414 8  88090401.33445
      -389.216        -303.277
  22732031.669    22732031.6294   22732031.6344  119457664.549 7  93083901.53144
      2387.087        1860.054
  23070651.030    23070650.9104   23070648.7824  121237080.765 7  94470466.19144
     -2481.608       -1933.718
  24874041.979                                   130713943.794 4
     -2746.965
  25193946.985    25193946.3584   25193948.4074  132395102.568 6 103165020.56243
      3832.225        2986.175
 06  5 11 14 18  0.0000000  0 10G 2G 4G 6G 7G10G13G16G23G25G27
  21872498.884    21872498.5924   21872496.7474  114940753.018 8  89564231.44745
     -2107.411       -1642.126
  24401888.421    24401889.8214   24401892.0954  128232780.014 6  99921658.00843
     -3301.072       -2572.253
  21661155.758    21661155.7634   21661156.4234  113830143.740 7  88698827.51145
       583.806         454.924
  24285814.558    24285814.4774   24285816.4974  127622827.337 6  99446367.94742
      3723.063        2901.055
  21918858.241    21918857.5324   21918858.6964  115184383.371 8  89754085.83245
      3114.347        2426.778
  21514853.157    21514853.1914   21514852.4224  113061325.183 8  88099747.89845
      -410.957        -320.209
  22718454.094    22718453.6354   22718453.6154  119386311.206 7  93028301.57444
      2369.274        1846.196
  23084854.571    23084854.4064   23084852.0674  121311720.377 7  94528626.90644
     -2494.881       -1944.048
  24889739.610                                   130796435.329 4
     -2753.076
  25172081.493    25172081.5244   25172084.6964  132280199.725 6 103075485.90042
      3827.340        2982.315
 06  5 11 14 18 30.0000000  0 10G 2G 4G 6G 7G10G13G16G23G25G27
  21884572.602    21884572.9594   21884571.1044  115004206.194 8  89613675.49545
     -2123.478       -1654.659
  24420747.475    24420745.1454   24420746.7494  128331861.777 7  99998864.26143
     -3305.284       -2575.570
  21657876.556    21657876.3934   21657877.3284  113812910.453 7  88685398.84445
       564.201         439.651
  24264579.482    24264579.4874   24264581.8744  127511242.237 6  99359418.57142
      3715.081        2894.823
  21901121.656    21901120.9584   21901122.3264  115091179.052 8  89681459.33545
      3098.510        2414.383
  21517259.656    21517259.4554   21517257.9194  113073965.213 8  88109597.24345
      -432.384        -336.913
  22704976.939    22704976.3104   22704976.4394  119315488.806 7  92973115.35344
      2351.484        1832.311
  23099134.268    23099133.9714   23099131.6264  121386759.461 7  94587098.90344
     -2508.263       -1954.487
  24905477.626                                   130879134.179 3
     -2760.065
  25150240.799    25150241.1724   25150242.7134  132165429.635 6 102986054.83842
      3823.240        2979.131
 06  5 11 14 19  0.0000000  0 10G 2G 4G 6G 7G10G13G16G23G25G27
  21896740.398    21896740.2524   21896738.9894  115068145.592 7  89663498.35445
     -2139.458       -1667.105
  24439627.706    24439625.2414   24439626.7284  128431079.644 7 100076176.89443
     -3309.460       -2578.796
  21654709.550    21654709.6214   21654710.4044  113796268.360 7  88672431.00545
       544.727         424.454
  24243390.818    24243390.1204   24243392.8834  127399891.819 6  99272652.07542
      3707.372        2888.876
  21883476.698    21883475.9254   21883477.5494  114998455.059 8  89609206.97945
      3082.643        2402.058
  21519788.239    21519787.8754   21519786.6634  113087252.691 8  88119951.08045
      -453.763        -353.592
  22691601.564    22691601.0334   22691601.0774  119245201.951 7  92918346.40344
      2333.907        1818.628
  23113489.785    23113489.5774   23113487.2904  121462197.859 7  94645882.04744
     -2521.186       -1964.558
  24921255.631                                   130962040.913 3
     -2767.225
  25128427.539    25128427.2654   25128428.9134  132050797.363 6 102896731.36242
      3818.496        2975.506
 06  5 11 14 19 30.0000000  0 10G 2G 4G 6G 7G10G13G16G23G25G27
  21908997.758    21908997.5614   21908996.3144  115132558.596 8  89713690.28045
     -2155.412       -1679.559
  24458527.749    24458528.6934   24458529.6194  128530419.338 6 100153584.25443
     -3314.104       -2582.490
  21651653.603    21651653.2104   21651654.3644  113780205.337 8  88659913.88045
       525.215         409.258
  24222244.920    24222244.0074   24222245.8964  127288767.521 6  99186061.78142
      3699.848        2882.994
  21865921.738    21865921.1404   21865922.6344  114906203.144 8  89537322.45745
      3066.734        2389.649
  21522436.583    21522436.9484   21522436.6204  113101175.625 8  88130800.09145
      -475.166        -370.270
  22678326.219    22678326.1354   22678325.9744  119175441.898 7  92863987.96844
      2316.033        1804.696
  23127918.533    23127918.2544   23127915.4644  121538022.281 7  94704966.02244
     -2534.311       -1974.824
  24937064.380                                   131045141.708 3
     -2775.296
  25106637.747    25106637.7224   25106639.2514  131936294.206 6 102807508.31842
      3814.050        2972.002
 06  5 11 14 20  0.0000000  0 10G 2G 4G 6G 7G10G13G16G23G25G27
  21921344.948    21921344.8174   21921342.9324  115197441.997 8  89764248.75045
     -2170.627       -1691.402
  24477455.871    24477455.5094   24477457.4974  128629878.712 6 100231084.97043
     -3317.269       -2584.907
  21648707.291    21648707.0804   21648707.9254  113764722.967 7  88647849.64445
       506.420         394.611
  24201141.194    24201140.8694   24201143.1594  127177871.323 6  99099649.29342
      3692.513        2877.299
  21848457.542    21848456.7224   21848458.1084  114814425.126 8  89465807.00045
      3051.371        2377.691
  21525206.882    21525207.2304   21525206.4654  113115732.179 8  88142142.84545
      -495.860        -386.396
  22665152.259    22665151.6934   22665152.2144  119106210.334 7  92810041.33844
      2298.893        1791.338
  23142420.407    23142419.9274   23142417.6344  121614229.677 7  94764348.42544
     -2546.695       -1984.448
  24952911.830                                   131128433.471 2
     -2779.123
  25084874.136    25084873.0114   25084875.2444  131821922.414 6 102718387.74243
      3810.056        2968.905
 06  5 11 14 20 30.0000000  0 10G 2G 4G 6G 7G10G13G16G23G25G27
  21933780.950    21933780.4324   21933778.7514  115262791.371 7  89815170.36345
     -2186.465       -1703.740
  24496402.839    24496404.7034   24496405.4044  128729452.757 6 100308675.07143
     -3321.450       -2588.143
  21645870.920    21645871.0724   21645872.0284  113749817.415 7  88636234.63745
       486.653         379.207
  24180082.405    24180080.9044   24180084.3784  127067202.941 6  99013414.19642
      3684.573        2871.059
  21831082.455    21831081.9814   21831083.7474  114723121.117 8  89394661.00345
      3035.019        2364.936
  21528097.751    21528097.4964   21528096.6894  113130918.954 8  88153976.65945
      -517.126        -402.968
  22652078.355    22652077.9744   22652078.3124  119037506.310 7  92756505.74744
      2280.901        1777.342
  23156994.480    23156993.7374   23156991.2554  121690814.965 7  94824025.26144
     -2559.611       -1994.503
  24968802.467                                   131211912.887 3
     -2786.274
  25063134.710    25063133.7524   25063135.8964  131707681.081 6 102629368.49143
      3805.428        2965.264
 06  5 11 14 21  0.0000000  0 10G 2G 4G 6G 7G10G13G16G23G25G27
  21946305.315    21946305.2894   21946304.1024  115328612.762 8  89866459.81945
     -2201.614       -1715.532
  24515372.264    24515375.4744   24515376.7514  128829147.574 6 100386359.09643
     -3324.810       -2590.744
  21643146.712    21643146.2004   21643147.2484  113735498.544 7  88625077.08145
       467.880         364.601
  24159068.087    24159067.3924   24159069.7524  126956773.617 6  98927365.50743
      3677.188        2865.306
  21813800.007    21813799.2914   21813800.9794  114632302.175 7  89323893.11245
      3019.498        2352.862
  21531107.872    21531108.0464   21531107.6084  113146743.421 8  88166307.38445
      -537.752        -419.031
  22639107.238    22639106.6334   22639106.6254  118969340.601 7  92703389.71045
      2263.455        1763.729
  23171640.618    23171640.2284   23171638.0034  121767784.103 7  94884001.21344
     -2571.708       -2003.908
  24984721.523                                   131295584.533 3
     -2792.253
  25041420.986    25041421.0804   25041422.8004  131593581.916 6 102540460.07242
      3801.073        2961.868
 06  5 11 14 21 30.0000000  0  9G 2G 4G 6G 7G10G13G16G23G27
  21958920.417    21958920.2304   21958918.8804  115394904.116 8  89918115.37945
     -2217.589       -1727.982
  24534370.192    24534370.1134   24534371.0514  128928962.988 6 100464137.19943
     -3329.161       -2594.130
  21640533.103    21640533.2014   21640534.2974  113721766.047 7  88614375.79345
       447.660         348.799
  24138100.316    24138099.7434   24138101.2884  126846586.820 6  98841505.76343
      3668.698        2858.732
  21796610.670    21796609.9654   21796611.4444  114541971.628 7  89253505.83545
      3002.681        2339.742
  21534240.472    21534240.8154   21534240.2224  113163205.549 8  88179134.99845
      -559.452        -435.950
  22626238.273    22626237.9134   22626237.7834  118901716.324 7  92650695.53744
      2245.043        1749.388
  23186359.793    23186359.7284   23186358.2184  121845135.487 7  94944275.01144
     -2584.735       -2014.084
  25019737.027    25019737.0374   25019739.3594  131479628.076 6 102451664.83942
      3795.960        2957.899
 06  5 11 14 22  0.0000000  0  9G 2G 4G 6G 7G10G13G16G23G27
  21971625.647    21971625.6004   21971623.8434  115461669.428 8  89970140.27045
     -2233.372       -1740.283
  24553390.016    24553387.9764   24553389.3324  129028901.182 6 100542010.85742
     -3333.274       -2597.370
  21638033.191    21638033.3064   21638034.6194  113708627.621 7  88604138.23045
       427.894         333.447
  24117179.902    24117178.6884   24117181.5664  126736650.525 6  98755841.28043
      3660.249        2852.153
  21779516.051    21779515.1284   21779516.3344  114452136.660 8  89183504.53845
      2986.216        2326.931
  21537495.274    21537495.7194   21537494.9084  113180309.405 8  88192462.65745
      -580.716        -452.487
  22613473.913    22613473.9154   22613473.6824  118834640.555 7  92598428.80144
      2226.746        1735.146
  23201153.056    23201152.5704   23201150.5844  121922871.775 7  95004848.73244
     -2597.522       -2024.047
  24998081.126    24998080.9884   24998082.4594  131365827.716 6 102362989.34942
      3790.725        2953.806
 06  5 11 14 22 30.0000000  0  9G 2G 4G 6G 7G10G13G16G23G27
  21984420.798    21984420.6994   21984419.2664  115528908.544 8  90022534.40945
     -2249.301       -1752.693
  24572431.505    24572428.7024   24572430.5244  129128962.405 6 100619980.42043
     -3337.494       -2600.654
  21635645.672    21635645.6034   21635646.9724  113696084.785 7  88594365.02545
       408.003         317.915
  24096307.604    24096307.6074   24096309.9174  126626968.635 6  98670374.94343
      3651.633        2845.417
  21762515.988    21762515.3514   21762516.6204  114362802.507 8  89113893.69345
      2969.354        2313.777
  21540872.762    21540873.0044   21540871.8304  113198056.123 8  88206291.25145
      -602.250        -469.290
  22600815.235    22600814.7144   22600814.7234  118768117.190 7  92546592.47144
      2208.107        1720.609
  23216018.818    23216018.4864   23216016.6454  122000992.447 7  95065721.98044
     -2610.458       -2034.124
  24976456.212    24976455.6364   24976457.4724  131252185.072 6 102274436.76743
      3785.351        2949.575
 06  5 11 14 23  0.0000000  0  9G 2G 4G 6G 7G10G13G16G23G27
  21997302.597    21997302.4644   21997301.2394  115596604.415 8  90075284.45345
     -2264.646       -1764.651
  24591487.994    24591489.2744   24591492.9274  129229130.753 5 100698033.57643
     -3341.357       -2603.644
  21633369.625    21633369.4374   21633370.4254  113684122.988 7  88585044.60745
       388.481         302.694
  24075482.298    24075482.3244   24075484.4754  126517530.122 6  98585098.31343
      3643.458        2839.033
  21745609.234    21745608.5124   21745609.6404  114273956.728 8  89044663.27245
      2952.801        2300.884
  21544369.354    21544369.4464   21544368.3814  113216430.414 8  88220608.86345
      -623.432        -485.789
  22588258.478    22588258.2364   22588258.4174  118702134.009 7  92495177.09744
      2189.832        1706.365
  23230954.815    23230954.2834   23230951.8664  122079480.767 7  95126881.70244
     -2622.879       -2043.811
  24954858.006    24954857.9204   24954859.1474  131138688.318 6 102185997.90443
      3780.045        2945.474
 06  5 11 14 23 30.0000000  0  9G 2G 4G 6G 7G10G13G16G23G27
  22010272.718    22010272.4704   22010270.9544  115664761.949 8  90128394.19545
     -2279.865       -1776.506
  24610567.720    24610573.5814   24610576.7504  129329410.746 6 100776173.67942
     -3344.994       -2606.439
  21631204.212    21631204.2804   21631205.8944  113672748.953 7  88576181.95445
       369.194         287.686
  24054705.047    24054705.2214   24054706.4074  126408344.348 7  98500018.53643
      3634.904        2832.366
  21728797.191    21728796.5134   21728797.7714  114185608.855 8  88975820.78945
      2936.396        2288.097
  21547986.443    21547986.4574   21547985.8014  113235438.261 8  88235420.13145
      -644.483        -502.211
  22575806.938    22575806.7394   22575806.6534  118636700.293 7  92444189.86244
      2171.642        1692.178
  23245960.883    23245960.2274   23245958.7444  122158341.575 7  95188331.68444
     -2635.148       -2053.357
  24933290.506    24933289.7334   24933291.7244  131025346.812 6 102097679.82643
      3775.127        2941.665
 06  5 11 14 24  0.0000000  0  9G 2G 4G 6G 7G10G13G16G23G27
  22023329.538    22023329.6184   22023328.1054  115733377.093 7  90181860.57745
     -2294.907       -1788.248
  24629676.764    24629676.1904   24629678.6424  129429798.523 6 100854397.85742
     -3348.278       -2609.050
  21629152.332    21629151.6514   21629153.0014  113661960.370 7  88567775.13645
       349.759         272.551
  24033976.392    24033975.4814   24033977.8984  126299411.651 7  98415135.97143
      3626.607        2825.926
  21712080.321    21712079.0174   21712080.3934  114097759.108 8  88907366.37245
      2919.833        2275.187
  21551723.331    21551723.6114   21551723.0234  113255076.516 8  88250722.65145
      -665.192        -518.340
  22563459.763    22563459.2804   22563459.3684  118571815.604 7  92393630.41244
      2153.561        1678.109
  23261037.802    23261037.7204   23261035.4454  122237569.944 7  95250068.04644
     -2647.260       -2062.805
  24911750.656    24911750.4294   24911752.9214  130912161.537 6 102009483.64443
      3770.093        2937.713
 06  5 11 14 24 30.0000000  0  9G 2G 4G 6G 7G10G13G16G23G27
  22036473.591    22036473.5754   22036471.6464  115802447.989 7  90235682.16245
     -2310.224       -1800.183
  24648800.193    24648799.5704   24648801.4474  129530293.061 6 100932705.42142
     -3351.753       -2611.762
  21627210.732    21627210.4484   21627211.6264  113651759.312 7  88559826.30245
       330.079         257.189
  24013295.921    24013295.2484   24013296.5284  126190735.866 7  98330453.72743
      3617.945        2819.175
  21695457.763    21695457.0714   21695458.6674  114010411.622 8  88839303.55545
      2902.936        2262.034
  21555579.468    21555580.1424   21555579.9414  113275344.770 8  88266516.10245
      -686.325        -534.805
  22551218.124    22551217.5244   22551217.1954  118507482.745 7  92343500.91644
      2134.969        1663.621
  23276184.661    23276183.7054   23276182.1404  122317164.382 7  95312089.67844
     -2659.282       -2072.160
  24890242.259    24890242.8044   24890244.2704  130799136.054 6 101921411.90343
      3764.540        2933.428
 06  5 11 14 25  0.0000000  0  9G 2G 4G 6G 7G10G13G16G23G27
  22049703.201    22049703.1114   22049701.1384  115871970.435 8  90289855.61245
     -2324.962       -1811.665
  24667945.009    24667943.3124   24667945.4274  129630888.982 6 101011091.62042
     -3354.744       -2614.064
  21625380.676    21625380.7324   21625382.2214  113642143.009 7  88552333.06745
       310.694         242.087
  23992663.702    23992663.2584   23992664.5794  126082316.505 7  98245971.08443
      3609.561        2812.633
  21678932.184    21678931.3424   21678932.5304  113923565.364 8  88771631.03645
      2886.481        2249.201
  21559556.073    21559556.2114   21559556.1764  113296239.606 8  88282797.77145
      -706.864        -550.814
  22539080.717    22539080.3454   22539080.1404  118443701.765 7  92293801.46545
      2116.770        1649.408
  23291399.297    23291399.0634   23291396.8584  122397119.850 7  95374392.59544
     -2671.258       -2081.494
  24868765.422    24868765.4394   24868767.3734  130686270.083 6 101833464.46943
      3759.448        2929.423
 06  5 11 14 25 30.0000000  0  9G 2G 4G 6G 7G10G13G16G23G27
  22063017.658    22063017.5294   22063015.5434  115941939.194 7  90344376.72745
     -2340.350       -1823.646
  24687104.545    24687103.9864   24687106.4174  129731582.609 6 101089554.05542
     -3358.531       -2617.008
  21623661.593    21623661.8154   21623662.6234  113633109.198 7  88545293.71045
       290.849         226.646
  23972081.077    23972080.6854   23972082.1564  125974154.183 7  98161688.81944
      3600.399        2805.519
  21662501.706    21662500.7724   21662501.6834  113837220.659 8  88704349.38045
      2869.256        2235.787
  21563651.383    21563651.5024   21563650.6814  113317757.709 8  88299565.11345
      -728.159        -567.398
  22527048.252    22527047.9774   22527048.1734  118380471.442 7  92244531.08944
      2097.910        1634.738
  23306681.934    23306681.5164   23306678.9384  122477431.168 7  95436972.81244
     -2683.508       -2091.069
  24847318.298    24847318.4614   24847319.6514  130573563.422 6 101745641.09443
      3753.472        2924.795
 06  5 11 14 26  0.0000000  0  9G 2G 4G 6G 7G10G13G16G23G27
  22076417.320    22076416.8974   22076415.2354  116012354.702 8  90399246.02145
     -2354.896       -1834.993
  24706281.130    24706282.9904   24706288.4794  129832374.346 6 101168093.05842
     -3361.637       -2619.460
  21622053.631    21622053.7324   21622055.2924  113624660.286 7  88538710.11945
       271.609         211.641
  23951548.353    23951548.4114   23951549.6144  125866253.817 7  98077610.70844
      3591.965        2798.931
  21646167.249    21646166.2344   21646167.2764  113751382.436 8  88637462.35745
      2852.497        2222.708
  21567865.638    21567865.2984   21567863.8984  113339899.735 8  88316818.61045
      -748.714        -583.412
  22515121.475    22515121.2344   22515120.9054  118317796.422 7  92195693.43245
      2079.574        1620.432
  23322032.757    23322032.7384   23322030.4134  122558098.830 7  95499830.72844
     -2695.165       -2100.139
  24825903.054    24825901.6564   24825903.1874  130461021.313 6 101657945.93143
      3748.359        2920.802
 06  5 11 14 26 30.0000000  0  9G 2G 4G 6G 7G10G13G16G23G27
  22089902.465    22089902.8164   22089900.7064  116083222.892 7  90454468.09245
     -2369.472       -1846.345
  24725483.595    24725483.0664   24725487.1924  129933270.049 6 101246713.25042
     -3364.539       -2621.721
  21620558.965    21620558.8854   21620560.2054  113616804.850 7  88532589.13945
       252.260         196.576
  23931067.425    23931067.1534   23931068.8484  125758625.825 7  97993744.81444
      3583.375        2792.245
  21629930.687    21629930.0264   21629930.9044  113666061.199 8  88570978.28445
      2835.728        2209.644
  21572198.150    21572198.6194   21572197.5284  113362672.818 8  88334563.84845
      -769.292        -599.432
  22503302.509    22503302.2154   22503301.7354  118255686.656 7  92147296.21944
      2061.279        1606.185
  23337452.737    23337451.7984   23337449.4824  122639127.814 6  95562970.16644
     -2706.568       -2109.017
  24804520.294    24804519.2604   24804520.3444  130348654.310 6 101570387.32343
      3742.857        2916.467
 06  5 11 14 27  0.0000000  0  9G 2G 4G 6G 7G10G13G16G23G27
  22103470.896    22103470.4694   22103468.6174  116154520.668 8  90510024.78945
     -2383.827       -1857.520
  24744699.232    24744698.8254   24744701.1464  130034246.621 6 101325396.04242
     -3367.181       -2623.757
  21619172.946    21619173.0184   21619174.3114  113609521.720 7  88526913.77445
       233.185         181.715
  23910634.781    23910634.5234   23910636.2224  125651252.668 7  97910077.44944
      3574.794        2785.545
  21613789.419    21613788.7644   21613789.7974  113581238.907 8  88504883.07545
      2819.025        2196.680
  21576647.963    21576648.0164   21576647.0784  113386055.511 8  88352784.11345
      -789.677        -615.325
  22491587.621    22491587.4674   22491587.0634  118194123.764 7  92099325.16744
      2042.841        1591.814
  23352936.057    23352935.6004   23352933.2494  122720495.599 7  95626373.62444
     -2718.007       -2117.908
  24783166.456    24783166.3744   24783168.0374  130236444.962 6 101482951.56943
      3737.701        2912.499
 06  5 11 14 27 30.0000000  0  9G 2G 4G 6G 7G10G13G16G23G27
  22117121.187    22117121.1574   22117119.1064  116226254.652 8  90565921.41045
     -2398.648       -1869.065
  24763931.349    24763931.0074   24763933.4404  130135312.095 6 101404148.47942
     -3370.515       -2626.359
  21617898.366    21617898.0894   21617899.4464  113602820.370 7  88521691.97645
       213.290         166.195
  23890252.908    23890252.4774   23890254.7524  125544145.327 6  97826617.23344
      3565.408        2778.236
  21597744.868    21597744.2794   21597745.8924  113496926.294 7  88439185.01945
      2801.600        2183.064
  21581214.696    21581214.9364   21581214.8504  113410054.883 8  88371484.93645
      -810.557        -631.605
  22479978.856    22479978.3714   22479978.0754  118133118.066 7  92051788.24944
      2023.893        1577.043
  23368485.449    23368484.9024   23368482.6194  122802208.262 7  95690045.79044
     -2729.785       -2127.102
  24761845.609    24761845.9654   24761847.2964  130124403.987 6 101395646.93543
      3731.423        2907.614
 06  5 11 14 28  0.0000000  0  9G 2G 4G 6G 7G10G13G16G23G27
  22130854.711    22130854.4994   22130852.8564  116298425.444 7  90622158.28145
     -2413.127       -1880.362
  24783182.342    24783180.6394   24783183.2104  130236466.423 6 101482969.84042
     -3373.548       -2628.773
  21616734.455    21616734.1444   21616735.0774  113596703.803 8  88516925.85745
       193.894         151.095
  23869922.872    23869922.2404   23869924.5314  125437309.818 7  97743368.78544
      3556.492        2771.307
  21581798.886    21581798.4164   21581799.5854  113413129.029 8  88373888.57345
      2784.451        2169.688
  21585899.330    21585899.4414   21585899.5384  113434673.315 8  88390668.17045
      -831.165        -647.664
  22468476.678    22468476.2484   22468475.7484  118072674.766 7  92004689.58144
      2005.138        1562.426
  23384101.129    23384100.9284   23384097.9384  122884266.760 7  95753987.44644
     -2741.333       -2136.126
  24740558.989    24740557.6224   24740559.9084  130012537.501 6 101308478.29343
      3725.780        2903.197
 06  5 11 14 28 30.0000000  0  9G 2G 4G 6G 7G10G13G16G23G27
  22144668.380    22144667.9064   22144666.0064  116371015.618 7  90678722.03945
     -2426.848       -1891.058
  24802445.172    24802444.0374   24802446.1074  130337692.809 6 101561847.46742
     -3375.420       -2630.206
  21615678.789    21615678.6884   21615679.4114  113591156.019 7  88512602.82945
       175.294         136.594
  23849642.155    23849641.5794   23849642.9774  125330732.908 7  97660321.86143
      3548.118        2764.755
  21565948.594    21565947.8594   21565949.1284  113329834.013 8  88308983.49145
      2767.938        2156.813
  21590698.378    21590698.7304   21590698.6994  113459893.915 8  88410320.59245
      -850.844        -663.020
  22457078.850    22457078.6064   22457078.2794  118012779.995 7  91958018.24844
      1987.301        1548.521
  23399778.050    23399777.8284   23399775.7854  122966652.516 7  95818184.12344
     -2751.805       -2144.293
  24719302.977    24719300.7904   24719303.2094  129900832.070 6 101221435.15543
      3720.601        2899.155
 06  5 11 14 29  0.0000000  0  9G 2G 4G 6G 7G10G13G16G23G27
  22458352.415    22458352.4504   22458350.9614  118019439.294 7  91963208.00045
     -2440.459       -1901.670
  25121512.223    25121511.5174   25121513.4684  132014404.776 6 102868376.23342
     -3377.660       -2631.933
  21914523.189    21914523.2794   21914524.5874  115161596.505 8  89736322.64645
       156.519         121.953
  24129203.699    24129203.2214   24129204.5644  126799839.802 7  98805080.50444
      3539.347        2757.919
  21849986.693    21849985.7424   21849987.1394  114822464.970 8  89472072.61845
      2751.215        2143.788
  21895404.735    21895404.8274   21895403.9514  115061133.334 8  89658039.62545
      -870.722        -678.484
  22745578.780    22745578.2274   22745578.5034  119528856.676 7  93139376.71344
      1968.929        1534.238
  23715309.358    23715309.0694   23715306.4094  124624779.313 6  97110230.95744
     -2762.438       -2152.546
  24997868.925    24997868.8714   24997870.4234  131364713.397 6 102362122.04743
      3715.158        2894.913
 06  5 11 14 29 30.0000000  0  9G 2G 4G 6G 7G10G13G16G23G27
  22472324.261    22472323.9494   22472322.7164  118092860.298 8  92020419.14645
     -2454.078       -1912.267
  25140796.314    25140798.8234   25140802.9404  132115768.098 5 102947360.51942
     -3380.023       -2633.834
  21913683.935    21913684.0494   21913684.9464  115157186.257 7  89732886.11745
       137.851         107.416
  24109022.768    24109022.5284   24109023.1324  126693787.450 7  98722442.37244
      3530.814        2751.275
  21834328.012    21834327.2874   21834328.9564  114740180.009 8  89407954.45945
      2734.563        2130.830
  21900432.327    21900432.5194   21900431.6044  115087553.371 8  89678626.63345
      -890.510        -693.888
  22734391.154    22734390.5734   22734390.4254  119470063.828 7  93093564.11344
      1950.695        1520.033
  23731109.558    23731108.9454   23731106.6754  124707811.814 6  97174931.59843
     -2773.039       -2160.802
  24976673.776    24976674.8034   24976675.8814  131253337.746 6 102275335.87143
      3709.868        2890.798
 06  5 11 14 30  0.0000000  0  9G 2G 4G 6G 7G10G13G16G23G27
  22486374.631    22486374.1024   22486372.8234  118166693.500 8  92077951.50545
     -2468.552       -1923.572
  25160096.348    25160101.2234   25160103.7904  132217197.446 6 103026396.36642
     -3382.946       -2636.090
  21912953.106    21912953.1664   21912953.9274  115153344.756 7  89729892.70445
       118.100          92.022
  24088892.637    24088891.8134   24088893.0234  126588001.348 7  98640011.68144
      3521.084        2743.686
  21818767.115    21818766.1944   21818767.2584  114658403.768 8  89344232.58745
      2716.633        2116.841
  21905573.843    21905573.9044   21905572.8914  115114571.549 8  89699679.75245
      -911.230        -710.066
  22723308.406    22723308.1374   22723307.6054  119411824.792 7  93048183.03244
      1931.388        1504.956
  23746970.997    23746970.0544   23746969.0184  124791164.109 6  97239881.41444
     -2784.459       -2169.719
  24955512.902    24955512.8374   24955513.7124  131142130.943 6 102188681.26743
      3703.463        2885.806
 06  5 11 14 30 30.0000000  0  9G 2G 4G 6G 7G10G13G16G23G27
  22500503.448    22500503.4684   22500502.1924  118240942.909 7  92135808.11645
     -2482.063       -1934.085
  25179420.154    25179417.0024   25179419.9954  132318697.173 6 103105487.09142
     -3384.441       -2637.280
  21912331.490    21912331.5974   21912332.5544  115150078.369 7  89727347.44345
        99.116          77.226
  24068814.422    24068813.8314   24068815.3634  126482490.610 7  98557795.55644
      3512.265        2736.849
  21803304.109    21803303.1104   21803304.0694  114577145.347 8  89280914.34045
      2699.794        2103.718
  21910830.120    21910830.2484   21910829.3204  115142192.917 8  89721202.87145
      -930.906        -725.376
  22712332.591    22712332.3914   22712332.5174  119354147.742 7  93003239.85645
      1913.013        1490.663
  23762893.779    23762893.2634   23762890.8904  124874840.109 6  97305083.45443
     -2794.641       -2177.661
  24934385.139    24934383.8744   24934385.8864  131031101.846 6 102102165.13143
      3697.943        2881.527
 06  5 11 14 31  0.0000000  0  9G 2G 4G 6G 7G10G13G16G23G27
  22514711.088    22514710.5594   22514709.7014  118315602.843 8  92193984.63845
     -2495.641       -1944.655
  25198742.790    25198742.0734   25198746.6824  132420261.847 6 103184628.40142
     -3386.577       -2638.876
  21911818.822    21911818.9524   21911819.5934  115147383.543 7  89725247.44645
        80.047          62.369
  24048788.527    24048787.9714   24048789.3974  126377254.323 7  98475793.26044
      3503.209        2729.774
  21787939.361    21787938.6614   21787939.5044  114496403.686 8  89217998.80045
      2682.499        2090.251
  21916199.896    21916200.1544   21916198.8064  115170412.859 8  89743192.38445
      -950.850        -740.914
  22701463.702    22701463.4954   22701463.1864  119297031.302 7  92958733.51744
      1894.265        1476.050
  23778877.995    23778876.9204   23778875.0444  124958833.922 7  97370533.17944
     -2805.183       -2185.838
  24913290.567    24913289.6374   24913291.0364  130920250.081 6 102015787.16143
      3691.808        2876.753
 06  5 11 14 31 30.0000000  0  9G 2G 4G 6G 7G10G13G16G23G27
  22528995.522    22528995.4864   22528994.2534  118390669.343 7  92252477.98445
     -2509.364       -1955.341
  25218080.785    25218081.4664   25218084.9024  132521887.586 5 103263817.31342
     -3388.935       -2640.724
  21911414.575    21911414.4214   21911415.7774  115145259.265 7  89723592.39245
        60.966          47.497
  24028814.631    24028814.5984   24028816.0064  126272293.636 7  98394005.71644
      3493.732        2722.392
  21772673.321    21772672.2124   21772673.2694  114416179.054 8  89155486.10745
      2665.082        2076.666
  21921683.658    21921683.7804   21921682.4044  115199227.806 8  89765645.53645
      -970.905        -756.547
  22690701.533    22690701.0894   22690701.1004  119240475.289 7  92914663.85544
      1875.541        1461.461
  23794920.297    23794920.1454   23794918.0874  125043141.325 7  97436227.22144
     -2815.783       -2194.111
  24892228.276    24892228.7494   24892231.2974  130809576.257 6 101929547.84343
      3685.674        2871.938
 06  5 11 14 32  0.0000000  0  9G 2G 4G 6G 7G10G13G16G23G27
  22543356.959    22543357.1764   22543355.8844  118466139.834 7  92311286.04245
     -2522.608       -1965.667
  25237437.489    25237433.4714   25237434.0724  132623572.435 6 103343052.19142
     -3390.783       -2642.169
  21911118.833    21911118.9334   21911119.8524  115143703.802 7  89722380.23146
        42.055          32.778
  24008894.497    24008894.3124   24008895.9474  126167610.575 7  98312434.45944
      3484.406        2715.134
  21757505.572    21757504.7854   21757506.0224  114336473.550 8  89093378.01745
      2647.957        2063.343
  21927279.948    21927280.1374   21927278.9114  115228636.656 7  89788561.44445
      -990.437        -771.782
  22680046.337    22680046.0564   22680045.9034  119184481.158 7  92871032.03644
      1856.809        1446.882
  23811023.422    23811022.7174   23811020.4414  125127759.819 7  97502163.68544
     -2826.136       -2202.180
  24871203.406    24871202.8664   24871204.8144  130699082.774 6 101843449.04243
      3679.706        2867.303
 06  5 11 14 32 30.0000000  0  9G 2G 4G 6G 7G10G13G16G23G27
  22557793.648    22557793.2334   22557791.7364  118542001.267 8  92370398.75745
     -2535.564       -1975.760
  25256798.082    25256794.3084   25256795.1644  132725303.193 7 103422322.65942
     -3391.876       -2643.074
  21910929.215    21910929.1864   21910930.0614  115142707.041 7  89721603.53846
        23.550          18.352
  23989025.722    23989024.9014   23989026.3694  126063197.112 7  98231073.34444
      3475.536        2708.191
  21742435.094    21742434.4414   21742435.8894  114257278.444 8  89031667.59745
      2630.853        2050.002
  21932986.788    21932987.0834   21932986.2584  115258627.054 8  89811930.50845
     -1009.734        -786.817
  22669496.001    22669495.6614   22669496.0084  119129039.899 7  92827831.04644
      1838.603        1432.661
  23827182.088    23827181.1714   23827179.8034  125212675.950 6  97568332.07643
     -2835.862       -2209.753
  24850210.024    24850209.5734   24850211.1554  130588761.314 7 101757484.32343
      3674.169        2862.965
 06  5 11 14 33  0.0000000  0  9G 2G 4G 6G 7G10G13G16G23G27
  22572304.059    22572303.8104   22572302.2174  118618254.760 7  92429816.92345
     -2548.710       -1986.020
  25276163.390    25276160.6314   25276164.0594  132827082.207 6 103501630.85642
     -3393.575       -2644.361
  21910846.439    21910846.4774   21910847.1354  115142272.401 7  89721264.89446
         4.832           3.757
  23969208.009    23969208.0034   23969209.4044  125959059.510 7  98149927.22444
      3466.396        2701.057
  21727463.275    21727462.2684   21727463.5574  114178599.617 8  88970359.46145
      2613.542        2036.505
  21938805.007    21938805.2104   21938804.1844  115289201.287 8  89835754.55045
     -1029.225        -802.023
  22659052.194    22659051.8724   22659052.0354  119074156.738 7  92785064.89644
      1819.722        1417.955
  23843397.861    23843397.5264   23843395.7344  125297890.577 7  97634733.04944
     -2845.906       -2217.609
  24829250.746    24829249.7724   24829251.3594  130478618.080 6 101671658.45043
      3667.919        2858.084
 06  5 11 14 33 30.0000000  0  9G 2G 4G 6G 7G10G13G16G23G27
  22586889.434    22586889.3744   22586887.9124  118694901.597 7  92489541.65645
     -2561.904       -1996.281
  25295536.727    25295535.9614   25295540.0314  132928910.950 6 103580977.79442
     -3395.612       -2645.888
  21910871.495    21910871.1554   21910872.1704  115142402.962 8  89721366.56545
       -14.283         -11.098
  23949444.655    23949444.9884   23949446.2494  125855203.621 7  98069000.53944
      3456.589        2693.466
  21712590.361    21712589.6684   21712590.7944  114100442.907 8  88909458.07845
      2595.995        2022.843
  21944734.302    21944734.7234   21944734.1034  115320361.860 8  89860035.55745
     -1048.974        -817.373
  22648715.270    22648715.1814   22648715.6654  119019837.263 7  92742737.97344
      1800.792        1403.207
  23859670.370    23859670.6914   23859667.8984  125383405.012 7  97701367.65944
     -2855.991       -2225.439
  24808324.558    24808325.0454   24808326.5134  130368659.255 6 101585976.25243
      3661.744        2853.311
 06  5 11 14 34  0.0000000  0  9G 2G 4G 6G 7G10G13G16G23G27
  22601549.143    22601549.2054   22601547.4554  118771938.136 7  92549570.02545
     -2574.584       -2006.172
  25314921.198    25314922.9114   25314923.2514  133030786.184 6 103660360.95542
     -3397.134       -2647.181
  21911003.300    21911003.2504   21911004.0574  115143097.322 8  89721907.42945
       -32.772         -25.562
  23929736.428    23929735.8404   23929737.6644  125751631.189 7  97988294.69844
      3447.506        2686.362
  21697817.316    21697816.5724   21697817.6594  114022809.487 8  88848964.42245
      2578.757        2009.413
  21950774.890    21950774.9614   21950774.4194  115352105.402 7  89884770.73645
     -1068.104        -832.292
  22638486.432    22638485.8314   22638485.8094  118966081.672 7  92700850.46444
      1782.256        1388.743
  23875999.830    23875999.6974   23875997.9234  125469215.438 7  97768232.92144
     -2865.440       -2232.797
  24787436.124    24787436.0504   24787437.4444  130258886.481 6 101500439.04943
      3655.599        2848.510
 06  5 11 14 34 30.0000000  0  9G 2G 4G 6G 7G10G13G16G23G27
  22616281.809    22616281.7724   22616280.2734  118849359.787 8  92609898.45445
     -2587.284       -2016.089
  25334321.654    25334319.5294   25334318.9484  133132703.694 6 103739776.87842
     -3397.971       -2647.913
  21911242.827    21911242.5624   21911243.2014  115144353.556 7  89722886.39545
       -51.385         -40.052
  23910081.336    23910080.4214   23910082.3384  125648342.304 7  97907809.83344
      3438.149        2679.066
  21683144.013    21683143.1974   21683144.1574  113945699.221 8  88788878.43745
      2561.497        1995.950
  21956925.712    21956925.9494   21956925.6284  115384428.403 8  89909957.45945
     -1087.229        -847.224
  22628364.030    22628363.9004   22628363.6924  118912889.326 7  92659401.84444
      1763.505        1374.167
  23892384.568    23892384.5574   23892383.1174  125555317.159 7  97835325.13844
     -2875.106       -2240.349
  24766583.130    24766582.6234   24766584.4184  130149299.959 6 101415047.04143
      3649.583        2843.806
 06  5 11 14 35  0.0000000  0  9G 2G 4G 6G 7G10G13G16G23G27
  22631087.443    22631087.4794   22631085.4694  118927161.755 8  92670523.31745
     -2599.960       -2025.939
  25353718.731    25353721.9734   25353723.9184  133234659.135 6 103819222.53441
     -3399.532       -2648.990
  21911587.556    21911587.6624   21911588.5574  115146168.166 7  89724300.44145
       -69.916         -54.456
  23890479.314    23890479.2434   23890480.7594  125545336.847 7  97827545.78144
      3428.719        2671.731
  21668569.597    21668568.9764   21668570.1704  113869111.777 8  88729199.91445
      2544.014        1982.339
  21963185.673    21963186.0774   21963186.0554  115417326.944 8  89935592.75845
     -1106.380        -862.122
  22618349.193    22618348.8204   22618348.7554  118860258.993 7  92618391.11245
      1744.806        1359.599
  23908823.655    23908823.8224   23908821.5574  125641704.994 7  97902640.31044
     -2884.456       -2247.635
  24745765.044    24745765.0274   24745765.6914  130039899.438 6 101329799.89543
      3643.400        2839.007
 06  5 11 14 35 30.0000000  0  9G 2G 4G 6G 7G10G13G16G23G27
  22645965.406    22645965.0954   22645964.1644  119005347.261 7  92731446.98245
     -2612.513       -2035.720
  25373133.653    25373129.9564   25373133.1504  133336656.476 7 103898700.78042
     -3400.477       -2649.754
  21912040.575    21912040.3824   21912040.9494  115148546.818 7  89726154.08645
       -88.688         -69.137
  23870933.900    23870933.3294   23870934.9534  125442623.011 7  97747508.97044
      3418.791        2664.001
  21654096.386    21654095.8174   21654096.7944  113793054.737 8  88669934.75745
      2526.327        1968.565
  21969556.442    21969556.7334   21969556.4594  115450804.955 7  89961679.55145
     -1125.558        -877.050
  22608441.867    22608442.0924   22608442.0984  118808198.292 7  92577824.32944
      1725.904        1344.860
  23925317.820    23925317.4784   23925315.5984  125728381.992 7  97970180.79044
     -2893.969       -2255.037
  24724982.589    24724982.7074   24724984.6244  129930693.124 6 101244704.11043
      3636.825        2833.879
 06  5 11 14 36  0.0000000  0  9G 2G 4G 6G 7G10G13G16G23G27
  22660914.146    22660914.4714   22660913.6444  119083906.893 7  92792662.20545
     -2625.298       -2045.678
  25392547.496    25392546.4574   25392543.4524  133438686.716 7 103978204.85042
     -3401.971       -2650.933
  21912598.975    21912598.8914   21912599.6464  115151482.040 8  89728441.25945
      -107.553         -83.821
  23851442.954    23851442.5934   23851444.1774  125340196.767 7  97667696.27544
      3409.145        2656.467
  21639723.379    21639722.4704   21639723.7344  113717523.660 8  88611079.50245
      2508.435        1954.627
  21976035.707    21976035.8694   21976035.6764  115484854.263 8  89988211.47745
     -1144.812        -892.048
  22598642.895    22598642.7274   22598642.5514  118756701.672 7  92537697.07345
      1706.784        1329.961
  23941864.953    23941865.1494   23941862.7924  125815339.239 6  98037939.63844
     -2903.656       -2262.551
  24704237.948    24704237.2784   24704239.6584  129821676.872 6 101159756.41143
      3630.303        2828.811
 06  5 11 14 36 30.0000000  0  9G 2G 4G 6G 7G10G13G16G23G27
  22675936.150    22675935.8594   22675934.4504  119162842.196 7  92854170.28545
     -2637.621       -2055.313
  25411967.320    25411967.3314   25411970.1794  133540751.726 6 104057736.00142
     -3402.601       -2651.395
  21913263.642    21913263.8554   21913264.3624  115154978.349 8  89731166.17845
      -125.967         -98.195
  23832007.933    23832007.3674   23832008.8454  125238064.216 7  97588112.42144
      3399.372        2648.854
  21625450.954    21625450.1644   21625451.5354  113642523.860 8  88552638.19245
      2490.998        1941.021
  21982624.614    21982624.7924   21982624.0734  115519476.683 8  90015189.99845
     -1163.785        -906.859
  22588951.944    22588951.4404   22588951.5664  118705774.389 7  92498013.47745
      1687.999        1315.306
  23958465.817    23958466.4094   23958463.6654  125902577.504 7  98105917.47444
     -2912.748       -2269.665
  24683530.686    24683530.3534   24683531.6824  129712856.765 6 101074961.55843
      3623.811        2823.737
 06  5 11 14 37  0.0000000  0  9G 2G 4G 6G 7G10G13G16G23G27
  22691027.176    22691026.5664   22691025.3584  119242146.177 7  92915965.69545
     -2649.733       -2064.726
  25431394.863    25431394.4634   25431397.6084  133642844.857 6 104137288.95142
     -3403.666       -2652.219
  21914034.797    21914034.6014   21914035.1954  115159028.967 7  89734322.56145
      -144.370        -112.495
  23812627.962    23812627.6894   23812629.6354  125136223.079 7  97508755.54144
      3389.722        2641.333
  21611279.630    21611278.5544   21611280.2764  113568053.073 8  88494609.08046
      2473.400        1927.314
  21989321.062    21989321.0924   21989320.9124  115554666.144 8  90042610.38845
     -1182.549        -921.471
  22579368.537    22579368.1164   22579367.9684  118655413.546 7  92458771.27545
      1669.120        1300.627
  23975118.922    23975119.3254   23975116.6754  125990089.844 6  98174108.86443
     -2921.655       -2276.599
  24662860.150    24662859.4104   24662860.0814  129604231.005 6 100990318.19443
      3617.526        2818.833
 06  5 11 14 37 30.0000000  0  8G 2G 6G 7G10G13G16G23G27
  22706187.233    22706187.2654   22706186.2934  119321817.755 7  92978047.40545
     -2661.916       -2074.227
  21914911.012    21914911.0244   21914911.9634  115163636.103 7  89737912.65545
      -162.989        -127.015
  23793305.153    23793304.6004   23793305.9584  125034677.607 6  97429629.04944
      3379.909        2633.696
  21597209.783    21597208.8534   21597210.2694  113494114.936 8  88436995.03046
      2455.621        1913.468
  21996125.130    21996125.3604   21996124.6194  115590422.864 7  90070472.88645
     -1201.391        -936.160
  22569893.678    22569893.1404   22569892.6804  118605621.899 7  92419972.55844
      1650.143        1285.811
  23991823.843    23991824.0084   23991821.8944  126077874.780 7  98242512.67844
     -2930.643       -2283.626
  24642226.507    24642226.3184   24642227.6434  129495803.492 6 100905829.22843
      3610.815        2813.607
 06  5 11 14 38  0.0000000  0  8G 2G 6G 7G10G13G16G23G27
  22721420.273    22721419.6494   22721418.4484  119401862.959 7  93040420.24345
     -2674.604       -2084.103
  21915894.975    21915894.9204   21915895.5594  115168807.418 8  89741942.40945
      -181.947        -141.758
  23774040.299    23774039.3784   23774041.2014  124933438.491 7  97350741.14243
      3369.335        2625.462
  21583243.212    21583242.6974   21583243.5864  113420719.707 8  88379803.99846
      2437.200        1899.141
  22003038.819    22003038.9364   22003038.2064  115626752.997 8  90098782.08945
     -1220.814        -951.268
  22560528.545    22560528.2544   22560528.1824  118556409.282 7  92381625.04145
      1630.520        1270.566
  24008582.471    24008582.3134   24008580.0784  126165938.637 7  98311133.83544
     -2940.272       -2291.129
  24621634.103    24621633.4044   24621634.3694  129387585.036 7 100821503.18843
      3603.510        2807.928
 06  5 11 14 38 30.0000000  0  8G 2G 6G 7G10G13G16G23G27
  22736718.477    22736718.5874   22736717.8774  119482260.659 7  93103067.77445
     -2686.217       -2093.143
  21916982.924    21916982.9414   21916983.3834  115174524.191 8  89746397.18445
      -200.077        -155.911
  23754829.994    23754829.6504   23754831.5664  124832490.387 6  97272080.18343
      3359.518        2617.806
  21569376.819    21569376.0784   21569377.1104  113347851.102 8  88323023.27046
      2419.835        1885.585
  22010057.101    22010057.4334   22010056.8414  115663636.852 8  90127522.77545
     -1239.038        -965.490
  22551270.266    22551270.2254   22551270.2854  118507758.737 7  92343715.49245
      1611.946        1256.070
  24025389.254    24025388.6844   24025386.8764  126254260.302 6  98379955.85944
     -2948.868       -2297.823
  24601076.542    24601076.2914   24601077.5224  129279559.899 6 100737327.81343
      3597.231        2803.040
 06  5 11 14 39  0.0000000  0  8G 2G 6G 7G10G13G16G23G27
  22752087.213    22752086.9664   22752085.7714  119563019.309 7  93165996.66045
     -2697.548       -2101.991
  21918176.008    21918176.4044   21918176.7254  115180796.309 7  89751284.66545
      -217.987        -169.857
  23735678.403    23735677.4104   23735679.1914  124731845.970 6  97193655.88343
      3350.091        2610.462
  21555612.839    21555612.2864   21555613.0424  113275521.718 8  88266662.76046
      2402.351        1871.965
  22017183.118    22017183.4384   22017182.5934  115701083.174 8  90156701.72345
     -1257.271        -979.703
  22542122.082    22542121.8144   22542121.6594  118459682.160 7  92306253.18145
      1593.323        1241.550
  24042246.945    24042246.8414   24042244.3454  126342847.820 6  98448985.04544
     -2956.831       -2304.046
  24580560.237    24580559.3934   24580560.7854  129171741.073 7 100653313.20243
      3590.880        2798.087
 06  5 11 14 39 30.0000000  0  8G 2G 6G 7G10G13G16G23G27
  22767522.528    22767522.1704   22767521.3904  119644132.602 7  93229201.83545
     -2709.750       -2111.486
  21919475.299    21919475.0994   21919474.9734  115187619.671 8  89756601.62045
      -236.691        -184.441
  23716583.867    23716583.7504   23716584.9634  124631503.704 6  97115466.86843
      3339.659        2602.324
  21541951.353    21541950.4004   21541951.4134  113203729.823 8  88210721.06346
      2384.022        1857.683
  22024414.823    22024414.9324   22024414.6724  115739086.527 8  90186314.74945
     -1276.128        -994.402
  22533081.838    22533081.8404   22533081.9734  118412176.976 7  92269236.09845
      1573.999        1226.494
  24059154.229    24059153.7144   24059151.1144  126431694.745 6  98518216.36943
     -2965.835       -2311.024
  24560081.177    24560081.5724   24560082.1974  129064127.355 6 100569458.40943
      3583.378        2792.237
 06  5 11 14 40  0.0000000  0  8G 2G 6G 7G10G13G16G23G27
  22783024.531    22783024.2204   22783023.7534  119725596.958 7  93292680.56945
     -2721.822       -2120.904
  21920877.128    21920877.6144   21920878.1034  115194992.470 7  89762346.64845
      -255.359        -198.973
  23697547.343    23697546.8834   23697548.1824  124531465.888 7  97037515.36043
      3329.005        2594.016
  21528391.959    21528391.1684   21528392.3054  113132476.211 8  88155198.82546
      2365.541        1843.284
  22031752.414    22031752.3414   22031751.6404  115777644.186 8  90216359.64245
     -1294.997       -1009.088
  22524151.109    22524150.5284   22524150.9394  118365244.074 7  92232664.97445
      1554.322        1211.172
  24076110.039    24076109.8464   24076107.4754  126520797.540 7  98587647.06244
     -2974.894       -2318.108
  24539642.371    24539641.8644   24539643.1714  128956720.265 6 100485764.62043
      3576.165        2786.603
 06  5 11 14 40 30.0000000  0  8G 2G 6G 7G10G13G16G23G27
  22798594.466    22798594.2554   22798593.0664  119807416.237 7  93356435.89345
     -2733.616       -2130.099
  21922386.797    21922386.5004   21922386.7514  115202920.604 7  89768524.42945
      -273.955        -213.498
  23678570.104    23678569.7114   23678571.5254  124431740.589 6  96959807.35043
      3318.402        2585.751
  21514936.740    21514935.9584   21514937.0134  113061768.767 8  88100102.06246
      2347.372        1829.101
  22039196.292    22039196.0924   22039195.2364  115816760.570 8  90246839.92645
     -1313.646       -1023.616
  22515330.520    22515330.2124   22515329.8744  118318890.575 7  92196545.33845
      1535.106        1196.178
  24093114.728    24093114.2694   24093112.4974  126610159.766 6  98657279.93744
     -2983.338       -2324.702
  24519244.542    24519243.7284   24519245.3624  128849528.250 6 100402238.41943
      3569.195        2781.188
 06  5 11 14 41  0.0000000  0  8G 2G 6G 7G10G13G16G23G27
  22814229.781    22814229.4484   22814228.2464  119889580.776 7  93420460.22445
     -2745.023       -2138.989
  21923999.015    21923999.1194   21923999.4844  115211396.544 8  89775129.11545
      -292.138        -227.656
  23659651.689    23659651.1844   23659653.1304  124332323.523 7  96882339.64043
      3308.266        2577.853
  21501584.334    21501583.7454   21501585.1104  112991602.404 8  88045426.93746
      2329.331        1815.071
  22046744.597    22046744.4114   22046743.4774  115856426.607 8  90277748.48245
     -1331.795       -1037.764
  22506618.841    22506618.2884   22506618.4204  118273110.604 7  92160872.63145
      1515.976        1181.284
  24110167.579    24110167.4144   24110165.2824  126699771.831 7  98727107.49243
     -2991.673       -2331.146
  24498886.087    24498885.7874   24498887.8204  128742547.007 6 100318876.47343
      3562.037        2775.595
 06  5 11 14 41 30.0000000  0  8G 2G 6G 7G10G13G16G23G27
  22829931.085    22829931.0244   22829929.8584  119972093.633 7  93484755.94345
     -2756.448       -2147.878
  21925717.203    21925717.1954   21925717.9304  115220425.161 8  89782164.33145
      -310.309        -241.796
  23640793.336    23640792.6354   23640794.6734  124233222.388 6  96805118.05543
      3298.025        2569.915
  21488336.715    21488336.0394   21488337.3534  112921985.007 8  87991179.59446
      2311.123        1800.881
  22054397.935    22054397.9014   22054397.2894  115896646.838 7  90309088.91545
     -1350.149       -1052.058
  22498017.710    22498017.2924   22498017.8334  118227911.756 7  92125652.76445
      1496.673        1166.233
  24127267.463    24127268.2784   24127265.8574  126789636.789 7  98797132.11743
     -2999.885       -2337.551
  24478568.728    24478569.4184   24478571.2814  128635784.967 6 100235685.30843
      3554.903        2770.051
 06  5 11 14 42  0.0000000  0  8G 2G 6G 7G10G13G16G23G27
  22845697.694    22845697.1694   22845695.5304  120054942.979 7  93549313.83145
     -2767.346       -2156.388
  21927538.545    21927538.4914   21927539.0274  115229996.508 7  89789622.55345
      -328.057        -255.620
  23621993.751    23621993.0274   23621994.8154  124134430.123 6  96728137.07043
      3287.733        2561.895
  21475192.540    21475191.6694   21475192.5864  112852908.466 8  87937353.61945
      2293.446        1787.107
  22062154.800    22062154.9274   22062154.5364  115937409.280 7  90340851.85545
     -1367.859       -1065.855
  22489525.581    22489524.8614   22489525.3114  118183285.072 7  92090878.72145
      1477.938        1151.642
  24144414.675    24144413.9824   24144412.5894  126879742.305 6  98867344.18143
     -3007.658       -2343.600
  24458294.791    24458294.0294   24458295.5114  128529234.415 6 100152658.95543
      3547.993        2764.667
 06  5 11 14 42 30.0000000  0  8G 2G 6G 7G10G13G16G23G27
  22861525.242    22861525.0634   22861524.1534  120138121.420 7  93614128.15845
     -2778.273       -2164.890
  21929462.245    21929461.9094   21929462.5094  115240105.058 7  89797499.37545
      -346.173        -269.776
  23603253.339    23603252.1244   23603253.8774  124035944.288 7  96651394.82043
      3277.284        2553.737
  21462150.001    21462149.3234   21462150.1534  112784370.392 8  87883947.35846
      2275.321        1772.974
  22070013.064    22070013.5974   22070013.1404  115978707.415 7  90373032.22145
     -1385.797       -1079.827
  22481141.396    22481141.3674   22481140.8954  118139226.975 7  92056547.72145
      1458.837        1136.756
  24161605.726    24161605.6744   24161603.4454  126970081.403 6  98937738.24143
     -3015.430       -2349.666
  24438059.128    24438058.3594   24438059.2184  128422893.454 7 100069795.91643
      3540.962        2759.180
 06  5 11 14 43  0.0000000  0  8G 2G 6G 7G10G13G16G23G27
  22877416.280    22877416.4244   22877414.6524  120221628.788 7  93679198.80745
     -2789.640       -2173.744
  21931488.297    21931488.1764   21931488.9954  115250752.400 8  89805796.01945
      -364.492        -284.023
  23584570.971    23584570.1874   23584572.4564  123937770.153 7  96574895.59743
      3266.696        2545.489
  21449210.759    21449209.9954   21449211.1044  112716374.582 8  87830963.50746
      2256.876        1758.605
  22077974.024    22077974.1114   22077973.4594  116020541.918 7  90405630.56645
     -1403.881       -1093.941
  22472866.630    22472866.3404   22472866.1834  118095740.971 7  92022662.51045
      1439.382        1121.595
  24178840.515    24178840.3204   24178838.5514  127060653.565 6  99008313.90143
     -3023.310       -2355.819
  24417862.343    24417862.7354   24417864.0154  128316766.542 6  99987099.63043
      3533.363        2753.248
 06  5 11 14 43 30.0000000  0  8G 2G 6G 7G10G13G16G23G27
  22893369.452    22893369.1464   22893368.1704  120305464.265 7  93744525.12945
     -2799.989       -2181.793
  21933617.736    21933617.5674   21933617.9244  115261938.839 8  89814512.41045
      -381.704        -297.378
  23565948.364    23565948.7064   23565949.9114  123839911.410 6  96498642.04143
      3256.737        2537.703
  21436375.537    21436374.8404   21436376.0444  112648924.660 8  87778405.03946
      2239.235        1744.870
  22086036.609    22086036.7674   22086036.0514  116062912.318 7  90438646.46645
     -1421.160       -1107.380
  22464700.988    22464700.6034   22464700.5334  118052830.103 7  91989225.47145
      1420.811        1107.140
  24196120.338    24196120.0374   24196118.4774  127151457.973 6  99079070.54543
     -3030.688       -2361.549
  24397708.367    24397709.0544   24397710.1454  128210857.964 6  99904573.45143
      3526.801        2748.160
 06  5 11 14 44  0.0000000  0  8G 2G 6G 7G10G13G16G23G27
  22909383.893    22909383.8674   22909383.3924  120389622.471 7  93810102.93845
     -2810.925       -2190.320
  21935848.320    21935848.2114   21935849.2124  115273661.860 7  89823646.98445
      -399.893        -311.591
  23547386.641    23547386.1464   23547387.8124  123742367.518 6  96422633.78343
      3245.917        2529.294
  21423643.803    21423643.2164   21423644.2004  112582019.886 8  87726271.55646
      2220.838        1730.524
  22094200.344    22094200.8374   22094200.3004  116105814.102 8  90472076.47845
     -1439.213       -1121.458
  22456644.717    22456643.8324   22456643.9184  118010492.736 7  91956235.34045
      1401.407        1092.016
  24213443.217    24213442.2864   24213441.2044  127242488.851 6  99150003.62043
     -3038.532       -2367.696
  24377597.560    24377596.3994   24377597.9184  128105167.405 6  99822217.20043
      3519.161        2742.208
 06  5 11 14 44 30.0000000  0  8G 2G 6G 7G10G13G16G23G27
  22925459.864    22925459.4714   22925458.5454  120474099.946 7  93875929.49645
     -2821.312       -2198.413
  21938181.182    21938181.0524   21938181.6264  115285919.879 7  89833198.49445
      -417.846        -325.618
  23528885.489    23528884.1284   23528886.6614  123645140.418 6  96346872.35243
      3235.730        2521.334
  21411015.767    21411015.0524   21411016.4264  112515660.808 8  87674563.17646
      2202.461        1716.192
  22102465.410    22102465.3164   22102464.7344  116149244.576 7  90505918.47845
     -1456.603       -1135.031
  22448696.827    22448696.4314   22448696.7004  117968729.119 7  91923692.26945
      1382.288        1077.115
  24230808.332    24230807.9174   24230806.4114  127333743.344 6  99221110.95243
     -3045.755       -2373.341
  24357527.069    24357526.6894   24357527.2864  127999696.613 6  99740032.17543
      3511.797        2736.464
 06  5 11 14 45  0.0000000  0  9G 2G 6G 7G10G13G16G21G23G27
  22941594.409    22941594.1774   22941593.6344  120558888.124 7  93941998.15245
     -2831.784       -2206.581
  21940614.188    21940614.1514   21940614.9934  115298705.909 8  89843161.55545
      -435.427        -339.288
  23510442.852    23510442.2444   23510444.4204  123548226.149 6  96271354.62443
      3224.955        2512.945
  21398491.109    21398490.3624   21398491.8434  112449843.036 8  87623276.57246
      2184.569        1702.276
  22110828.731    22110829.0014   22110828.3834  116193195.514 8  90540165.96945
     -1474.012       -1148.581
  22440857.211    22440857.1514   22440857.5994  117927534.186 7  91891592.37345
      1363.251        1062.287
  25045622.739                                   131615619.108 4
      4302.123
  24248214.469    24248214.0094   24248212.2594  127425212.608 6  99292385.65843
     -3052.792       -2378.788
  24337496.500    24337496.6854   24337498.6254  127894441.840 6  99658015.46643
      3504.511        2730.783
 06  5 11 14 45 30.0000000  0  9G 2G 6G 7G10G13G16G21G23G27
  22957788.788    22957789.2584   22957788.0764  120643992.502 7  94008313.22545
     -2842.167       -2214.683
  21943149.177    21943148.8854   21943150.2284  115312026.982 8  89853541.44145
      -453.116        -353.070
  23492062.043    23492061.7054   23492063.8234  123451635.527 6  96196089.23443
      3214.110        2504.483
  21386071.982    21386071.1454   21386071.9804  112384576.462 8  87572419.57346
      2166.284        1687.998
  22119293.036    22119292.8294   22119292.0614  116237673.015 7  90574823.75945
     -1491.573       -1162.266
  22433127.788    22433127.7804   22433128.1104  117886916.957 7  91859942.57045
      1344.131        1047.364
  25021072.093                                   131486605.265 4
      4298.358
  24265662.638    24265661.8554   24265660.4024  127516901.798 6  99363831.69843
     -3060.058       -2384.479
  24317511.212    24317510.4324   24317511.4874  127789413.565 6  99576175.24143
      3497.008        2724.939
 06  5 11 14 46  0.0000000  0  9G 2G 6G 7G10G13G16G21G23G27
  22974042.880    22974042.1714   22974041.6404  120729403.142 7  94074866.93945
     -2852.307       -2222.573
  21945784.601    21945784.8074   21945785.2444  115325874.688 8  89864331.68445
      -470.454        -366.578
  23473741.763    23473741.7074   23473743.6474  123355363.058 7  96121071.80044
      3203.503        2496.245
  21373755.660    21373754.8044   21373755.7674  112319854.909 8  87521987.15846
      2148.222        1673.960
  22127854.593    22127855.0244   22127854.2674  116282667.221 8  90609884.20245
     -1508.437       -1175.390
  22425508.031    22425507.3704   22425507.5504  117846870.720 7  91828737.69645
      1325.239        1032.658
  24996535.574                                   131357665.463 4
      4297.081
  24283150.024    24283149.4704   24283148.2354  127608800.528 6  99435441.02843
     -3066.850       -2389.751
  24297568.116    24297566.5424   24297567.5154  127684606.230 7  99494507.20243
      3489.857        2719.359
 06  5 11 14 46 30.0000000  0  9G 2G 6G 7G10G13G16G21G23G27
  22990354.818    22990354.8324   22990353.4134  120815125.199 7  94141663.37645
     -2862.748       -2230.713
  21948521.174    21948521.2804   21948522.4744  115340256.903 7  89875538.61445
      -488.490        -380.630
  23455485.263    23455484.2804   23455485.9804  123259419.161 7  96046310.39244
      3192.367        2487.555
  21361545.139    21361544.2084   21361545.3524  112255688.555 8  87471987.45546
      2129.361        1659.227
  22136517.158    22136517.0034   22136515.6904  116328184.629 8  90645352.32245
     -1526.125       -1189.182
  22417998.078    22417997.1864   22417997.4334  117807404.886 7  91797985.16245
      1305.549        1017.312
  24972014.012                                   131228810.801 4
      4294.121
  24300679.637    24300679.1664   24300677.1144  127700914.758 6  99507218.30243
     -3074.267       -2395.516
  24277666.704    24277666.1524   24277667.5274  127580030.563 6  99413019.69043
      3481.614        2712.945
 06  5 11 14 47  0.0000000  0  9G 2G 6G 7G10G13G16G21G23G27
  23006726.372    23006725.8574   23006724.5254  120901156.096 7  94208700.43244
     -2872.720       -2238.490
  21951360.179    21951359.8224   21951360.5024  115355172.210 8  89887160.86045
      -505.808        -394.148
  23437290.309    23437289.5104   23437291.4924  123163806.281 7  95971806.93544
      3181.701        2479.274
  21349440.752    21349440.0594   21349440.8064  112192078.761 8  87422421.33646
      2111.212        1645.083
  22145277.314    22145277.5614   22145276.5954  116374223.215 8  90681226.56945
     -1543.082       -1202.405
  22410598.411    22410597.8244   22410598.0764  117768520.474 7  91767685.65545
      1286.596        1002.532
  24947511.435                                   131100042.860 4
      4291.116
  24318248.728    24318248.2624   24318246.5524  127793241.854 6  99579161.43343
     -3081.049       -2400.803
  24257810.731    24257811.1004   24257812.3114  127475689.255 6  99331714.80044
      3474.410        2707.329
 06  5 11 14 47 30.0000000  0  9G 2G 6G 7G10G13G16G21G23G27
  23023155.788    23023155.4784   23023154.2794  120987493.334 7  94275976.23745
     -2883.135       -2246.576
  21954299.324    21954299.3634   21954299.8544  115370619.582 7  89899197.75245
      -523.893        -408.217
  23419158.564    23419158.6124   23419160.4674  123068526.299 7  95897562.76544
      3170.288        2470.369
  21337442.142    21337441.5054   21337442.4794  112129027.027 8  87373290.04846
      2092.162        1630.266
  22154136.983    22154137.0584   22154136.2964  116420780.653 7  90717505.08945
     -1560.755       -1216.156
  22403309.558    22403308.9604   22403308.8264  117730218.055 7  91737839.67445
      1266.802         987.128
  24923025.018                                   130971364.710 5
      4287.685
  24335857.231    24335857.1264   24335855.6114  127885778.702 6  99651268.01143
     -3088.149       -2406.346
  24238000.481    24238000.2814   24238001.3634  127371584.496 7  99250594.26843
      3465.980        2700.759
 06  5 11 14 48  0.0000000  0  9G 2G 6G 7G10G13G16G21G23G27
  23039641.351    23039641.9004   23039641.2224  121074131.805 7  94343486.78045
     -2893.392       -2254.578
  21957340.047    21957339.7084   21957340.2214  115386595.638 8  89911646.55845
      -541.664        -422.077
  23401091.256    23401090.8314   23401092.5974  122973579.184 7  95823577.90444
      3159.082        2461.598
  21325549.791    21325549.0904   21325549.9914  112066533.073 8  87324593.63646
      2073.532        1615.739
  22163094.544    22163094.4404   22163093.5454  116467852.367 8  90754184.33545
     -1577.948       -1229.573
  22396130.975    22396130.7864   22396130.6494  117692495.926 7  91708445.85444
      1247.344         971.959
  24898554.520                                   130842775.232 5
      4284.805
  24353505.550    24353505.4724   24353503.9354  127978520.345 6  99723534.16143
     -3095.145       -2411.818
  24218235.490    24218235.3274   24218235.8074  127267715.785 6  99169657.61543
      3457.983        2694.528
 06  5 11 14 48 30.0000000  0  9G 2G 6G 7G10G13G16G21G23G27
  23056183.962    23056184.2424   23056183.1814  121161061.177 7  94411224.04244
     -2902.867       -2261.967
  21960478.590    21960478.5014   21960479.3814  115403091.870 8  89924500.69945
      -558.860        -435.461
  23383085.531    23383085.0944   23383087.3194  122878959.503 7  95749848.17144
      3148.141        2453.118
  21313762.381    21313761.9004   21313762.8344  112004590.081 8  87276326.43046
      2055.246        1601.492
  22172147.702    22172147.7254   22172147.3354  116515428.770 8  90791256.85345
     -1594.692       -1242.630
  22389061.637    22389061.6984   22389061.7014  117655347.546 7  91679499.09345
      1228.306         957.117
  24874100.935                                   130714270.326 5
      4281.663
  24371190.712    24371190.3874   24371188.8424  128071456.541 6  99795951.93243
     -3101.359       -2416.609
  24198512.888    24198513.0094   24198514.3454  127164078.159 6  99088901.06244
      3450.429        2688.650
 06  5 11 14 49  0.0000000  0  9G 2G 6G 7G10G13G16G21G23G27
  23072782.560    23072781.8024   23072779.8764  121248281.276 7  94479187.93944
     -2912.129       -2269.202
  21963717.675    21963717.3044   21963717.5744  115420109.799 8  89937761.51145
      -575.936        -448.769
  23365143.006    23365142.6694   23365144.6154  122784672.637 7  95676378.10144
      3137.350        2444.673
  21302080.861    21302079.9844   21302080.9634  111943201.737 8  87228491.27646
      2037.017        1587.277
  22181297.205    22181297.2764   22181297.1694  116563509.741 8  90828722.54545
     -1611.105       -1255.419
  22382102.917    22382102.5364   22382102.1254  117618775.734 7  91651001.63144
      1209.490         942.462
  24849664.160                                   130585853.300 5
      4278.954
  24388912.359    24388912.5914   24388911.5494  128164586.378 6  99868520.58343
     -3107.256       -2421.247
  24178836.746    24178836.6564   24178837.7444  127060676.245 6  99008328.22344
      3442.799        2682.704
 06  5 11 14 49 30.0000000  0  9G 2G 6G 7G10G13G16G21G23G27
  23089431.215    23089432.3624   23089431.5644  121335783.320 7  94547371.40744
     -2921.838       -2276.745
  21967053.126    21967053.1334   21967054.3884  115437642.614 8  89951423.54545
      -593.406        -462.400
  23347263.781    23347263.3494   23347265.0314  122690714.314 7  95603163.88544
      3125.931        2435.791
  21290503.602    21290503.0234   21290504.0144  111882364.344 8  87181085.52546
      2018.285        1572.687
  22190541.355    22190541.0654   22190541.3074  116612087.700 7  90866575.47145
     -1627.982       -1268.567
  22375252.168    22375251.8604   22375251.6214  117582776.070 7  91622950.01044
      1189.865         927.163
  24825243.286                                   130457521.785 5
      4276.105
  24406670.407    24406670.1074   24406668.8624  128257902.236 6  99941234.19343
     -3113.881       -2426.392
  24159204.021    24159203.9804   24159205.7014  126957506.827 7  98927936.53744
      3434.557        2676.300
 06  5 11 14 50  0.0000000  0  9G 2G 6G 7G10G13G16G21G23G27
  23106139.619    23106138.7694   23106137.1474  121423572.908 7  94615778.92244
     -2931.326       -2284.162
  21970489.270    21970489.1294   21970489.5794  115455697.550 8  89965492.57245
      -610.653        -475.846
  23329448.283    23329448.1424   23329449.8934  122597095.215 7  95530214.04744
      3114.661        2426.989
  21279033.243    21279032.6324   21279033.8804  111822087.179 8  87134116.33446
      1999.792        1558.274
  22199881.213    22199881.5424   22199880.6424  116661168.487 7  90904820.22045
     -1644.489       -1281.421
  22368511.993    22368511.5184   22368511.3734  117547357.175 7  91595350.91144
      1170.750         912.268
  24800840.056                                   130329285.703 5
      4272.503
  24424463.801    24424463.2984   24424463.0404  128351409.350 5 100014096.75542
     -3120.168       -2431.284
  24139617.130    24139617.7064   24139618.8704  126854579.986 6  98847733.87044
      3426.589        2670.055
 06  5 11 14 50 30.0000000  0  9G 2G 6G 7G10G13G16G21G23G27
  23122898.849    23122897.6364   23122896.0254  121511642.992 7  94684404.94944
     -2940.479       -2291.294
  21974022.474    21974022.9444   21974023.7474  115474267.888 8  89979962.84845
      -627.560        -489.010
  23311697.162    23311697.1004   23311698.6654  122503812.748 7  95457526.43844
      3103.656        2418.453
  21267668.889    21267668.1334   21267669.5874  111762367.308 8  87087581.39646
      1981.287        1543.861
  22209315.320    22209315.3574   22209315.1474  116710745.423 8  90943451.58945
     -1660.875       -1294.193
  22361881.526    22361881.3334   22361881.3294  117512515.065 7  91568201.26144
      1151.831         897.524
  24776455.913                                   130201143.388 5
      4269.691
  24442292.335    24442291.2204   24442291.5594  128445100.115 5 100087102.44242
     -3126.026       -2435.889
  24120076.741    24120077.0894   24120078.3154  126751893.437 7  98767718.44444
      3418.865        2664.045
 06  5 11 14 51  0.0000000  0  9G 2G 6G 7G10G13G16G21G23G27
  23139708.249    23139709.3164   23139707.7444  121599989.449 7  94753246.34544
     -2949.644       -2298.431
  21977655.014    21977654.9234   21977655.3484  115493352.563 8  89994834.15045
      -644.742        -502.392
  23294010.703    23294010.2464   23294011.7234  122410868.033 7  95385102.02944
      3092.401        2409.657
  21256410.820    21256409.9374   21256411.1624  111703204.417 8  87041480.42446
      1962.587        1529.287
  22218843.019    22218843.3264   22218842.8764  116760814.809 8  90982466.67045
     -1677.432       -1307.094
  22355361.003    22355360.9844   22355360.6054  117478249.013 7  91541500.47944
      1132.384         882.363
  24752089.352    24752088.3494   24752090.6404  130073095.408 5 101355685.19041
      4266.566        3324.558
  24460155.378    24460155.0194   24460154.8494  128538971.087 5 100160248.61542
     -3132.284       -2440.689
  24100582.861    24100582.3774   24100583.4274  126649448.248 7  98687891.14344
      3410.667        2657.683
 06  5 11 14 51 30.0000000  0  9G 2G 6G 7G10G13G16G21G23G27
  23156573.768    23156573.2144   23156571.6404  121688608.860 7  94822300.45644
     -2958.812       -2305.578
  21981383.532    21981383.3564   21981384.0064  115512949.152 8  90010104.33545
      -662.063        -515.884
  23276388.538    23276388.0194   23276389.4634  122318262.228 7  95312941.66444
      3080.989        2400.773
  21245258.510    21245257.8474   21245258.6554  111644599.497 8  86995814.30446
      1943.897        1514.739
  22228464.248    22228464.4684   22228463.6514  116811373.357 8  91021862.93245
     -1693.632       -1319.698
  22348949.927    22348949.7664   22348949.9024  117444559.252 7  91515248.76445
      1113.055         867.328
  24727741.682    24727739.5394   24727739.6114  129945143.420 5 101255982.42041
      4262.881        3321.643
  24478052.053    24478052.2224   24478051.9754  128633018.332 5 100233532.13442
     -3138.141       -2445.258
  24081134.256    24081134.2644   24081134.7024  126547245.981 7  98608253.09244
      3402.336        2651.166
 06  5 11 14 52  0.0000000  0  9G 2G 6G 7G10G13G16G21G23G27
  23173489.756    23173488.6044   23173487.5744  121777500.179 7  94891566.30844
     -2967.690       -2312.491
  21985210.851    21985210.2004   21985210.9054  115533058.128 8  90025773.66145
      -678.805        -528.943
  23258831.807    23258831.0694   23258831.9304  122225999.824 7  95241048.92744
      3069.704        2391.960
  21234213.165    21234212.4514   21234213.4554  111586555.858 8  86950585.53946
      1925.372        1500.287
  22238178.263    22238178.5324   22238178.1844  116862421.198 8  91061640.43345
     -1709.814       -1332.312
  22342649.173    22342648.8444   22342648.7824  117411448.383 7  91489448.10745
      1093.945         852.411
  24703411.374    24703411.4034   24703411.2144  129817291.854 6 101156357.95641
      4259.772        3319.230
  24495981.955    24495981.8864   24495982.2344  128727241.328 5 100306952.54042
     -3143.680       -2449.616
  24061731.974    24061732.3134   24061733.7984  126445291.172 6  98528807.85144
      3394.240        2644.865
 06  5 11 14 52 30.0000000  0  9G 2G 6G 7G10G13G16G21G23G27
  23190453.950    23190455.0224   23190453.9504  121866661.205 7  94961042.42344
     -2976.421       -2319.291
  21989133.948    21989133.7914   21989134.6494  115553679.024 8  90041842.07745
      -695.830        -542.211
  23241339.411    23241339.4564   23241341.3414  122134082.744 7  95169425.25544
      3058.080        2382.934
  21223274.844    21223274.2034   21223275.0244  111529074.394 8  86905794.77146
      1906.659        1485.705
  22247985.095    22247985.4494   22247984.7344  116913956.019 8  91101797.41945
     -1725.830       -1344.810
  22336458.541    22336458.4074   22336458.5394  117378917.037 7  91464099.01645
      1074.717         837.446
  24679101.010    24679100.6554   24679101.5944  129689542.405 5 101056812.94741
      4256.372        3316.708
  24513945.891    24513945.3224   24513945.0274  128821636.918 6 100380507.44442
     -3149.456       -2454.096
  24042378.606    24042378.0444   24042379.6684  126343585.740 7  98449556.96244
      3385.859        2638.348
 06  5 11 14 53  0.0000000  0  9G 2G 6G 7G10G13G16G21G23G27
  23207472.346    23207471.4484   23207470.0464  121956082.296 7  95030721.16444
     -2985.203       -2326.153
  21993153.983    21993153.9224   21993154.6584  115574803.149 7  90058302.43445
      -712.786        -555.425
  23223912.951    23223912.7664   23223915.2574  122042506.551 7  95098067.20344
      3046.623        2374.000
  21212442.367    21212441.6574   21212442.9614  111472150.021 8  86861438.09446
      1888.034        1471.185
  22257882.993    22257882.9364   22257882.3634  116965968.709 7  91142326.76745
     -1741.784       -1357.254
  22330377.367    22330376.8074   22330377.0634  117346958.835 7  91439196.50344
      1055.502         822.457
  24654810.189    24654809.1424   24654808.6294  129561890.874 6 100957344.30441
      4253.144        3314.140
  24531940.291    24531940.3504   24531938.2334  128916195.825 6 100454189.65743
     -3154.796       -2458.257
  24023071.183    24023070.5174   24023072.2124  126242124.981 6  98370496.67444
      3377.826        2632.056
 06  5 11 14 53 30.0000000  0  9G 2G 6G 7G10G13G16G21G23G27
  23224538.289    23224537.1954   23224536.5024  122045764.538 7  95100603.56444
     -2994.011       -2333.026
  21997269.138    21997269.5014   21997270.5634  115596433.101 8  90075156.87545
      -729.723        -568.609
  23206554.246    23206552.8154   23206554.4174  121951276.947 7  95026979.36244
      3034.794        2364.781
  21201716.693    21201716.2174   21201717.4174  111415787.353 8  86817519.14146
      1869.105        1456.448
  22267871.618    22267872.0004   22267870.9674  117018460.357 7  91183229.33645
     -1758.068       -1369.928
  22324406.010    22324405.4854   22324405.2724  117315577.910 7  91414743.84445
      1036.038         807.304
  24630538.178    24630537.1104   24630538.1034  129434343.629 6 100857956.89041
      4249.586        3311.392
  24549965.611    24549964.7774   24549963.5574  129010919.135 6 100527999.98042
     -3160.469       -2462.722
  24003811.171    24003811.4934   24003812.5364  126140915.061 7  98291631.88444
      3369.083        2625.252
 06  5 11 14 54  0.0000000  0  9G 2G 6G 7G10G13G16G21G23G27
  23241649.190    23241650.4474   23241649.7044  122135697.988 7  95170681.77244
     -3002.390       -2339.528
  22001480.539    22001480.7944   22001481.2204  115618561.023 7  90092399.33945
      -746.190        -581.453
  23189258.000    23189257.6934   23189258.9804  121860389.267 7  94956157.85844
      3023.625        2356.058
  21191097.469    21191096.7564   21191097.7024  111359981.012 8  86774033.67246
      1850.639        1442.054
  22277949.760    22277950.0344   22277949.5154  117071422.025 8  91224498.17945
     -1773.540       -1381.979
  22318542.616    22318542.3754   22318542.3064  117284767.905 7  91390736.04545
      1017.249         792.656
  24606286.171    24606285.2084   24606284.7704  129306896.127 6 100758647.12941
      4246.178        3308.680
  24568020.638    24568020.2814   24568019.4024  129105797.655 5 100601931.18242
     -3165.546       -2466.637
  23984598.346    23984598.3544   23984599.1024  126039951.272 7  98212958.84044
      3361.020        2618.993
 06  5 11 14 54 30.0000000  0  9G 2G 6G 7G10G13G16G21G23G27
  23258812.484    23258811.6264   23258810.8254  122225878.823 7  95240952.50044
     -3010.143       -2345.573
  22005785.414    22005785.2524   22005786.5424  115641184.766 7  90110028.21545
      -762.229        -593.961
  23172027.613    23172027.1544   23172028.9504  121769844.665 7  94885603.65844
      3012.560        2347.445
  21180583.744    21180583.0564   21180583.8914  111304731.535 8  86730982.16246
      1832.481        1427.895
  22288117.005    22288117.2384   22288116.3024  117124850.513 7  91266130.76645
     -1788.637       -1393.770
  22312787.883    22312788.0244   22312787.9564  117254528.494 7  91367172.87745
       998.537         778.066
  24582053.029    24582052.0134   24582052.2894  129179549.392 6 100659415.91341
      4243.409        3306.582
  24586105.069    24586104.3264   24586102.8124  129200827.109 6 100675980.00043
     -3169.961       -2470.111
  23965432.801    23965432.5594   23965434.0354  125939235.088 7  98134478.76344
      3353.128        2612.805
 06  5 11 14 55  0.0000000  0  9G 2G 6G 7G10G13G16G21G23G27
  23276019.883    23276018.6004   23276017.5254  122316300.205 7  95311410.58344
     -3018.255       -2351.853
  22010184.177    22010183.7364   22010184.7224  115664298.772 7  90128039.13945
      -779.054        -607.069
  23154862.565    23154861.9234   23154863.9724  121679640.829 7  94815314.98144
      3000.674        2338.198
  21170175.213    21170174.4994   21170175.7394  111250035.557 8  86688361.90646
      1813.641        1413.229
  22298371.665    22298371.9364   22298371.1524  117178738.885 7  91308121.70245
     -1804.209       -1405.875
  22307141.931    22307141.5974   22307141.3514  117224855.932 7  91344051.40045
       979.364         763.145
  24557838.307    24557837.7304   24557839.6844  129052300.995 6 100560261.40742
      4239.530        3303.549
  24604215.424    24604214.8824   24604212.8884  129296000.355 6 100750140.89943
     -3175.294       -2474.250
  23946313.582    23946313.5074   23946314.1774  125838763.844 6  98056189.54844
      3344.646        2606.222
 06  5 11 14 55 30.0000000  0  9G 2G 6G 7G10G13G16G21G23G27
  23293269.307    23293270.8924   23293269.8284  122406962.107 7  95382056.19944
     -3026.493       -2358.303
  22014675.580    22014675.6684   22014676.5304  115687903.816 7  90146432.69045
      -795.447        -619.818
  23137762.590    23137762.6674   23137764.0154  121589782.402 7  94745295.47844
      2989.093        2329.147
  21159873.105    21159872.2484   21159873.6804  111195896.577 8  86646175.70946
      1794.805        1398.546
  22308713.893    22308714.0344   22308713.0264  117233087.118 7  91350470.96345
     -1819.756       -1418.011
  22301603.925    22301603.6254   22301603.4694  117195752.855 7  91321373.69945
       960.089         748.119
  24533643.208    24533643.0334   24533642.5414  128925156.439 6 100461187.77342
      4235.796        3300.597
  24622354.387    24622352.8974   24622350.8514  129391317.531 5 100824413.93442
     -3180.191       -2478.097
  23927243.043    23927242.4884   23927243.4274  125738542.409 7  97978094.96044
      3336.043        2599.504
 06  5 11 14 56  0.0000000  0  9G 2G 6G 7G10G13G16G21G23G27
  23310570.487    23310569.6394   23310568.3464  122497864.909 7  95452889.60344
     -3034.458       -2364.522
  22019261.571    22019261.7304   22019262.4834  115712002.341 7  90165210.82045
      -811.847        -632.631
  23120730.048    23120729.8614   23120731.4754  121500274.868 7  94675549.39444
      2977.278        2319.938
  21149677.711    21149676.9684   21149678.2674  111142319.500 8  86604427.33546
      1776.019        1383.890
  22319143.708    22319143.8804   22319142.7984  117287896.157 7  91393179.29045
     -1835.211       -1430.050
  22296175.468    22296174.6004   22296174.3814  117167223.360 7  91299142.96245
       940.958         733.204
  24509469.610    24509468.6414   24509469.5114  128798121.329 6 100362199.46742
      4232.151        3297.794
  24640520.023    24640519.5154   24640516.8564  129486779.574 6 100898799.86342
     -3184.649       -2481.568
  23908219.180    23908219.0634   23908219.5244  125638576.592 7  97900199.51744
      3327.398        2592.781
 06  5 11 14 56 30.0000000  0  9G 2G 6G 7G10G13G16G21G23G27
  23327913.363    23327911.2224   23327908.9864  122588994.057 7  95523899.30344
     -3041.184       -2369.762
  22023938.355    22023938.5384   22023939.2414  115736580.734 7  90184362.81445
      -827.067        -644.447
  23103761.981    23103761.6714   23103763.7124  121411108.392 7  94606069.03044
      2966.523        2311.573
  21139587.142    21139586.4724   21139587.6084  111089293.227 8  86563108.08746
      1758.530        1370.291
  22329658.715    22329658.5454   22329658.0054  117343151.732 7  91436235.52945
     -1849.133       -1440.874
  22290852.619    22290852.5394   22290851.9534  117139255.900 7  91277350.17645
       922.961         719.195
  24485314.424    24485314.0254   24485314.6294  128671185.596 6 100263288.61742
      4229.852        3295.962
  24658710.103    24658709.9144   24658707.6924  129582371.155 6 100973286.76543
     -3188.389       -2484.430
  23889243.374    23889242.8204   23889244.0644  125538856.619 6  97822495.67344
      3319.946        2586.977
 06  5 11 14 57  0.0000000  0  9G 2G 6G 7G10G13G16G21G23G27
  23345292.000    23345293.5254   23345292.6734  122680344.287 6  95595081.26744
     -3049.061       -2375.900
  22028706.613    22028706.7934   22028707.3174  115761635.536 7  90203886.04345
      -843.370        -657.168
  23086859.159    23086858.3204   23086860.0114  121322282.874 7  94536854.37744
      2954.878        2302.478
  21129601.578    21129600.8774   21129601.7494  111036816.823 8  86522217.44846
      1739.692        1355.600
  22340257.391    22340257.3374   22340256.9694  117398849.430 7  91479636.31144
     -1864.293       -1452.706
  22285637.370    22285636.9364   22285636.6064  117111848.503 7  91255993.76345
       903.963         704.402
  24461177.705    24461177.4974   24461178.6424  128544349.622 6 100164455.47042
      4225.868        3292.824
  24676924.128    24676923.8174   24676922.2014  129678087.353 6 101047870.82043
     -3192.885       -2487.983
  23870313.855    23870313.7774   23870314.8254  125439382.280 7  97744983.23044
      3311.323        2580.251
 06  5 11 14 57 30.0000000  0  9G 2G 6G 7G10G13G16G21G23G27
  23362721.659    23362721.3654   23362720.2414  122771925.701 7  95666443.37244
     -3056.438       -2381.653
  22033567.085    22033567.0404   22033568.2274  115787178.014 7  90223789.25645
      -859.629        -669.845
  23070023.497    23070023.8794   23070024.8904  121233812.888 7  94467916.77144
      2942.995        2293.227
  21119722.510    21119721.8274   21119722.9794  110984903.806 8  86481765.85946
      1720.967        1341.003
  22350942.993    22350943.1024   22350941.6144  117454999.231 7  91523389.35444
     -1879.188       -1464.311
  22280530.455    22280530.3094   22280530.6304  117085013.957 7  91235083.73945
       884.919         689.549
  24437063.181    24437062.4954   24437063.2934  128417628.085 6 100065711.42542
      4222.215        3290.053
  24695164.111    24695163.3834   24695161.4344  129773938.491 6 101122559.98643
     -3197.246       -2491.377
  23851434.625    23851434.1264   23851434.9324  125340168.524 7  97667673.80744
      3302.703        2573.559
 06  5 11 14 58  0.0000000  0  9G 2G 6G 7G10G13G16G21G23G27
  23380191.220    23380188.8884   23380187.0244  122863715.840 7  95737968.05744
     -3063.312       -2386.997
  22038516.904    22038516.5544   22038517.1194  115813187.009 7  90244055.97545
      -874.945        -681.768
  23053252.918    23053252.7924   23053254.2464  121145680.920 7  94399242.54144
      2931.992        2284.679
  21109947.177    21109946.5394   21109947.7904  110933535.388 8  86441738.47946
      1703.111        1327.115
  22361709.397    22361709.9044   22361708.8084  117511579.123 7  91567477.56645
     -1893.106       -1475.159
  22275529.698    22275529.5464   22275529.4434  117058733.087 7  91214605.15545
       866.596         675.262
  24412967.306    24412967.1734   24412967.9854  128291004.459 6  99967043.84143
      4219.104        3287.634
  24713424.744    24713424.4994   24713422.8944  129869902.025 6 101197336.75643
     -3200.649       -2494.007
  23832600.335    23832600.2484   23832601.8294  125241197.643 6  97590553.62344
      3294.828        2567.363
 06  5 11 14 58 30.0000000  0  9G 2G 6G 7G10G13G16G21G23G27
  23397693.825    23397695.7774   23397694.5354  122955718.461 6  95809658.30344
     -3070.575       -2392.658
  22043555.555    22043555.6174   22043556.5934  115839667.535 7  90264690.11145
      -890.761        -694.093
  23036548.399    23036547.7574   23036548.9674  121057895.506 7  94330838.40144
      2920.011        2275.309
  21100277.477    21100276.8984   21100278.1994  110882719.331 8  86402141.51546
      1684.346        1312.484
  22372558.980    22372558.9864   22372558.1464  117568592.853 8  91611903.81744
     -1907.984       -1486.732
  22270635.066    22270634.6744   22270634.5414  117033012.663 7  91194563.26945
       847.731         660.561
  24388891.823    24388891.5314   24388892.2604  128164487.080 7  99868459.05643
      4215.218        3284.597
  24731708.492    24731707.8404   24731706.5074  129965981.607 6 101272203.93943
     -3205.013       -2497.421
  23813815.140    23813814.7354   23813815.8774  125142478.228 7  97513629.36944
      3286.213        2560.694
 06  5 11 14 59  0.0000000  0  9G 2G 6G 7G10G13G16G21G23G27
  23415242.169    23415241.7834   23415240.5124  123047923.429 7  95881506.33644
     -3076.842       -2397.543
  22048683.093    22048683.0044   22048683.9314  115866611.267 7  90285685.20945
      -905.832        -705.833
  23019907.758    23019907.5674   23019909.0034  120970451.414 7  94262700.20044
      2908.772        2266.589
  21090711.716    21090710.9524   21090712.0304  110832449.571 8  86362970.26646
      1666.454        1298.544
  22383489.107    22383489.1304   22383488.3714  117626031.024 7  91656660.81244
     -1921.815       -1497.507
  22265846.237    22265845.7564   22265845.6514  117007845.582 7  91174952.53545
       829.554         646.386
  24364835.789    24364835.2574   24364835.9844  128038070.659 7  99769952.87643
      4212.114        3282.196
  24750011.895    24750011.6694   24750009.8714  130062167.412 7 101347153.89244
     -3207.905       -2499.649
  23795076.558    23795075.3734   23795076.9354  125044005.306 7  97436897.19444
      3278.164        2554.422
 06  5 11 14 59 30.0000000  0  9G 2G 6G 7G10G13G16G21G23G27
  23432831.006    23432827.7114   23432825.4384  123140330.401 7  95953511.65744
     -3084.300       -2403.343
  22053898.225    22053898.0234   22053899.2864  115894018.527 7  90307041.50945
      -922.026        -718.453
  23003333.820    23003333.2104   23003334.3594  120883352.574 7  94194830.99744
      2896.700        2257.163
  21081249.920    21081249.4204   21081250.2014  110782729.125 8  86324227.10046
      1647.413        1283.697
  22394499.492    22394499.7244   22394499.1774  117683893.091 7  91701748.13244
     -1936.623       -1509.054
  22261162.938    22261162.5744   22261162.2594  116983233.733 7  91155774.44945
       810.367         631.482
  24340799.729    24340799.6334   24340799.8844  127911759.855 7  99671528.87743
      4207.814        3278.824
  24768335.937    24768335.0384   24768333.8354  130158458.805 7 101422186.14144
     -3212.190       -2503.019
  23776385.529    23776385.1814   23776386.1584  124945783.380 7  97360360.60644
      3269.047        2547.318
 06  5 11 15  0  0.0000000  0  9G 2G 6G 7G10G13G16G21G23G27
  23450448.027    23450448.5354   23450447.1364  123232934.554 6  96025670.59444
     -3090.267       -2407.994
  22059201.554    22059201.4804   22059202.4244  115921885.870 7  90328756.28145
      -936.672        -729.885
  22986824.801    22986824.4064   22986825.9514  120796599.099 7  94127230.89144
      2885.893        2248.752
  21071892.695    21071891.8344   21071892.9664  110733556.837 8  86285911.02846
      1629.868        1270.035
  22405589.782    22405590.2054   22405590.0064  117742174.599 7  91747162.25644
     -1949.900       -1519.421
  22256584.556    22256584.4354   22256584.3184  116959176.162 7  91137028.26445
       792.545         617.565
  24316784.074    24316783.3174   24316783.6144  127785554.763 7  99573187.34243
      4204.944        3276.604
  24786678.555    24786677.9604   24786676.4874  130254851.029 7 101497296.94344
     -3214.738       -2504.964
  23757741.888    23757741.5074   23757742.8594  124847812.371 7  97284019.50344
      3261.237        2541.229
 06  5 11 15  0 30.0000000  0  9G 2G 6G 7G10G13G16G21G23G27
  23468103.864    23468107.6044   23468105.5854  123325732.019 6  96097980.40744
     -3096.349       -2412.730
  22064591.658    22064591.3304   22064592.2274  115950210.930 7  90350827.82645
      -951.486        -741.402
  22970382.092    22970381.6624   22970383.3524  120710192.019 7  94059900.69044
      2874.595        2239.950
  21062640.301    21062639.4654   21062640.3414  110684932.482 8  86248021.90046
      1611.841        1255.989
  22416759.401    22416759.7614   22416759.0394  117800871.624 7  91792900.17344
     -1963.275       -1529.827
  22252112.491    22252111.6824   22252111.5664  116935671.992 7  91118713.33245
       774.426         603.449
  24292787.651    24292787.8254   24292787.2584  127659456.539 7  99474928.99643
      4201.622        3274.017
  24805039.460    24805039.5534   24805037.6154  130351340.373 6 101572483.43744
     -3217.517       -2507.146
  23739147.324    23739146.8934   23739148.1264  124750093.477 7  97207874.80044
      3253.373        2535.080
 06  5 11 15  1  0.0000000  0  9G 2G 6G 7G10G13G16G21G23G27
  23485803.168    23485800.8184   23485798.1294  123418705.862 7  96170427.38644
     -3102.298       -2417.358
  22070066.154    22070065.6834   22070066.6444  115978978.434 8  90373244.11845
      -966.742        -753.306
  22954003.566    22954002.6184   22954004.2014  120624119.747 7  93992831.40444
      2863.137        2231.022
  21053489.228    21053488.4924   21053489.5714  110636843.673 8  86210550.08446
      1593.610        1241.769
  22428005.232    22428005.7264   22428004.9244  117859968.418 7  91838949.61444
     -1976.824       -1540.401
  22247742.021    22247741.6394   22247741.4564  116912707.288 7  91100818.76845
       756.203         589.246
  24268810.855    24268810.6934   24268810.2904  127533454.697 7  99376745.81143
      4198.199        3271.333
  24823416.089    24823415.8704   24823414.9344  130447910.509 6 101647732.83344
     -3220.585       -2509.536
  23720597.091    23720597.1754   23720598.3144  124652615.012 7  97131917.46744
      3244.909        2528.514
 06  5 11 15  1 30.0000000  0  9G 2G 6G 7G10G13G16G21G23G27
  23503531.842    23503528.7534   23503527.5964  123511869.441 7  96243022.28244
     -3108.767       -2422.418
  22075626.912    22075626.7924   22075627.6164  116008202.248 7  90396015.83345
      -981.739        -764.989
  22937690.972    22937690.6524   22937692.2224  120538399.939 7  93926036.83244
      2851.430        2221.880
  21044443.085    21044442.2654   21044443.6754  110589306.608 8  86173508.14846
      1575.242        1227.462
  22439329.528    22439329.8374   22439329.4334  117919478.012 7  91885320.70744
     -1990.533       -1551.060
  22243477.451    22243477.5374   22243476.8294  116890297.953 7  91083356.93945
       737.595         574.726
  24244854.854    24244854.5724   24244855.0604  127407566.493 7  99278651.10543
      4194.231        3268.197
  24841810.926    24841811.0404   24841808.9044  130544574.202 6 101723055.12444
     -3223.708       -2511.998
  23702097.216    23702097.0574   23702098.0164  124555394.853 6  97056161.48744
      3236.227        2521.730
 06  5 11 15  2  0.0000000  0  9G 2G 6G 7G10G13G16G21G23G27
  23521287.536    23521290.2334   23521289.4284  123605211.017 6  96315755.95944
     -3114.438       -2426.834
  22081273.630    22081273.2264   22081273.7224  116037871.885 7  90419134.85645
      -996.569        -776.552
  22921444.205    22921443.9034   22921445.7884  120453025.399 7  93859511.28244
      2840.050        2213.022
  21035500.503    21035499.8694   21035500.8814  110542313.373 8  86136889.99946
      1557.312        1213.483
  22450730.459    22450730.7014   22450729.8764  117979388.789 7  91932004.42844
     -2003.584       -1561.267
  22239317.610    22239316.9494   22239316.6954  116868434.818 7  91066320.75745
       719.590         560.721
  24220919.862    24220918.7684   24220919.2234  127281785.591 7  99180640.14343
      4190.784        3265.560
  24860220.865    24860220.6734   24860219.2224  130641319.433 6 101798440.97144
     -3226.291       -2513.975
  23683644.838    23683644.5914   23683645.3394  124458426.064 7  96980601.35244
      3227.930        2515.290
 06  5 11 15  2 30.0000000  0  9G 2G 6G 7G10G13G16G21G23G27
  23539088.058    23539086.7534   23539084.6054  123698725.861 7  96388624.65944
     -3120.017       -2431.178
  22087003.105    22087003.3124   22087004.2364  116067984.024 7  90442598.69645
     -1011.067        -787.859
  22905264.435    22905263.8494   22905265.2174  120367996.149 7  93793254.78244
      2828.650        2204.141
  21026661.212    21026660.5864   21026661.3494  110495863.128 8  86100695.01246
      1539.325        1199.455
  22462206.038    22462206.6904   22462206.3974  118039696.443 7  91978997.38544
     -2016.808       -1571.547
  22235260.562    22235260.3564   22235259.9624  116847116.378 7  91049708.98645
       701.545         546.645
  24197004.420    24197004.1154   24197003.9914  127156112.201 7  99082712.94343
      4187.309        3262.817
  24878646.051    24878645.2994   24878644.4464  130738142.464 6 101873887.49344
     -3228.761       -2515.949
  23665240.205    23665239.5864   23665240.7024  124361708.825 6  96905237.19144
      3219.674        2508.831
 06  5 11 15  3  0.0000000  0  9G 2G 6G 7G10G13G16G21G23G27
  23556919.093    23556914.3954   23556912.3274  123792411.124 7  96461625.99744
     -3125.769       -2435.664
  22092817.982    22092817.6214   22092818.1104  116098537.171 7  90466406.36345
     -1025.957        -799.443
  22889149.747    22889149.0114   22889150.8234  120283314.063 7  93727268.82144
      2816.683        2194.810
  21017925.452    21017924.6154   21017925.8924  110449956.168 8  86064923.33546
      1521.001        1185.198
  22473757.553    22473757.8744   22473757.7714  118100397.749 7  92026297.11044
     -2030.084       -1581.910
  22231307.542    22231307.2764   22231306.8884  116826342.568 7  91033521.64045
       683.297         532.436
  24173110.430    24173109.6974   24173110.0754  127030548.417 7  98984871.11144
      4183.502        3259.886
  24897084.365    24897084.0714   24897083.4354  130835039.917 6 101949391.96344
     -3231.412       -2517.990
  23646882.660    23646883.0534   23646883.9124  124265245.187 7  96830070.73844
      3211.179        2502.195
 06  5 11 15  3 30.0000000  0  9G 2G 6G 7G10G13G16G21G23G27
  23574772.761    23574773.2094   23574773.0724  123886266.421 6  96534759.89344
     -3131.631       -2440.240
  22098715.151    22098715.1684   22098716.4624  116129531.865 7  90490558.11445
     -1040.997        -811.184
  22873101.996    22873101.8434   22873103.0824  120198983.453 7  93661556.75344
      2804.764        2185.503
  21009293.738    21009292.9304   21009294.3744  110404595.786 8  86029577.58646
      1502.562        1170.807
  22485383.473    22485383.9244   22485383.7454  118161492.818 7  92073903.66244
     -2043.307       -1592.196
  22227458.032    22227458.1984   22227457.9234  116806115.753 7  91017760.49745
       664.799         518.004
  24149238.249    24149238.0124   24149237.5684  126905098.862 7  98887118.12844
      4179.480        3256.764
  24915537.725    24915537.1394   24915535.9544  130932011.527 7 102024954.23344
     -3233.999       -2520.017
  23628577.001    23628576.5824   23628576.5254  124169039.554 7  96755105.26844
      3202.046        2495.072
 06  5 11 15  4  0.0000000  0  9G 2G 6G 7G10G13G16G21G23G27
  23592660.639    23592665.0864   23592665.1254  123980286.992 6  96608022.59244
     -3136.779       -2444.235
  22104697.574    22104697.2024   22104697.9404  116160964.738 8  90515051.11645
     -1055.400        -822.393
  22857121.545    22857121.1504   22857122.6394  120115004.804 7  93596118.95744
      2793.120        2176.452
  21000766.316    21000765.2734   21000766.4684  110359781.075 8  85994656.90746
      1484.561        1156.803
  22497083.481    22497084.3454   22497083.3424  118222977.546 7  92121813.87144
     -2056.142       -1602.189
  22223713.044    22223712.8964   22223712.4834  116786434.390 7  91002424.40045
       646.806         503.979
  24125387.864    24125387.4374   24125387.7834  126779764.778 7  98789455.19244
      4175.542        3253.677
  24934004.283    24934003.7704   24934002.7294  131029053.118 7 102100571.00144
     -3236.128       -2521.640
  23610318.115    23610317.8974   23610319.0104  124073092.539 7  96680341.36244
      3193.687        2488.574
 06  5 11 15  4 30.0000000  0  9G 2G 6G 7G10G13G16G21G23G27
  23610593.152    23610589.3844   23610587.0744  124074471.084 7  96681412.69244
     -3142.073       -2448.381
  22110761.619    22110761.2484   22110762.4644  116192834.884 7  90539884.95045
     -1069.520        -833.398
  22841207.952    22841207.6804   22841209.0504  120031380.443 7  93530957.20144
      2781.694        2167.548
  20992342.173    20992341.2804   20992342.4494  110315513.280 8  85960162.29546
      1466.634        1142.846
  22508858.319    22508858.1144   22508857.5504  118284849.642 7  92170025.86144
     -2068.816       -1612.045
  22220071.769    22220071.5634   22220071.2164  116767298.614 8  90987513.41845
       628.830         490.008
  24101559.843    24101559.2544   24101559.4924  126654548.666 7  98691884.19244
      4172.115        3251.013
  24952483.908    24952483.1594   24952481.7324  131126162.316 6 102176240.39644
     -3238.027       -2523.124
  23592109.547    23592109.5804   23592110.6534  123977406.648 7  96605781.03544
      3184.889        2481.734
 06  5 11 15  5  0.0000000  0  9G 2G 6G 7G10G13G16G21G23G27
  23628546.096    23628540.6614   23628539.1174  124168811.320 7  96754924.49344
     -3147.335       -2452.460
  22116908.818    22116908.5244   22116909.7174  116225135.991 7  90565054.52445
     -1083.977        -844.652
  22825361.492    22825361.4494   22825362.6894  119948107.459 7  93466069.19344
      2769.786        2158.273
  20984021.276    20984020.9034   20984021.9504  110271789.021 8  85926091.46346
      1448.275        1128.529
  22520703.962    22520704.1424   22520703.9514  118347102.141 7  92218534.30244
     -2081.456       -1621.914
  22216533.080    22216533.3674   22216532.8364  116748704.103 7  90973024.21145
       610.672         475.837
  24077753.786    24077753.5814   24077754.2094  126529448.488 7  98594403.57144
      4168.103        3247.881
  24970974.648    24970974.0754   24970972.9844  131223332.090 7 102251956.99644
     -3240.050       -2524.722
  23573949.928    23573949.6364   23573951.1684  123881979.327 7  96531422.15944
      3176.386        2475.078
 06  5 11 15  5 30.0000000  0  9G 2G 6G 7G10G13G16G21G23G27
  23646517.016    23646521.3284   23646521.3644  124263305.105 6  96828555.92144
     -3152.678       -2456.626
  22123136.809    22123136.8754   22123138.0194  116257866.992 7  90590559.12945
     -1098.381        -855.873
  22809583.228    22809582.3954   22809583.7934  119865188.849 7  93401457.35544
      2757.557        2148.733
  20975805.420    20975804.6294   20975805.3234  110228609.050 8  85892444.62346
      1429.765        1114.123
  22532622.563    22532622.9564   22532621.6034  118409732.998 7  92267337.55744
     -2094.469       -1632.050
  22213098.071    22213097.6544   22213097.6224  116730651.238 7  90958957.04745
       592.313         461.539
  24053970.526    24053970.4024   24053970.4564  126404466.720 7  98497015.19544
      4163.634        3244.399
  24989476.244    24989476.2844   24989474.7764  131320560.475 6 102327719.35544
     -3242.176       -2526.369
  23555840.932    23555840.4354   23555842.1584  123786813.088 7  96457266.72544
      3167.404        2468.113
 06  5 11 15  6  0.0000000  0  8G 2G 6G 7G10G13G16G21G27
  23664532.789    23664532.0284   23664531.7954  124357946.143 7  96902302.07844
     -3157.411       -2460.313
  22129446.336    22129446.0234   22129447.4184  116291023.255 7  90616395.38845
     -1112.405        -866.823
  22793870.973    22793870.5884   22793871.9104  119782622.430 7  93337119.90944
      2746.112        2139.838
  20967691.101    20967690.5504   20967691.7634  110185971.111 8  85859220.30246
      1411.989        1100.256
  22544610.970    22544611.7024   22544610.7084  118472735.473 7  92316430.37444
     -2106.270       -1641.241
  22209764.893    22209764.6354   22209764.2654  116713136.382 8  90945309.10545
       574.732         447.844
  24030210.427    24030209.7294   24030209.7154  126279602.303 7  98399718.24344
      4159.981        3241.555
  23537779.895    23537779.9874   23537781.9104  123691906.383 7  96383313.49044
      3159.062        2461.617
 06  5 11 15  6 30.0000000  0  8G 2G 6G 7G10G13G16G21G27
  23682575.636    23682570.9954   23682569.9574  124452737.196 7  96976165.10944
     -3162.193       -2464.015
  22135837.120    22135837.1604   22135838.2124  116324606.932 7  90642564.54945
     -1126.578        -877.855
  22778227.409    22778226.8024   22778228.5334  119700415.253 7  93273062.42744
      2734.260        2130.577
  20959681.415    20959680.6704   20959682.1234  110143880.818 8  85826422.90446
      1393.791        1086.070
  22556671.666    22556671.7584   22556670.9014  118536112.298 7  92365814.89544
     -2118.898       -1651.068
  22206535.310    22206534.9514   22206534.4614  116696164.434 8  90932084.23345
       556.604         433.723
  24006473.242    24006472.2904   24006472.5064  126154862.566 7  98302518.44044
      4155.776        3238.279
  23519771.497    23519771.3964   23519772.5314  123597266.301 7  96309567.96944
      3150.096        2454.620
 06  5 11 15  7  0.0000000  0  8G 2G 6G 7G10G13G16G21G27
  23700637.005    23700634.0274   23700633.7734  124547667.131 7  97050136.39944
     -3167.015       -2467.803
  22142307.140    22142307.3064   22142308.3884  116358608.546 7  90669059.28145
     -1140.467        -888.661
  22762651.103    22762650.5974   22762652.0434  119618560.952 7  93209279.92444
      2722.325        2121.299
  20951774.739    20951773.9974   20951774.9324  110102330.219 8  85794045.95046
      1375.794        1072.056
  22568801.263    22568801.4864   22568800.3144  118599852.701 7  92415482.71844
     -2131.059       -1660.542
  22203407.060    22203407.0854   22203406.5324  116679726.865 7  90919275.75345
       538.772         419.817
  23982758.837    23982757.8374   23982757.9454  126030241.849 7  98205411.42544
      4151.773        3235.151
  23501811.749    23501811.1964   23501812.9654  123502886.707 7  96236025.46844
      3141.371        2447.841
 06  5 11 15  7 30.0000000  0  9G 2G 6G 7G 8G10G13G16G21G27
  23718720.949    23718725.1094   23718725.0704  124642737.852 5  97124217.59944
     -3171.906       -2471.609
  22148858.155    22148857.7384   22148858.8594  116393031.370 7  90695882.23745
     -1155.010        -899.997
  22747143.097    22747142.6274   22747144.2174  119537066.406 7  93145777.70844
      2709.835        2111.577
  25312012.485    25312012.2484   25312014.5344  133015553.473 6 103648473.47642
      4584.188        3572.070
  20943971.203    20943970.6574   20943971.6734  110061324.913 8  85762093.85646
      1357.146        1057.534
  22580999.895    22580999.8364   22580999.8114  118663958.918 7  92465435.57544
     -2143.429       -1670.205
  22200381.409    22200381.4644   22200381.2804  116663828.530 7  90906887.42045
       520.348         405.482
  23959067.855    23959067.5764   23959067.4084  125905747.299 7  98108402.69544
      4147.091        3231.514
  23483901.919    23483901.8664   23483902.9794  123408774.977 7  96162691.69244
      3132.004        2440.545
 06  5 11 15  8  0.0000000  0  9G 2G 6G 7G 8G10G13G16G21G27
  23736848.255    23736845.6104   23736844.9464  124737957.027 7  97198414.45143
     -3176.382       -2475.102
  22155490.307    22155490.2874   22155490.7554  116427883.970 7  90723040.17845
     -1168.953        -910.877
  22731706.291    22731705.7574   22731706.7744  119455943.531 7  93082565.07644
      2697.977        2102.320
  25285842.567    25285839.3614   25285841.5474  132878018.738 6 103541303.85042
      4584.247        3572.142
  20936274.259    20936273.5524   20936274.4104  110020875.521 8  85730574.90746
      1339.145        1043.492
  22593269.524    22593269.9114   22593269.7534  118728438.373 7  92515679.27244
     -2155.275       -1679.428
  22197461.008    22197460.9084   22197460.8264  116648479.993 8  90894927.53245
       502.503         391.565
  23935403.518    23935403.7894   23935403.5574  125781391.351 7  98011502.00644
      4142.954        3228.277
  23466045.830    23466045.9604   23466047.4634  123314943.089 7  96089575.98144
      3123.191        2433.644
